     2.11           OBSERVATION DATA    G (GPS)             RINEX VERSION / TYPE
teqc 2007Jun25 20080611 11:13:03UTC                         PGM / RUN BY / DATE
MSXP|IAx86-PII|bcc32 5.0|MSWin95->XP|486/DX+                COMMENT
2.10 OBSERVATION DATA G (GPS)                               COMMENT
teqc 2006Sep26 Ole Bjerregaard 20080421 00:02:50UTC         COMMENT
Linux 2.4.20-8|Pentium IV|gcc -static|Linux|486/DX+         COMMENT
teqc 2002Mar14 20080419 23:59:47UTC                         COMMENT
MSWin2000|IAx86-PII|bcc32 5.0|MSWin95/98/NT/2000|486/DX+    COMMENT
BIT 2 OF LLI FLAGS DATA COLLECTED UNDER A/S CONDITION       COMMENT
SNR is mapped to RINEX snr flag value [1-9]                 COMMENT
L1: 1 -> 1; 90 -> 5; 210 -> 9                               COMMENT
L2: 1 -> 1; 150 -> 5; 250 -> 9                              COMMENT
SCOR                                                        MARKER NAME
43006M002                                                   MARKER NUMBER
DNSC DNSC                                                   OBSERVER / AGENCY
00703 ASHTECH UZ-12 CJ00                                    REC # / TYPE / VERS
11301 ASH701941.B SCIS                                      ANT # / TYPE
  1982096.1000  -798821.0000  5989464.5000                  APPROX POSITION XYZ
        0.1977        0.0000        0.0000                  ANTENNA: DELTA H/E/N
     1     1                                                WAVELENGTH FACT L1/2
     9    C1    L1    L2    P1    P2    D1    D2    S1    S2# / TYPES OF OBSERV
    30.0000                                                 INTERVAL
Forced Modulo Decimation to 30 seconds                      COMMENT
teqc windowed: start @ 2008 Apr 20 00:00:00.000             COMMENT
  2008     4    20     0     0    0.0000000     GPS         TIME OF FIRST OBS
                                                            END OF HEADER
 08  4 20  0  0  0.0000000  0 11G30G14G29G 5G23G31G12G 4G20G 2G 1
  20783484.2364  -24993932.10944 -11086797.94442  20783483.3724   20783484.6734
     -1798.1114      -1401.1314         58.0004         51.0004
  24572983.3104   -4735489.07643  -3656759.00642  24572981.8704   24572983.0714
     -3885.7234      -3027.8324         44.0004         38.0004
  21914076.5334  -13238491.39543 -10306704.71542  21914075.2264   21914076.3844
      2291.5444       1785.6234         54.0004         49.0004
  21810097.5674  -17569867.63943 -13635424.42542  21810096.5054   21810098.7554
     -2991.3504      -2330.9244         53.0004         47.0004
  23495094.9604   -8206839.08943  -6383757.98342  23495091.9074   23495091.9154
      2928.2614       2281.7444         50.0004         42.0004
  20916895.8564  -25031719.17344 -18160347.37642  20916894.9314   20916895.1934
       484.5104        377.5384         58.0004         52.0004
  23304042.6984  -12433220.40343  -2095311.42342  23304042.7324   23304043.8174
     -3306.8384      -2576.7644         50.0004         44.0004
  23550493.0854   -3007902.94643  -2261713.43042  23550493.2034   23550496.4204
     -1743.8414      -1358.8374         48.0004         42.0004
  23803313.0714   -6010227.45643  -4680106.53642  23803312.3814   23803313.0414
     -2230.4234      -1737.9854         48.0004         41.0004
  22781270.7274  -12906174.72243 -10040123.37442  22781270.4554   22781270.0684
       787.1084        613.3244         51.0004         45.0004
  22592854.6064   -5032390.98443  -3907614.90242  22592853.5524   22592856.4194
     -2856.1284      -2225.5494         51.0004         45.0004
 08  4 20  0  0 30.0000000  0 12G30G14G29G 5G23G31G16G12G 4G20G 2G 1
  20793799.3084  -24939726.02144 -11044559.45742  20793798.3964   20793799.8214
     -1816.1354      -1415.1724         58.0004         51.0004
  24595176.2084   -4618863.20943  -3565881.74542  24595175.5784   24595177.6224
     -3890.0284      -3031.1924         43.0004         37.0004
  21901038.5474  -13307003.89343 -10360091.06642  21901037.9394   21901039.1844
      2275.4004       1773.0394         54.0004         49.0004
  21827209.0464  -17479949.97843 -13565358.73142  21827206.9614   21827209.5334
     -3003.6654      -2340.5244         53.0004         47.0004
  23478412.6914   -8294493.30543  -6452059.92542  23478411.2304   23478411.8354
      2914.7524       2271.2214         49.0004         43.0004
  20914180.6364  -25045986.90544 -18171465.11542  20914179.8574   20914180.2434
       466.1004        363.1854         58.0004         52.0004
  25094220.6534   -1863007.40543  -1439021.32042  25094221.4624   25094222.3224
      3858.1284       3006.3274         43.0004         36.0004
  23322941.6294  -12333907.83343  -2017925.06942  23322941.2604   23322941.8914
     -3314.7194      -2582.8934         50.0004         44.0004
  23560501.2554   -2955318.86443  -2220738.88142  23560499.4074   23560501.0174
     -1762.2584      -1373.2094         50.0004         42.0004
  23816090.7514   -5943080.89043  -4627784.52242  23816088.9054   23816089.9184
     -2246.7144      -1750.7084         49.0004         40.0004
  22776834.7534  -12929484.46043 -10058286.75142  22776834.2474   22776834.6044
       766.1704        597.0064         51.0004         45.0004
  22609198.5454   -4946508.47243  -3840693.47442  22609196.9474   22609198.7854
     -2869.7744      -2236.1924         52.0004         45.0004
 08  4 20  0  1  0.0000000  0 12G30G14G29G 5G23G31G16G12G 4G20G 2G 1
  20804216.5894  -24884981.66044 -11001901.56742  20804215.7044   20804217.3534
     -1833.9554      -1429.0604         58.0004         51.0004
  24617394.7574   -4502106.05943  -3474902.18442  24617393.1574   24617393.9914
     -3894.6604      -3034.7974         41.0004         36.0004
  21888093.6234  -13375032.88443 -10413100.66142  21888092.3614   21888093.8064
      2259.3924       1760.5594         55.0004         49.0004
  21844388.5124  -17389668.96743 -13495009.94342  21844387.2714   21844389.2314
     -3015.5464      -2349.7754         53.0004         46.0004
  23461809.5924   -8381736.77843  -6520041.81942  23461809.6404   23461809.9354
      2901.2324       2260.7024         49.0004         42.0004
  20911570.3424  -25059704.29144 -18182153.99842  20911569.5574   20911570.0744
       447.9464        349.0554         58.0004         52.0004
  25072201.6964   -1978722.25843  -1529188.66542  25072198.0934   25072200.3104
      3855.7084       3004.4564         43.0004         36.0004
  23341885.6894  -12234358.41043  -1940354.06142  23341884.9354   23341886.0874
     -3322.5544      -2588.9934         50.0004         44.0004
  23570610.7724   -2902180.63143  -2179332.48842  23570612.0744   23570613.0434
     -1780.6514      -1387.5084         49.0004         42.0004
  23828959.9534   -5875453.68343  -4575087.87542  23828957.2164   23828960.5334
     -2262.4384      -1762.9494         47.0004         40.0004
  22772518.5204  -12952167.04343 -10075961.55342  22772518.1604   22772518.2994
       745.5844        580.9614         51.0004         45.0004
  22625618.9294   -4860220.64843  -3773456.20442  22625616.8974   22625619.5294
     -2883.2094      -2246.6684         52.0004         45.0004
 08  4 20  0  1 30.0000000  0 12G30G14G29G 5G23G31G16G12G 4G20G 2G 1
  20814735.3894  -24829705.43044 -10958829.17842  20814734.4554   20814735.9604
     -1851.4644      -1442.6964         58.0004         51.0004
  24639637.1644   -4385225.43343  -3383826.45342  24639635.8234   24639636.2914
     -3897.6254      -3037.1124         41.0004         36.0004
  21875239.2274  -13442580.97043 -10465735.52542  21875238.3564   21875240.1954
      2243.5764       1748.2434         54.0004         49.0004
  21861636.4714  -17299031.62243 -13424383.57342  21861634.5354   21861637.1914
     -3027.2864      -2358.9174         53.0004         46.0004
  23445287.5014   -8468571.46443  -6587705.19142  23445286.5084   23445284.9504
      2887.6734       2250.1244         50.0004         43.0004
  20909064.0054  -25072875.88244 -18192417.63342  20909063.2424   20909063.4304
       429.9244        335.0124         58.0004         52.0004
  25050194.1244   -2094373.17643  -1619306.31342  25050193.0304   25050191.6654
      3854.0934       3003.1884         42.0004         36.0004
  23360872.8984  -12134578.76343  -1862603.62242  23360872.4364   23360873.5274
     -3329.8254      -2594.6644         50.0004         45.0004
  23580828.9704   -2848494.75543  -2137499.37542  23580828.2554   23580829.6554
     -1798.5144      -1401.4404         50.0004         42.0004
  23841915.9974   -5807353.30043  -4522022.63542  23841915.5774   23841921.5444
     -2278.3204      -1775.3074         45.0004         40.0004
  22768323.9214  -12974225.78443 -10093150.15542  22768320.6884   22768320.7394
       724.7934        564.7824         52.0004         45.0004
  22642113.3524   -4773534.62543  -3705908.63542  22642111.7794   22642115.4664
     -2896.2884      -2256.8404         51.0004         45.0004
 08  4 20  0  2  0.0000000  0 12G30G14G29G 5G23G31G16G12G 4G20G 2G 1
  20825355.7104  -24773896.42544 -10915341.69342  20825354.7064   20825356.0494
     -1869.6034      -1456.8334         58.0004         51.0004
  24661901.2494   -4268220.46643  -3292653.77042  24661900.0964   24661901.1504
     -3902.3364      -3040.7784         42.0004         36.0004
  21862478.1114  -13509643.26343 -10517991.85242  21862476.9334   21862478.3144
      2226.8704       1735.2194         55.0004         49.0004
  21878952.0834  -17208036.86143 -13353478.68442  21878950.3814   21878953.2524
     -3039.6144      -2368.5284         53.0004         46.0004
  23428843.3964   -8554991.39143  -6655045.33742  23428842.0164   23428839.3784
      2873.3984       2239.0094         51.0004         43.0004
  20906662.2234  -25085497.19644 -18202252.46342  20906661.4374   20906661.4534
       411.0144        320.2644         58.0004         52.0004
  25028199.0484   -2209955.25143  -1709370.31642  25028198.7024   25028199.8604
      3851.1434       3000.8834         42.0004         35.0004
  23379904.2524  -12034568.01743  -1784673.13242  23379903.3584   23379905.0854
     -3337.9064      -2600.9704         50.0004         45.0004
  23591146.4464   -2794259.95843  -2095238.51442  23591148.4634   23591149.8254
     -1817.5344      -1416.2544         49.0004         42.0004
  23854967.0514   -5738779.40943  -4468588.49742  23854966.2004   23854968.7524
     -2294.4874      -1787.9074         46.0004         41.0004
  22764242.9944  -12995657.03343 -10109849.72742  22764241.5994   22764242.6864
       703.4224        548.1014         51.0004         45.0004
  22658685.0744   -4686449.78743  -3638050.32942  22658683.6674   22658685.9414
     -2909.7004      -2267.3094         51.0004         45.0004
 08  4 20  0  2 30.0000000  0 12G30G14G29G 5G23G31G16G12G 4G20G 2G 1
  20836077.3534  -24717554.95744 -10871439.28642  20836076.2734   20836077.6384
     -1886.5644      -1470.0474         58.0004         51.0004
  24684188.9194   -4151093.24943  -3201385.85742  24684186.8194   24684190.1584
     -3906.2284      -3043.8144         42.0004         36.0004
  21849809.4984  -13576216.97843 -10569867.48342  21849808.4714   21849809.1834
      2211.2364       1723.0444         54.0004         49.0004
  21896335.3524  -17116685.98643 -13282296.21642  21896333.5574   21896336.5754
     -3050.5754      -2377.0704         52.0004         46.0004
  23412477.5194   -8640993.24843  -6722059.75042  23412475.0084   23412474.3064
      2860.1524       2228.6694         50.0004         43.0004
  20904365.6904  -25097566.97444 -18211657.59242  20904364.7484   20904365.1284
       393.4794        306.6144         58.0004         52.0004
  25006217.628
                                        41.000
  23398979.4374  -11934327.31643  -1706563.46842  23398978.3264   23398980.3454
     -3344.7844      -2606.3234         50.0004         45.0004
  23601573.3014   -2739477.45543  -2052550.81242  23601573.7644   23601574.7664
     -1834.6874      -1429.6384         49.0004         42.0004
  23868105.4854   -5669733.27343  -4414786.33042  23868104.5354   23868105.3074
     -2309.4604      -1799.5734         45.0004         40.0004
  22760285.8294  -13016458.54743 -10126058.54842  22760283.5894   22760283.9564
       683.2584        532.4094         52.0004         45.0004
  22675333.2734   -4598967.72943  -3569882.42342  22675331.7094   22675334.0134
     -2922.2174      -2277.0494         52.0004         45.0004
 08  4 20  0  3  0.0000000  0 12G30G14G29G 5G23G31G16G12G 4G20G 2G 1
  20846898.7154  -24660685.93744 -10827125.83742  20846898.0594   20846899.3504
     -1904.4864      -1484.0194         58.0004         50.0004
  24706501.4014   -4033849.36343  -3110027.08042  24706499.8224   24706501.4974
     -3910.9424      -3047.4834         43.0004         37.0004
  21837233.7174  -13642302.94143 -10621363.04142  21837232.8244   21837233.9634
      2194.5354       1710.0164         55.0004         49.0004
  21913786.0124  -17024984.24543 -13210840.33342  21913784.3914   21913786.3564
     -3062.6804      -2386.5024         53.0004         46.0004
  23396190.6344   -8726576.73043  -6788748.15942  23396189.3914   23396187.3294
      2845.5664       2217.2974         51.0004         43.0004
  20902172.9204  -25109087.72944 -18220634.88142  20902172.2244   20902172.8014
       374.7944        292.0504         58.0004         52.0004
  24984253.0294   -2440906.07643                                  24984250.6984
      3846.6704                         42.0004
  23418097.7974  -11833861.76043  -1628278.76242  23418097.2774   23418098.5134
     -3352.7164      -2612.5104         50.0004         44.0004
  23612099.4524   -2684151.95743  -2009440.09042  23612101.5924   23612101.8884
     -1853.3514      -1444.1824         49.0004         42.0004
  23881335.2644   -5600220.60243  -4360620.63642  23881333.6834   23881332.8864
     -2324.8084      -1811.5444         48.0004         39.0004
  22756446.5894  -13036633.06543 -10141778.96742  22756444.5704   22756444.9314
       662.0074        515.8684         51.0004         45.0004
  22692054.3904   -4511093.85143  -3501409.23442  22692053.4424   22692055.9584
     -2935.7844      -2287.6214         51.0004         45.0004
 08  4 20  0  3 30.0000000  0 12G30G14G29G 5G23G31G16G12G 4G20G 2G 1
  20857820.7194  -24603290.10744 -10782401.87642  20857820.0574   20857821.4514
     -1921.8674      -1497.5494         58.0004         50.0004
  24728833.8984   -3916490.15643  -3018578.40342  24728831.7194   24728833.7914
     -3913.6784      -3049.6134         42.0004         37.0004
  21824751.3684  -13707898.37543 -10672476.34042  21824750.3754   21824751.1674
      2178.3044       1697.3794         55.0004         49.0004
  21931303.1614  -16932932.73643 -13139111.81942  21931301.1614   21931303.5984
     -3074.1284      -2395.4234         53.0004         46.0004
  23379984.4344   -8811738.68343  -6855108.05842  23379983.4944   23379981.7634
      2831.6224       2206.4644         50.0004         43.0004
  20900085.3424  -25120057.91344 -18229183.03742  20900084.6994   20900085.0224
       356.4384        277.7394         58.0004         52.0004
  24962299.0934   -2556272.92643  -1979228.29542  24962296.5954   24962300.2164
      3844.3764       2995.6194         44.0004         36.0004
  23437258.9824  -11733171.89843  -1549819.19542  23437257.9354   23437259.0134
     -3360.0524      -2618.2124         50.0004         44.0004
  23622731.8724   -2628284.56643  -1965906.99042  23622731.9854   23622734.6504
     -1871.3194      -1458.1444         49.0004         41.0004
  23894650.7244   -5530242.50043  -4306092.19242  23894648.3204   23894650.3084
     -2340.1654      -1823.4984         46.0004         39.0004
  22752725.9364  -13056178.44343 -10157009.29242  22752725.3974   22752725.2874
       640.9584        499.4514         51.0004         45.0004
  22708851.0024   -4422829.76543  -3432631.99842  22708849.3304   22708851.5174
     -2948.7984      -2297.7534         52.0004         45.0004
 08  4 20  0  4  0.0000000  0 12G30G14G29G 5G23G31G16G12G 4G20G 2G 1
  20868846.3904  -24545352.22044 -10737255.48342  20868845.2474   20868846.7074
     -1939.6394      -1511.4114         58.0004         50.0004
  24751191.7234   -3799001.60743  -2927028.93342  24751190.3144   24751191.1034
     -3917.0454      -3052.2454         42.0004         36.0004
  21812365.6274  -13772984.66843 -10723192.91742  21812364.5254   21812365.9574
      2161.7144       1684.4484         55.0004         49.0004
  21948888.6894  -16840517.24643 -13067099.70242  21948886.7224   21948889.2054
     -3085.9404      -2404.6394         52.0004         46.0004
  23363861.7074   -8896459.32743  -6921124.10942  23363860.0134   23363860.5654
      2817.2604       2195.2514         50.0004         43.0004
  20898106.1354  -25130460.00644 -18237288.44142  20898105.3464   20898105.7904
       337.8964        263.2824         58.0004         52.0004
  24940362.1334   -2671547.91143  -2069052.88942  24940360.5754   24940361.0504
      3841.2064       2993.1364         43.0004         37.0004
  23456464.3964  -11632242.75143  -1471173.01742  23456463.5934   23456464.5304
     -3367.3564      -2623.9254         50.0004         44.0004
  23633467.3234   -2571860.57143  -1921940.21142  23633468.6634   23633471.8264
     -1889.6284      -1472.3974         46.0004         42.0004
  23908059.7184   -5459784.91843  -4251190.21042  23908058.7914   23908059.1504
     -2355.8484      -1835.7474         47.0004         40.0004
  22749130.3314  -13075076.75643 -10171735.32142  22749129.0494   22749129.1314
       619.7534        482.9204         51.0004         45.0004
  22725724.1334   -4334161.32943  -3363539.69842  22725722.3654   22725725.0354
     -2961.6374      -2307.7834         52.0004         45.0004
 08  4 20  0  4 30.0000000  0 12G30G14G29G 5G23G31G16G12G 4G20G 2G 1
  20879967.5384  -24486909.52644 -10691715.62842  20879966.6274   20879968.1864
     -1957.6664      -1525.4594         57.0004         50.0004
  24773567.1564   -3681421.72943  -2835408.21142  24773565.6294   24773567.0564
     -3921.9074      -3056.0384         44.0004         37.0004
  21800070.4384  -13837595.31243 -10773538.86442  21800069.2854   21800070.8664
      2144.5584       1671.0764         54.0004         49.0004
  21966537.2244  -16747775.17643 -12994833.09742  21966535.4194   21966537.5564
     -3098.0404      -2414.0714         53.0004         46.0004
  23347819.8254   -8980771.34843  -6986821.79442  23347817.8544   23347815.9964
      2802.3624       2183.6424         51.0004         43.0004
  20896227.5594  -25140329.49444 -18244978.93142  20896227.0004   20896227.6574
       318.8844        248.4764         58.0004         52.0004
  24918435.2494   -2786765.77343  -2158833.16242  24918434.8384   24918435.3864
      3838.3724       2990.9394         42.0004         37.0004
  23475708.7474  -11531112.02243  -1392369.79742  23475707.2054   23475708.3604
     -3375.7124      -2630.4244         50.0004         44.0004
  23644308.4814   -2514917.47943  -1877568.97842  23644306.3284   23644305.7294
     -1908.0214      -1486.8124         50.0004         41.0004
  23921551.5594   -5388885.90943  -4195944.26142  23921548.3524   23921551.8584
     -2371.5784      -1847.9864         47.0004         40.0004
  22745651.9934  -13093362.74043 -10185984.25042  22745650.1754   22745649.9784
       598.1844        466.1184         52.0004         45.0004
  22742666.4424   -4245126.33943  -3294161.76642  22742665.0234   22742667.3584
     -2975.1434      -2318.3004         52.0004         45.0004
 08  4 20  0  5  0.0000000  0 12G30G14G29G 5G23G31G16G12G 4G20G 2G 1
  20891189.1414  -24427940.39744 -10645765.66042  20891188.0024   20891189.4374
     -1973.9304      -1538.1254         57.0004         50.0004
  24795961.9214   -3563729.69843  -2743700.18742  24795961.2594   24795963.1224
     -3924.7494      -3058.2424         41.0004         37.0004
  21787870.9094  -13901705.15643 -10823494.66542  21787869.8084   21787871.0834
      2129.1024       1659.0474         55.0004         49.0004
  21984251.4444  -16654685.28543 -12922295.52142  21984250.1804   21984252.3224
     -3108.3694      -2422.1174         52.0004         46.0004
  23331856.7014   -9064648.61043  -7052180.69442  23331856.7514   23331855.7514
      2789.2524       2173.4554         50.0004         43.0004
  20894455.9214  -25149641.70944 -18252235.21342  20894455.1814   20894455.0124
       301.6354        235.0424         58.0004         52.0004
  24896527.7684   -2901899.70043  -2248547.79842  24896525.8314   24896527.2254
      3836.7724       2989.6874         44.0004         37.0004
  23494995.9974  -11429758.13243  -1313392.85442  23494994.6274   23494995.9814
     -3381.7884      -2635.1554         50.0004         44.0004
  23655246.4454   -2457433.68643  -1832776.38542  23655243.0784   23655246.4704
     -1924.4684      -1499.5864         48.0004         41.0004
  23935130.7534   -5317524.20543  -4140337.84842  23935129.1934   23935131.7074
     -2385.4984      -1858.8374         48.0004         40.0004
  22742293.1014  -13111011.86143 -10199736.94642  22742291.1124   22742290.6354
       578.2414        450.5644         52.0004         45.0004
  22759683.2924   -4155703.56043  -3224481.71042  22759681.2544   22759684.6074
     -2986.5844      -2327.1984         51.0004         45.0004
 08  4 20  0  5 30.0000000  0 12G30G14G29G 5G23G31G16G12G 4G20G 2G 1
  20902509.0824  -24368453.15544 -10599412.14542  20902508.0944   20902509.4574
     -1991.0864      -1551.4764         57.0004         50.0004
  24818377.2294   -3445934.17943  -2651911.53842  24818374.6484   24818379.5444
     -3927.6944      -3060.5404         42.0004         37.0004
  21775765.8754  -13965317.73143 -10873062.97942  21775764.9194   21775766.0874
      2112.5084       1646.1154         55.0004         49.0004
  22002030.3644  -16561255.79943 -12849493.31742  22002029.0694   22002031.4264
     -3119.4924      -2430.7704         52.0004         46.0004
  23315977.5184   -9148094.12643  -7117203.13742  23315978.0204   23315975.2044
      2774.7664       2162.1664         51.0004         43.0004
  20892788.2994  -25158402.26744 -18259061.67242  20892787.6734   20892788.6644
       283.3204        220.7744         58.0004         52.0004
  24874632.0834   -3016954.63643  -2338200.78742  24874630.9344   24874634.7444
      3834.2634       2987.7424         43.0004         37.0004
  23514324.1554  -11328189.19543  -1234248.36242  23514322.6624   23514324.8894
     -3388.7264      -2640.5414         50.0004         44.0004
  23666281.6234   -2399417.14543  -1787568.71742  23666284.3214   23666286.3664
     -1942.3554      -1513.4834         46.0004         41.0004
  23948797.6994   -5245708.70743  -4084377.67842  23948795.1544   23948796.1504
     -2400.9454      -1870.8734         47.0004         40.0004
  22739054.5744  -13128029.28143 -10212997.32442  22739053.2694   22739053.2254
       557.0524        434.0704         52.0004         45.0004
  22776772.5314   -4065901.74743  -3154506.30342  22776771.0364   22776773.0834
     -2999.1094      -2336.9714         52.0004         44.0004
 08  4 20  0  6  0.0000000  0 12G30G14G29G 5G23G31G16G12G 4G20G 2G 1
  20913927.4434  -24308449.58644 -10552656.20642  20913926.2794   20913927.9954
     -2008.4884      -1565.0514         57.0004         50.0004
  24840811.5434   -3328038.46043  -2560044.68742  24840809.5454   24840813.1824
     -3931.0664      -3063.1754         41.0004         37.0004
  21763755.3444  -14028432.17943 -10922243.17542  21763754.6094   21763755.7994
      2095.7294       1633.0444         54.0004         49.0004
  22019873.9204  -16467489.90143 -12776429.17842  22019872.2544   22019875.0554
     -3130.9014      -2439.6604         53.0004         46.0004
  23300180.8154   -9231105.78543  -7181887.53642  23300178.8094   23300179.1244
      2760.0254       2150.6774         50.0004         43.0004
  20891227.1544  -25166611.45944 -18265458.48742  20891226.2674   20891226.4754
       264.6574        206.2284         58.0004         52.0004
  24852754.1024   -3131929.33543  -2427791.58742  24852751.6494   24852753.7774
      3831.5464       2985.6144         43.0004         38.0004
  23533692.6414  -11226407.39943  -1154938.01442  23533691.2534   23533693.1814
     -3395.9104      -2646.1574         50.0004         44.0004
  23677425.6744   -2340870.72443  -1741948.13142  23677426.0524   23677427.4804
     -1960.2714      -1527.4754         49.0004         41.0004
  23962547.1064   -5173442.48743  -4028066.37242  23962547.7304   23962547.7724
     -2416.1704      -1882.7084         47.0004         40.0004
  22735938.3354  -13144414.55243 -10225765.06042  22735935.2564   22735935.0474
       535.8514        417.5514         52.0004         45.0004
  22793931.8434   -3975723.76843  -3084237.77642  22793931.6474   22793933.3334
     -3011.9044      -2346.9484         51.0004         44.0004
 08  4 20  0  6 30.0000000  0 12G30G14G29G 5G23G31G16G12G 4G20G 2G 1
  20925444.8534  -24247925.77044 -10505494.73342  20925443.7104   20925445.5904
     -2025.6374      -1578.4174         57.0004         50.0004
  24863265.3094   -3210039.70643  -2468097.62842  24863263.7694   24863268.6434
     -3934.3864      -3065.7474         39.0004         36.0004
  21751841.9854  -14091041.03443 -10971029.41342  21751840.8744   21751842.1854
      2078.8784       1619.9134         55.0004         49.0004
  22037781.9154  -16373384.00943 -12703100.13542  22037780.1954   22037783.1204
     -3142.1794      -2448.4454         52.0004         46.0004
  23284469.5134   -9313675.63143  -7246227.66342  23284467.8184   23284467.3374
      2745.3674       2139.2644         51.0004         44.0004
  20889770.3824  -25174263.26044 -18271420.96042  20889769.6974   20889770.0394
       246.2384        191.8784         58.0004         52.0004
  24830890.1964   -3246815.58643  -2517312.93042  24830888.8964   24830891.4524
      3828.3314       2983.1054         43.0004         38.0004
  23553101.9254  -11124409.51343  -1075459.24942  23553100.7494   23553102.7674
     -3403.2384      -2651.8764         50.0004         44.0004
  23688669.4474   -2281790.77443  -1695911.80142  23688667.9924   23688669.8894
     -1977.8334      -1541.1854         49.0004         42.0004
  23976388.1684   -5100722.54943  -3971401.45242  23976383.8684   23976384.5074
     -2431.0654      -1894.3424         47.0004         40.0004
  22732936.6774  -13160161.93743 -10238035.65842  22732938.0354   22732937.9724
       514.7414        401.0954         51.0004         45.0004
  22811164.7734   -3885166.71743  -3013673.83442  22811164.1214   22811165.5934
     -3024.4044      -2356.6694         52.0004         45.0004
 08  4 20  0  7  0.0000000  0 12G30G14G29G 5G23G31G16G12G 4G20G 2G 1
  20937059.5624  -24186889.15444 -10457933.73742  20937058.5984   20937060.3634
     -2043.5024      -1592.3354         57.0004         50.0004
  24885738.2454   -3091945.36043  -2376076.05942  24885737.3854   24885741.1664
     -3938.5104      -3068.9824         40.0004         36.0004
  21740023.3004  -14153147.41743 -11019423.99442  21740022.5584   21740023.7084
      2061.5154       1606.3754         55.0004         49.0004
  22055752.5474  -16278944.89643 -12629511.17142  22055751.2114   22055753.5364
     -3153.7304      -2457.4524         52.0004         46.0004
  23268838.8784   -9395806.04743  -7310225.33942  23268837.5724   23268837.9414
      2729.9054       2127.1964         50.0004         44.0004
  20888419.4664  -25181362.04544 -18276952.45442  20888418.7684   20888419.6964
       227.0714        176.9414         58.0004         52.0004
  24809043.4494   -3361617.80843  -2606768.88042  24809042.1534   24809044.7094
      3824.9344       2980.4564         43.0004         38.0004
  23572551.1694  -11022202.54143   -995817.63842  23572550.3084   23572551.8414
     -3410.7014      -2657.6804         49.0004         44.0004
  23700009.6664   -2222184.60943  -1649465.44942  23700009.9054   23700011.9364
     -1996.1714      -1555.4824         47.0004         41.0004
  23990307.2494   -5027556.51743  -3914388.98442  23990308.5344   23990308.7574
     -2446.5714      -1906.4204         46.0004         39.0004
  22730063.4454  -13175275.51243 -10249812.38742  22730062.5034   22730062.3004
       492.9574        384.1074         51.0004         45.0004
  22828468.2794   -3794238.54743  -2942820.75042  22828466.3334   22828468.7064
     -3037.2264      -2366.6574         52.0004         45.0004
 08  4 20  0  7 30.0000000  0 12G30G14G29G 5G23G31G16G12G 4G20G 2G 1
  20948771.8424  -24125337.31644 -10409971.28142  20948771.5094   20948773.1214
     -2059.9494      -1605.1534         57.0004         50.0004
  24908228.9434   -2973754.57943  -2283979.34242  24908228.3014   24908229.2844
     -3941.2554      -3071.1044         39.0004         35.0004
  21728301.0244  -14214746.09543 -11067422.99642  21728300.3944   21728302.0364
      2045.1964       1593.6594         55.0004         49.0004
  22073787.6184  -16184171.70943 -12555662.06942  22073786.3964   22073788.4454
     -3164.3194      -2465.7054         52.0004         46.0004
  23253296.6354   -9477490.22343  -7373875.32742  23253295.3834   23253294.5114
      2715.7124       2116.1354         52.0004         44.0004
  20887175.0464  -25187903.41144 -18282049.43742  20887174.2864   20887174.9084
       209.1604        162.9784         58.0004         52.0004
  24787215.7394   -3476330.33743  -2696155.09042  24787215.0824   24787215.5264
      3822.2914       2978.4084         44.0004         38.0004
  23592040.6264  -10919783.86643   -916010.81342  23592040.5194   23592042.7234
     -3417.1584      -2662.7284         49.0004         44.0004
  23711453.6424   -2162050.53743  -1602607.78442  23711454.2814   23711455.2874
     -2012.7534      -1568.3734         49.0004         41.0004
  24004320.5644   -4953943.25243  -3857027.92942  24004318.8154   24004318.3554
     -2460.6264      -1917.3724         47.0004         40.0004
  22727311.7754  -13189750.47343 -10261091.45542  22727307.6404   22727307.7804
       472.1904        367.9474         52.0004         45.0004
  22845841.8614   -3702937.79543  -2871677.44242  22845840.6554   22845844.2384
     -3049.2514      -2376.0274         52.0004         45.0004
 08  4 20  0  8  0.0000000  0 12G30G14G29G 5G23G31G16G12G 4G20G 2G 1
  20960581.3964  -24063279.88844 -10361614.83342  20960580.5514   20960582.2424
     -2077.4014      -1618.7604         57.0004         50.0004
  24930738.2594   -2855477.26843  -2191815.24042  24930735.9914   24930735.6934
     -3944.3474      -3073.5234         40.0004         34.0004
  21716675.4404  -14275842.27543 -11115030.41442  21716674.4564   21716675.6604
      2027.7984       1580.1034         55.0004         49.0004
  22091883.7934  -16089073.80343 -12481559.79442  22091882.9794   22091885.5124
     -3175.9484      -2474.7714         52.0004         46.0004
  23237835.5174   -9558733.50043  -7437181.74942  23237833.8314   23237834.2834
      2700.3474       2104.1554         50.0004         43.0004
  20886034.0754  -25193895.16444 -18286718.29042  20886033.6634   20886034.0604
       190.1444        148.1574         58.0004         52.0004
  24765402.4764   -3590958.81343  -2785475.99042  24765402.1674   24765404.7074
      3819.5184       2976.2434         44.0004         38.0004
  23611568.7744  -10817163.92043   -836047.28042  23611567.9354   23611570.5914
     -3424.2774      -2668.2714         48.0004         43.0004
  23722997.5024   -2101398.39643  -1555346.34842  23722995.0404   23722997.3044
     -2030.7604      -1582.4094         48.0004         42.0004
  24018406.2184   -4879893.16943  -3799326.58842  24018406.5914   24018412.0234
     -2475.9394      -1929.2794         45.0004         39.0004
  22724675.4634  -13203593.87143 -10271878.23342  22724673.8334   22724673.0564
       450.5344        351.0554         52.0004         46.0004
  22863284.8144   -3611274.68543  -2800251.79042  22863283.4864   22863285.1774
     -3061.9024      -2385.8894         51.0004         44.0004
 08  4 20  0  8 30.0000000  0 12G30G14G29G 5G23G31G16G12G 4G20G 2G 1
  20972488.2284  -24000709.42444 -10312858.52442  20972487.2754   20972489.0114
     -2094.6514      -1632.2104         57.0004         50.0004
  24953262.7084   -2737106.98543  -2099578.57342  24953257.9814   24953261.1014
     -3947.2364      -3075.7724         42.0004         34.0004
  21705146.7114  -14336425.55543 -11162238.23442  21705145.8164   21705147.1374
      2010.4294       1566.5734         55.0004         49.0004
  22110043.7554  -15993643.97343 -12407198.70242  22110041.8794   22110044.5824
     -3187.0284      -2483.4104         52.0004         46.0004
  23222461.8224   -9639523.68043  -7500135.13342  23222460.6604   23222459.8764
      2684.9574       2092.1854         51.0004         44.0004
  20885001.6454  -25199327.35444 -18290951.16242  20885000.5114   20885000.7874
       171.3394        133.5034         58.0004         52.0004
  24743606.9374   -3705491.80843  -2874722.41042  24743606.3584   24743607.7724
      3815.3644       2973.0034         45.0004         38.0004
  23631136.9834  -10714334.80443   -755920.65742  23631136.0974   23631136.8474
     -3431.5334      -2673.9394         48.0004         43.0004
  23734635.3034   -2040220.64343  -1507675.48242  23734638.3054   23734639.2304
     -2048.4204      -1596.1434         48.0004         41.0004
  24032587.2614   -4805399.61843  -3741279.67342  24032584.1044   24032586.4684
     -2490.8304      -1940.9134         47.0004         40.0004
  22722163.7594  -13216796.37543 -10282165.79142  22722160.1674   22722160.1004
       428.9634        334.2484         52.0004         45.0004
  22880798.1974   -3519242.13943  -2728538.17342  22880796.8164   22880798.2564
     -3074.3264      -2395.5994         51.0004         44.0004
 08  4 20  0  9  0.0000000  0 12G30G14G29G 5G23G31G16G12G 4G20G 2G 1
  20984491.4094  -23937633.44444 -10263708.24342  20984490.3624   20984491.5694
     -2111.3844      -1645.2444         57.0004         50.0004
  24975804.1634   -2618651.60643  -2007275.62042  24975802.8354   24975804.2804
     -3950.2194      -3078.1034         42.0004         35.0004
  21693714.9324  -14396499.06043 -11209048.82142  21693714.4444   21693715.7534
      1993.5164       1553.3904         55.0004         49.0004
  22128265.2514  -15897890.18543 -12332585.21042  22128263.4544   22128265.4314
     -3197.5094      -2491.5714         52.0004         46.0004
  23207174.2544   -9719863.45643  -7562737.55742  23207173.0364   23207171.3164
      2670.1294       2080.6004         51.0004         44.0004
  20884072.2784  -25204204.62044 -18294751.58442  20884071.7794   20884072.3574
       152.8954        119.1324         58.0004         52.0004
  24721829.2164   -3819933.19543  -2963897.42742  24721828.0734   24721831.8144
      3812.4344       2970.7264         45.0004         38.0004
  23650743.6824  -10611304.15943   -675636.88542  23650741.9314   23650743.3334
     -3438.2134      -2679.1524         50.0004         44.0004
  23746378.4084   -1978525.23143  -1459601.08642  23746376.0754   23746379.9304
     -2065.5394      -1609.5134         47.0004         42.0004
  24046841.0854   -4730470.47643  -3682893.34242  24046839.6644   24046844.9364
     -2505.3394      -1952.2064         44.0004         40.0004
  22719771.5244  -13229362.28843 -10291957.33342  22719769.3584   22719769.4254
       407.8284        317.7944         52.0004         45.0004
  22898380.4914   -3426848.19143  -2656542.90742  22898378.9734   22898381.2224
     -3086.0074      -2404.6494         51.0004         44.0004
 08  4 20  0  9 30.0000000  0 12G30G14G29G 5G23G31G16G12G 4G20G 2G 1
  20996590.9444  -23874049.41744 -10214162.11442  20996589.9614   20996591.2864
     -2127.5654      -1657.8494         57.0004         50.0004
  24998361.7594   -2500109.85543  -1914905.42642  24998360.1374   24998361.6914
     -3952.4774      -3079.8554         41.0004         35.0004
  21682381.5414  -14456056.73943 -11255457.35942  21682380.8474   21682381.9554
      1976.9534       1540.4784         55.0004         49.0004
  22146548.6344  -15801810.48443 -12257717.77542  22146547.1714   22146549.1294
     -3207.8124      -2499.6134         53.0004         46.0004
  23191972.6974   -9799746.12143  -7624983.75942  23191971.2054   23191971.5234
      2655.3504       2069.0944         51.0004         44.0004
  20883251.1884  -25208522.75144 -18298116.29042  20883250.3644   20883250.0554
       134.9164        105.1204         58.0004         52.0004
  24700070.3734   -3934276.79543  -3052996.26942  24700069.4854   24700070.1984
      3809.9664       2968.8074         44.0004         37.0004
  23670389.0584  -10508069.56843   -595194.26342  23670387.1354   23670387.5404
     -3444.2874      -2683.8684         50.0004         44.0004
  23758215.7184   -1916309.77743  -1411121.49942  23758214.8274   23758220.0834
     -2082.2124      -1622.5014         47.0004         42.0004
  24061184.6764   -4655104.20443  -3624166.44642  24061183.6624   24061184.6034
     -2519.1784      -1963.0024         45.0004         39.0004
  22717501.9304  -13241287.10643 -10301249.39642  22717499.6494   22717499.5884
       387.0634        301.6124         52.0004         46.0004
  22916032.0864   -3334091.36643  -2584264.86142  22916030.5924   22916032.8824
     -3097.5914      -2413.7104         51.0004         44.0004
 08  4 20  0 10  0.0000000  0 12G30G14G29G 5G23G31G16G12G 4G20G 2G 1
  21008785.2634  -23809965.50744 -10164226.51042  21008784.3734   21008785.8254
     -2144.8934      -1671.3484         57.0004         50.0004
  25020935.3444   -2381490.37943  -1822474.70642  25020933.3704   25020934.5294
     -3955.9704      -3082.5604         41.0004         35.0004
  21671145.2974  -14515103.21143 -11301467.47542  21671144.6464   21671146.0544
      1959.3934       1526.7984         55.0004         49.0004
  22164891.6774  -15705413.31743 -12182602.96442  22164890.6084   22164892.7294
     -3219.0194      -2508.3334         52.0004         46.0004
  23176858.8194   -9879175.09843  -7686876.43342  23176857.0854   23176855.2484
      2639.5524       2056.7894         51.0004         44.0004
  20882534.3674  -25212287.64844 -18301049.89742  20882533.4354   20882534.0744
       115.8544         90.2764         58.0004         52.0004
  24678329.5954   -4048527.33243  -3142022.73242  24678329.1594   24678331.7394
      3806.3104       2965.9604         44.0004         36.0004
  23690070.8334  -10404639.06243   -514598.97542  23690068.8574   23690070.0514
     -3451.3834      -2689.3724         50.0004         44.0004
  23770154.1144   -1853583.00943  -1362243.51242  23770153.2164   23770155.0954
     -2099.5724      -1636.0414         49.0004         41.0004
  24075606.3044   -4579309.54043  -3565105.65542  24075606.4754   24075606.7104
     -2534.1814      -1974.6964         45.0004         39.0004
  22715353.7714  -13252576.33343 -10310046.16542  22715351.4894   22715351.7034
       365.2964        284.6454         53.0004         46.0004
  22933749.5604   -3240980.46443  -2511710.87842  22933748.3824   22933750.8464
     -3109.9424      -2423.3274         51.0004         44.0004
 08  4 20  0 10 30.0000000  0 12G30G14G29G 5G23G31G16G12G 4G20G 2G 1
  21021075.3994  -23745378.75544 -10113899.14342  21021074.8314   21021076.1054
     -2161.1364      -1684.0014         57.0004         50.0004
  25043523.3384   -2262790.39543  -1729981.16942  25043520.4034   25043523.4994
     -3957.8074      -3084.0034         42.0004         35.0004
  21660007.8854  -14573632.14243 -11347074.29342  21660006.7304   21660007.9774
      1942.4764       1513.6084         55.0004         49.0004
  22183296.3774  -15608695.83743 -12107238.64742  22183294.5824   22183297.3504
     -3229.0194      -2516.1174         52.0004         45.0004
  23161831.7894   -9958142.61143  -7748409.57242  23161830.4614   23161828.6864
      2624.6094       2045.1504         51.0004         44.0004
  20881924.0294  -25215494.02244 -18303548.39842  20881923.5184   20881924.2354
        97.6784         76.1134         58.0004         52.0004
  24656607.1654   -4162677.68743  -3230971.15142  24656607.3824   24656607.7784
      3803.4774       2963.7424         43.0004         36.0004
  23709790.4784  -10301010.03943   -433849.13542  23709789.1634   23709789.8024
     -3457.4174      -2694.0784         49.0004         43.0004
  23782186.1264   -1790341.73843  -1312964.63442  23782188.9884   23782191.4264
     -2116.5804      -1649.2754         47.0004         40.0004
  24090114.3444   -4503084.27143  -3505709.33842  24090112.1854   24090110.4934
     -2547.9954      -1985.4564         48.0004         39.0004
  22713327.2564  -13263224.06743 -10318343.11842  22713325.7914   22713325.1864
       344.3744        268.3484         52.0004         46.0004
  22951535.6934   -3147513.04843  -2438879.09742  22951533.6444   22951537.4604
     -3121.2164      -2432.1364         51.0004         44.0004
 08  4 20  0 11  0.0000000  0 12G30G14G29G 5G23G31G16G12G 4G20G 2G 1
  21033461.1694  -23680294.00044 -10063183.82642  21033460.3194   21033461.6764
     -2178.0904      -1697.2154         57.0004         50.0004
  25066125.1794   -2144015.29643  -1637429.10342  25066125.9524   25066126.3874
     -3960.5444      -3086.1394         44.0004         35.0004
  21648968.4554  -14631644.00343 -11392278.23642  21648967.4684   21648968.4594
      1924.7304       1499.7874         55.0004         49.0004
  22201761.3784  -15511663.13643 -12031628.73442  22201759.9144   22201762.4384
     -3240.0104      -2524.6704         52.0004         45.0004
  23146890.8394  -10036649.31043  -7809583.58142  23146889.4354   23146889.7654
      2608.7534       2032.7904         51.0004         44.0004
  20881420.8554  -25218144.02044 -18305613.29442  20881419.6124   20881419.3824
        78.6424         61.2764         58.0004         52.0004
  24634904.3874   -4276728.38043  -3319841.72842  24634902.0364   24634904.3794
      3799.8774       2960.9354         43.0004         36.0004
  23729546.9934  -10197186.67443   -352947.78642  23729545.2474   23729547.3364
     -3464.3844      -2699.4864         48.0004         43.0004
  23794317.0754   -1726591.26343  -1263288.91842  23794315.3344   23794321.4004
     -2134.7504      -1663.4364         44.0004         41.0004
  24104699.9604   -4426433.95243  -3445981.75742  24104697.3164   24104700.1274
     -2562.1664      -1996.5134         45.0004         39.0004
  22711422.9274  -13273233.09643 -10326142.52942  22711421.0194   22711420.9284
       322.6354        251.4004         52.0004         46.0004
  22969389.6754   -3053694.59643  -2365773.80142  22969388.0824   22969390.4944
     -3133.5934      -2441.7614         51.0004         44.0004
 08  4 20  0 11 30.0000000  0 12G30G14G29G 5G23G31G16G12G 4G20G 2G 1
  21045941.3454  -23614710.02544 -10012079.47842  21045940.8544   21045941.9464
     -2194.4134      -1709.9384         57.0004         50.0004
  25088741.2174   -2025165.18843  -1544818.59642  25088738.0264   25088742.0684
     -3963.1364      -3088.1684         42.0004         36.0004
  21638028.1674  -14689134.32443 -11437075.85642  21638027.6664   21638028.4834
      1907.7104       1486.5324         55.0004         49.0004
  22220285.8514  -15414314.36643 -11955772.54942  22220284.2764   22220286.3864
     -3250.3174      -2532.7164         52.0004         45.0004
  23132041.3044  -10114688.57743  -7870393.39842  23132039.4554   23132038.6554
      2593.4274       2020.8604         51.0004         44.0004
  20881021.5524  -25220234.22944 -18307241.97642  20881020.8844   20881021.6734
        60.3194         46.9974         57.0004         52.0004
  24613221.2404   -4390675.29543  -3408631.54942  24613219.2784   24613222.1964
      3796.1684       2958.0554         44.0004         36.0004
  23749341.2224  -10093168.01043   -271894.17542  23749340.5914   23749340.8464
     -3470.5144      -2704.3164         49.0004         43.0004
  23806549.9714   -1662330.57743  -1213215.66542  23806547.0104   23806548.0534
     -2150.5914      -1675.8054         48.0004         41.0004
  24119366.0794   -4349358.05143  -3385922.69342  24119364.8894   24119367.4774
     -2576.1464      -2007.3734         46.0004         39.0004
  22709639.4824  -13282599.05943 -10333440.68342  22709639.3484   22709638.9974
       301.4354        234.8944         51.0004         46.0004
  22987309.1624   -2959524.52243  -2292394.48742  22987306.8304   22987309.2564
     -3144.8034      -2450.4954         51.0004         44.0004
 08  4 20  0 12  0.0000000  0 12G30G14G29G 5G23G31G16G12G 4G20G 2G 1
  21058514.9624  -23548634.06944  -9960591.69242  21058514.1784   21058515.7844
     -2211.3244      -1723.1154         57.0004         50.0004
  25111370.0904   -1906247.80943  -1452155.65542  25111370.8834   25111370.0184
     -3965.6254      -3090.0974         41.0004         35.0004
  21627186.5694  -14746107.79043 -11481470.81742  21627185.8194   21627186.7304
      1889.7874       1472.5534         55.0004         49.0004
  22238869.2514  -15316657.89943 -11879676.75742  22238867.8054   22238869.9544
     -3260.9924      -2541.0324         52.0004         45.0004
  23117279.2734  -10192264.30143  -7930841.99442  23117278.5794   23117278.4884
      2577.5504       2008.4864         51.0004         44.0004
  20880730.3544  -25221770.47144 -18308439.07542  20880729.3124   20880729.6374
        41.2884         32.1664         58.0004         52.0004
  24591558.4804   -4504522.11543  -3497343.44842  24591556.0224   24591556.9994
      3792.0274       2954.8284         45.0004         37.0004
  23769170.6414   -9988961.68943   -190694.37142  23769168.5514   23769170.7664
     -3477.3774      -2709.6394         50.0004         43.0004
  23818871.3344   -1597567.93443  -1162751.30642  23818869.7334   23818871.8174
     -2167.4664      -1688.9184         46.0004         40.0004
  24134111.7294   -4271865.25843  -3325538.71942  24134109.3454   24134115.0204
     -2590.5114      -2018.5774         45.0004         40.0004
  22707980.2564  -13291327.75343 -10340242.19642  22707977.4774   22707977.9114
       279.6414        217.8984         52.0004         46.0004
  23005293.3924   -2865011.28543  -2218747.78742  23005292.3924   23005294.6384
     -3156.7964      -2459.8464         50.0004         43.0004
 08  4 20  0 12 30.0000000  0 12G30G14G29G 5G23G31G16G12G 4G20G 2G 1
  21071181.2984  -23482072.48644  -9908725.48842  21071180.5214   21071182.0094
     -2227.2324      -1735.4984         57.0004         50.0004
  25134011.4994   -1787270.37943  -1359445.97342  25134009.5754   25134012.8604
     -3967.2604      -3091.3724         42.0004         34.0004
  21616442.7074  -14802566.42343 -11525464.56742  21616441.9804   21616443.1844
      1872.8784       1459.3874         55.0004         50.0004
  22257510.6434  -15218699.43843 -11803345.53742  22257508.6754   22257510.8964
     -3270.8134      -2548.6884         52.0004         45.0004
  23102603.6894  -10269378.12343  -7990930.64242  23102602.3444   23102601.9794
      2562.2994       1996.5824         51.0004         44.0004
  20880541.8174  -25222756.68044 -18309207.63342  20880541.1704   20880541.5284
        23.2904         18.1544         58.0004         52.0004
  24569911.8644   -4618270.87143  -3585978.74342  24569910.6564   24569911.2214
      3789.3834       2952.7634         45.0004         39.0004
  23789035.2514   -9884573.93343   -109353.18742  23789034.1594   23789035.3734
     -3483.1234      -2714.1164         50.0004         44.0004
  23831288.6134   -1532309.46643  -1111900.55742  23831288.6734   23831291.9284
     -2183.8864      -1701.7354         46.0004         41.0004
  24148935.7484   -4193962.34643  -3264835.23642  24148935.1744   24148939.0474
     -2604.1104      -2029.1684         46.0004         40.0004
  22706440.3134  -13299422.80143 -10346549.99242  22706437.5044   22706437.1764
       258.7074        201.5944         53.0004         46.0004
  23023343.7074   -2770161.76143  -2144839.08642  23023342.7054   23023344.8264
     -3167.6594      -2468.3084         51.0004         44.0004
 08  4 20  0 13  0.0000000  0 12G30G14G29G 5G23G31G16G12G 4G20G 2G 1
  21083943.5224  -23415006.99544  -9856466.64242  21083942.6124   21083944.0424
     -2244.3254      -1748.8274         57.0004         50.0004
  25156666.4774   -1668215.09843  -1266675.56142  25156666.2414   25156665.4954
     -3970.2034      -3093.6474         41.0004         35.0004
  21605801.4094  -14858488.01843 -11569039.80242  21605800.3814   21605801.3564
      1854.7344       1445.2474         55.0004         50.0004
  22276212.5924  -15120421.08643 -11726764.94242  22276210.5434   22276212.4564
     -3281.6484      -2557.1274         52.0004         45.0004
  23088022.1414  -10346006.95343  -8050641.40542  23088021.3574   23088021.2544
      2545.7584       1983.7014         52.0004         44.0004
  20880463.6214  -25223172.57244 -18309531.98442  20880462.7894   20880463.0374
         3.9554          3.0794         58.0004         52.0004
  24548288.0984   -4731899.74043  -3674520.51742  24548286.7074   24548289.6234
      3785.2044       2949.4984         46.0004         39.0004
  23808937.2554   -9779986.75743    -27856.64942  23808935.9964   23808937.6094
     -3489.9594      -2719.4344         50.0004         43.0004
  23843805.8054   -1466537.30443  -1060649.50342  23843804.9794   23843807.5284
     -2201.2334      -1715.2374         48.0004         41.0004
  24163844.2154   -4115631.75543  -3203798.44042  24163841.5514   24163842.8224
     -2618.8954      -2040.6944         46.0004         39.0004
  22705025.2854  -13306863.73943 -10352348.22442  22705021.9124   22705021.8164
       236.6854        184.4284         53.0004         46.0004
  23041460.2924   -2674958.31543  -2070654.63142  23041458.9704   23041461.2164
     -3179.7394      -2477.7264         51.0004         44.0004
 08  4 20  0 13 30.0000000  0 12G30G14G29G 5G23G31G16G12G 4G20G 2G 1
  21096798.3624  -23347455.60944  -9803829.18342  21096797.3974   21096798.5914
     -2260.2974      -1761.2674         57.0004         50.0004
  25179333.1494   -1549100.44943  -1173858.85242  25179331.9974   25179332.5854
     -3971.4034      -3094.5984         41.0004         35.0004
  21595259.2884  -14913887.42443 -11612208.34642  21595258.4454   21595259.4094
      1837.4344       1431.7934         55.0004         50.0004
  22294971.1914  -15021841.01243 -11649949.21242  22294970.2454   22294971.7564
     -3291.4664      -2564.7794         52.0004         45.0004
  23073529.9854  -10422164.17043  -8109984.69142  23073529.9424   23073528.5534
      2530.1114       1971.5074         51.0004         44.0004
  20880490.2404  -25223032.40944 -18309422.61442  20880489.2404   20880489.9804
       -14.4374        -11.2574         58.0004         52.0004
  24526685.8304   -4845423.08143  -3762980.34942  24526684.8034   24526685.7634
      3781.7974       2946.8544         46.0004         39.0004
  23828873.8874   -9675217.80243     53781.41542  23828872.5124   23828873.9834
     -3495.7474      -2723.9434         49.0004         43.0004
  23856415.0314   -1400269.54543  -1009012.29642  23856420.0184   23856419.1744
     -2217.6214      -1728.0114         49.0004         41.0004
  24178824.2024   -4036891.99243  -3142442.81842  24178824.3624   24178825.4964
     -2631.9014      -2050.8444         46.0004         39.0004
  22703726.9164  -13313665.78043 -10357648.48842  22703726.8684   22703728.0624
       215.4484        167.8884         51.0004         46.0004
  23059641.5674   -2579419.18443  -1996208.54442  23059639.7264   23059640.6114
     -3190.9524      -2486.4694         51.0004         44.0004
 08  4 20  0 14  0.0000000  0 12G30G14G29G 5G23G31G16G12G 4G20G 2G 1
  21109745.4614  -23279417.43744  -9750812.43042  21109744.6844   21109745.7574
     -2276.3664      -1773.7964         57.0004         50.0004
  25202010.8234   -1429926.15743  -1080995.75442  25202008.3354   25202013.9084
     -3974.4704      -3096.9914         39.0004         35.0004
  21584817.5714  -14968760.19343 -11654966.65442  21584816.7034   21584817.8714
      1819.9834       1418.1704         55.0004         50.0004
  22313787.7614  -14922958.86343 -11572898.12442  22313787.0244   22313788.5964
     -3301.5534      -2572.6384         52.0004         45.0004
  23059128.8064  -10497844.28143  -8168956.20742  23059127.8004   23059127.0884
      2514.3564       1959.1994         51.0004         44.0004
  20880621.8734  -25222334.39444 -18308878.65942  20880621.4974   20880621.9444
       -32.8464        -25.5994         57.0004         52.0004
  24505104.2444   -4958835.88543  -3851353.99342  24505101.5724   24505105.2044
      3778.1084       2943.9734         46.0004         39.0004
  23848845.7194   -9570265.84143    135562.02842  23848845.3244   23848847.0644
     -3501.7074      -2728.6394         48.0004         43.0004
  23869121.1294   -1333505.86243   -956988.59242  23869124.4224   23869121.7024
     -2234.1604      -1740.9034         50.0004         41.0004
  24193888.3264   -3957743.29143  -3080768.46742  24193886.2194   24193887.1954
     -2645.2864      -2061.2704         47.0004         40.0004
  22702555.8484  -13319825.55143 -10362448.22142  22702554.9564   22702554.9204
       194.2444        151.3674         52.0004         46.0004
  23077885.3654   -2483544.34843  -1921500.84642  23077883.9654   23077884.4004
     -3201.7454      -2494.8624         51.0004         43.0004
 08  4 20  0 14 30.0000000  0 12G30G14G29G 5G23G31G16G12G 4G20G 2G 1
  21122785.0074  -23210892.33944  -9697416.29242  21122784.4374   21122785.9124
     -2291.9544      -1785.9354         57.0004         50.0004
  25224698.7814   -1310692.72843   -988086.56942  25224698.4944   25224700.3544
     -3975.3224      -3097.6424         39.0004         35.0004
  21574476.6584  -15023101.52843 -11697310.45642  21574475.7024   21574477.1574
      1802.7474       1404.7334         55.0004         50.0004
  22332662.4214  -14823774.85343 -11495611.86942  22332660.3904   22332662.4814
     -3310.9364      -2579.9494         52.0004         45.0004
  23044818.8854  -10573042.83643  -8227552.46542  23044817.4564   23044818.2244
      2498.8724       1947.1644         51.0004         44.0004
  20880862.6664  -25221076.13744 -18307898.15942  20880861.6304   20880861.5164
       -50.9774        -39.7274         58.0004         52.0004
  24483544.1474   -5072134.09843  -3939638.28642  24483542.7404   24483544.3804
      3774.6174       2941.2544         46.0004         38.0004
  23868851.8394   -9465130.91443    217485.23142  23868850.7294   23868852.5294
     -3507.1254      -2732.8034         47.0004         43.0004
  23881919.3194   -1266246.57843   -904578.81242  23881923.1384   23881922.6784
     -2249.7614      -1753.0664         49.0004         41.0004
  24209024.2444   -3878186.10843  -3018775.89542  24209023.5584   24209028.9554
     -2658.3004      -2071.3974         45.0004         40.0004
  22701506.7924  -13325340.78643 -10366745.66142  22701504.7124   22701505.2904
       173.3164        135.0484         52.0004         46.0004
  23096192.7964   -2387334.42643  -1846532.06442  23096191.5474   23096192.6274
     -3212.3044      -2503.1114         50.0004         43.0004
 08  4 20  0 15  0.0000000  0 12G30G14G29G 5G23G31G16G12G 4G20G 2G 1
  21135917.5034  -23141882.48644  -9643642.62342  21135916.3804   21135918.3794
     -2308.5844      -1798.8884         57.0004         50.0004
  25247399.2524    6685697.09243   5242866.56942  25247397.3934   25247400.4994
     -3977.2954      -3099.2034         38.0004         35.0004
  21564236.5984  -15076910.89643 -11739239.79642  21564235.9614   21564237.2514
      1784.5904       1390.5764         55.0004         50.0004
  22351593.3254  -14724290.94743 -11418091.97742  22351591.6534   22351594.2324
     -3321.3904      -2588.1014         51.0004         45.0004
  23030602.2214  -10647757.05643  -8285771.33142  23030600.0924   23030599.7024
      2482.2434       1934.2104         51.0004         44.0004
  20881207.7174  -25219257.26044 -18306480.89842  20881207.1724   20881208.1234
       -70.0964        -54.6154         57.0004         52.0004
  24462006.1494   -5185316.06443  -4027831.94842  24462005.8484   24462006.2224
      3770.4064       2937.9774         43.0004         38.0004
  23888893.4694   -9359814.71843    299549.72442  23888892.1424   23888893.1574
     -3513.7864      -2738.0244         47.0004         43.0004
  23894815.0104   -1198493.81443   -851784.36342  23894815.7524   23894814.1764
     -2266.7194      -1766.2774         50.0004         41.0004
  24224246.4194   -3798223.31143  -2956467.27142  24224242.2494   24224246.1714
     -2672.2244      -2082.2524         48.0004         41.0004
  22700579.7534  -13330211.46643 -10370540.95742  22700577.7984   22700577.9514
       151.3644        117.9394         52.0004         46.0004
  23114564.4254   -2290791.96043  -1771304.19942  23114562.1374   23114564.6174
     -3223.6614      -2511.9364         50.0004         43.0004
 08  4 20  0 15 30.0000000  0 11G30G29G 5G23G31G16G12G 4G20G 2G 1
  21149140.6894  -23072392.55343  -9589494.68042  21149139.8144   21149141.7804
     -2324.2504      -1811.1164         56.0004         50.0004
  21554098.6194  -15130189.48043 -11780755.56042  21554097.5014   21554098.6884
      1767.0244       1376.9034         55.0004         50.0004
  22370580.4324  -14624512.38543 -11340342.47642  22370578.8204   22370581.2284
     -3331.3614      -2595.8774         51.0004         45.0004
  23016476.1324  -10721987.32443  -8343613.07042  23016474.9884   23016474.8824
      2466.1684       1921.6784         51.0004         45.0004
  20881660.9784  -25216880.63844 -18304628.97442  20881660.1894   20881659.7124
       -88.6424        -69.0744         58.0004         52.0004
  24440489.7284   -5298383.05843  -4115936.02442  24440487.5344   24440489.2454
      3767.0564       2935.3564         42.0004         38.0004
  23908967.7234   -9254321.97543    381751.88742  23908967.2474   23908967.7264
     -3519.5504      -2742.5064         48.0004         43.0004
  23907797.1834   -1130252.87443   -798609.64042  23907801.1954   23907800.1874
     -2282.7804      -1778.7844         49.0004         42.0004
  24239535.5674   -3717860.53843  -2893846.96442  24239535.2294   24239535.8564
     -2685.5344      -2092.6294         47.0004         40.0004
  22699775.3324  -13334439.96543 -10373835.88842  22699773.2404   22699773.1384
       130.1284        101.3824         52.0004         46.0004
  23132998.3384   -2193922.67343  -1695821.73642  23132997.4684   23132999.7464
     -3234.4834      -2520.3684         50.0004         44.0004
 08  4 20  0 16  0.0000000  0 11G30G29G 5G23G31G16G12G 4G20G 2G 1
  21162455.8484  -23002420.56743  -9534970.93242  21162455.2724   21162456.9204
     -2340.1194      -1823.4774         56.0004         50.0004
  21544061.7084  -15182932.05343 -11821853.69142  21544060.3374   21544062.0964
      1749.4944       1363.2414         55.0004         50.0004
  22389624.0114  -14524437.86643 -11262362.38242  22389622.5894   22389624.9444
     -3340.3244      -2602.8554         51.0004         45.0004
  23002443.9374  -10795727.75343  -8401073.15042  23002442.5004   23002440.2514
      2450.2324       1909.2654         51.0004         44.0004
  20882219.4194  -25213942.14444 -18302339.19542  20882218.5194   20882219.3214
      -107.0314        -83.4074         58.0004         52.0004
  24418997.3354   -5411329.13043  -4203945.79142  24418996.3014   24418997.5064
      3762.9184       2932.1404         45.0004         38.0004
  23929076.3174   -9148651.06343    464092.95542  23929075.6704   23929077.5144
     -3524.8894      -2746.6634         48.0004         43.0004
  23920876.0924   -1061522.40443   -745053.40542  23920879.1884   23920878.1634
     -2298.7524      -1791.2254         48.0004         41.0004
  24254905.3184   -3637096.97743  -2830914.29542  24254902.4094   24254905.6174
     -2698.4754      -2102.7194         46.0004         39.0004
  22699092.6424  -13338022.68943 -10376627.59842  22699092.0714   22699091.7344
       108.7974         84.7904         52.0004         46.0004
  23151494.3404   -2096725.61643  -1620083.88042  23151492.5174   23151494.9844
     -3244.9894      -2528.5624         50.0004         44.0004
 08  4 20  0 16 30.0000000  0 11G30G29G 5G23G31G16G12G 4G20G 2G 1
  21175861.7454  -22931975.98844  -9480078.99942  21175860.7034   21175862.1584
     -2356.0874      -1835.9104         57.0004         50.0004
  21534126.0444  -15235143.98343 -11862538.24542  21534125.2434   21534126.5424
      1731.4224       1349.1704         55.0004         50.0004
  22408721.9364  -14424076.51343 -11184158.76842  22408720.5404   22408723.3474
     -3350.2914      -2610.6244         51.0004         45.0004
  22988503.6714  -10868982.73143  -8458154.92242  22988502.6124   22988501.9714
      2433.5054       1896.2384         52.0004         44.0004
  20882884.5054  -25210448.77044 -18299617.05242  20882883.9064   20882884.3564
      -125.7714        -98.0034         58.0004         52.0004
  24397526.7644   -5524159.98243  -4291865.81742  24397525.0444   24397525.4544
      3759.1444       2929.2024         46.0004         39.0004
  23949217.2224   -9042811.21443    546565.61542  23949217.1584   23949217.7314
     -3530.9564      -2751.3884         49.0004         43.0004
  23934047.7744    -992311.88043   -691123.03142  23934043.6254   23934049.9374
     -2314.8264      -1803.7324         45.0004         41.0004
  24270349.3364   -3555942.41943  -2767676.96542  24270345.8924   24270348.9544
     -2711.8684      -2113.1384         47.0004         39.0004
  22698533.2194  -13340965.65243 -10378920.72142  22698531.3374   22698530.7574
        87.3784         68.0674         52.0004         46.0004
  23170050.7394   -1999210.28743  -1544097.97342  23170048.8084   23170052.0404
     -3255.9394      -2537.0864         50.0004         43.0004
 08  4 20  0 17  0.0000000  0 11G30G29G 5G23G31G16G12G 4G20G 2G 1
  21189357.7004  -22861054.46044  -9424815.54542  21189356.5134   21189357.8914
     -2372.4394      -1848.6504         57.0004         49.0004
  21524293.2844  -15286817.20743 -11902803.06042  21524292.1154   21524293.6564
      1712.9244       1334.7474         56.0004         50.0004
  22427875.8534  -14323423.79843 -11105728.13942  22427874.4834   22427876.0214
     -3360.6504      -2618.6814         52.0004         45.0004
  22974658.3274  -10941742.61243  -8514850.88642  22974656.2654   22974656.1334
      2416.5014       1882.9784         51.0004         45.0004
  20883656.4064  -25206394.05544 -18296457.55542  20883655.2524   20883655.2694
      -144.9914       -112.9814         58.0004         52.0004
  24376078.7614   -5636866.82443  -4379689.22742  24376076.7434   24376079.2644
      3754.5774       2925.6454         45.0004         39.0004
  23969391.5814   -8936797.57043    629173.59642  23969391.0464   23969391.0894
     -3537.0944      -2756.1824         49.0004         43.0004
  23947311.5714    -922616.91243   -636815.27642  23947307.0134   23947310.1034
     -2331.9734      -1817.1504         46.0004         41.0004
  24285868.0314   -3474393.04743  -2704131.99642  24285866.9184   24285865.4214
     -2725.4284      -2123.7134         49.0004         41.0004
  22698096.4554  -13343262.50843 -10380710.30442  22698094.4314   22698093.7584
        65.1584         50.7514         52.0004         46.0004
  23188668.8174   -1901372.56843  -1467860.88742  23188667.8954   23188668.7524
     -3267.1984      -2545.8694         50.0004         43.0004
 08  4 20  0 17 30.0000000  0 11G30G29G 5G23G31G16G12G 4G20G 2G 1
  21202943.3404  -22789658.58743  -9369182.51142  21202943.0204   21202944.2194
     -2387.5954      -1860.4684         56.0004         49.0004
  21514562.7654  -15337951.22043 -11942647.76942  21514562.0034   21514563.2624
      1695.7004       1321.3194         56.0004         50.0004
  22447084.6154  -14222482.98543 -11027072.98142  22447082.3204   22447084.6044
     -3369.3894      -2625.5044         51.0004         45.0004
  22960905.7114  -11014006.16443  -8571160.09142  22960904.6674   22960903.1774
      2400.6354       1870.6224         51.0004         44.0004
  20884533.4634  -25201778.78344 -18292861.28842  20884532.9964   20884533.5924
      -163.0084       -127.0224         57.0004         52.0004
  24354655.0674   -5749448.72443  -4467415.34342  24354654.2464   24354654.8994
      3750.8724       2922.7544         46.0004         39.0004
  23989598.2984   -8830612.76543    711915.00842  23989597.3704   23989597.1764
     -3541.9794      -2759.9904         49.0004         43.0004
  23960664.0784    -852440.88643   -582132.72542  23960665.8204   23960665.7094
     -2347.1424      -1828.9424         48.0004         41.0004
  24301458.9044   -3392452.54843  -2640282.23042  24301456.6914   24301456.2764
     -2737.6224      -2133.2324         46.0004         40.0004
  22697782.2364  -13344914.32543 -10381997.49042  22697779.7964   22697779.6884
        44.5334         34.6904         52.0004         46.0004
  23207347.1874   -1803216.28543  -1391375.52142  23207345.2574   23207348.9824
     -3276.7484      -2553.3264         50.0004         43.0004
 08  4 20  0 18  0.0000000  0 11G30G29G 5G23G31G16G12G 4G20G 2G 1
  21216619.1094  -22717793.48743  -9313183.67042  21216618.1644   21216619.6594
     -2403.1614      -1872.5914         56.0004         49.0004
  21504934.7834  -15388547.60443 -11982073.54742  21504933.6514   21504935.1204
      1677.6834       1307.2884         56.0004         50.0004
  22466346.8104  -14121259.41343 -10948197.50042  22466344.9944   22466347.3904
     -3378.5324      -2632.6114         51.0004         45.0004
  22947249.5974  -11085774.34843  -8627083.33542  22947248.5644   22947246.9174
      2384.0364       1857.6894         52.0004         44.0004
  20885519.3604  -25196605.95444 -18288830.55742  20885518.2224   20885518.4444
      -181.5814       -141.4874         58.0004         52.0004
  24333255.1624   -5861907.01043  -4555045.12542  24333253.5704   24333255.9314
      3746.5424       2919.3774         45.0004         39.0004
  24009835.5564   -8724262.25043    794785.48042  24009834.8514   24009835.0864
     -3547.5664      -2764.3224         48.0004         43.0004
  23974109.4754    -781789.49143   -527079.69242  23974110.4214   23974113.0124
     -2362.8574      -1841.1974         48.0004         41.0004
  24317124.9074   -3310126.87143  -2576132.37142  24317124.0334   24317125.5024
     -2750.4574      -2143.2194         46.0004         39.0004
  22697588.1274  -13345924.01043 -10382784.36442  22697587.8464   22697587.7244
        23.1014         18.0044         51.0004         46.0004
  23226084.8644   -1704747.26543  -1314646.47442  23226083.1524   23226086.1114
     -3287.4074      -2561.6264         49.0004         43.0004
 08  4 20  0 18 30.0000000  0 11G30G29G 5G23G31G16G12G 4G20G 2G 1
  21230383.7814  -22645459.19543  -9256819.33742  21230382.8594   21230384.2954
     -2418.8704      -1884.8364         56.0004         49.0004
  21495409.4034  -15438602.49843 -12021077.29842  21495408.6454   21495409.6404
      1659.5134       1293.1274         56.0004         50.0004
  22485663.0124  -14019753.12043 -10869101.73842  22485660.8374   22485663.0234
     -3388.2864      -2640.2324         51.0004         44.0004
  22933687.6304  -11157042.06943  -8682616.58242  22933686.3144   22933685.8784
      2367.2444       1844.5984         52.0004         44.0004
  20886609.1764  -25190873.28544 -18284363.58142  20886608.4864   20886608.8644
      -200.3414       -156.1094         57.0004         52.0004
  24311879.5114   -5974237.62243  -4642575.40942  24311877.3004   24311878.6414
      3741.8784       2915.7364         44.0004         38.0004
  24030105.3864   -8617745.39443    877785.57742  24030103.7774   24030105.2914
     -3553.2384      -2768.7524         49.0004         43.0004
  23987644.1374    -710662.71343   -471656.22142  23987644.4594   23987647.0464
     -2378.7754      -1853.5874         47.0004         41.0004
  24332865.0024   -3227416.44043  -2511682.62742  24332862.0534   24332866.2514
     -2763.4904      -2153.3794         46.0004         39.0004
  22697519.4564  -13346288.78543 -10383068.63342  22697517.9694   22697518.2604
         1.3984          1.0894         52.0004         46.0004
  23244882.7394   -1605965.78643  -1237673.91142  23244881.3074   23244883.6594
     -3297.9454      -2569.7964         49.0004         43.0004
 08  4 20  0 19  0.0000000  0 11G30G29G 5G23G31G16G12G 4G20G 2G 1
  21244237.7604  -22572656.09043  -9200089.68342  21244237.1164   21244238.4474
     -2434.9664      -1897.3744         56.0004         49.0004
  21485987.7814  -15488113.38143 -12059657.18942  21485986.8624   21485988.0264
      1640.8014       1278.5554         56.0004         50.0004
  22505032.6994  -13917964.76643 -10789786.18042  22505030.9624   22505032.7554
     -3397.9734      -2647.7684         51.0004         44.0004
  22920221.3604  -11227805.45743  -8737756.86342  22920220.3224   22920219.8004
      2349.9634       1831.1364         52.0004         44.0004
  20887807.7544  -25184578.90844 -18279458.87342  20887806.7924   20887807.1784
      -219.5764       -171.0964         58.0004         52.0004
  24290527.5384   -6086436.72343  -4730003.18642  24290526.4624   24290529.1864
      3737.4414       2912.2904         44.0004         38.0004
  24050406.8294   -8511062.32543    960915.19342  24050405.6514   24050407.4454
     -3559.2374      -2773.4214         49.0004         43.0004
  24001269.0974    -639061.62643   -415863.17442  24001265.1154   24001274.4964
     -2395.0184      -1866.2494         46.0004         40.0004
  24348678.0444   -3144322.76043  -2446934.29442  24348675.1624   24348678.7984
     -2776.5834      -2163.5654         47.0004         40.0004
  22697575.0294  -13346007.14943 -10382849.22142  22697572.3754   22697571.4544
       -20.5884        -16.0354         52.0004         46.0004
  23263739.1914   -1506873.20443  -1160458.97342  23263738.3124   23263740.9394
     -3308.8304      -2578.2654         49.0004         42.0004
 08  4 20  0 19 30.0000000  0 11G30G29G 5G23G31G16G12G 4G20G 2G 1
  21258179.8044  -22499388.45843  -9142997.95942  21258179.2964   21258180.7234
     -2450.2654      -1909.3034         56.0004         49.0004
  21476669.5714  -15537081.05843 -12097813.84242  21476668.5174   21476669.6084
      1622.9014       1264.5924         56.0004         50.0004
  22524454.6814  -13815899.17743 -10710254.58742  22524453.0294   22524455.8364
     -3407.0554      -2654.8454         51.0004         44.0004
  22906852.5954  -11298064.85643  -8792504.44442  22906850.7354   22906850.2514
      2333.2814       1818.1474         53.0004         45.0004
  20889111.3834  -25177725.19644 -18274118.26942  20889110.5194   20889111.6314
      -238.0494       -185.4974         58.0004         52.0004
  24269201.5694   -6198506.28143  -4817330.08742  24269200.6104   24269202.5304
      3732.7974       2908.6634         45.0004         38.0004
  24070737.9234   -8404217.68843   1044170.73842  24070736.8184   24070738.6034
     -3564.3274      -2777.4014         49.0004         43.0004
  24014982.7754    -566991.15043   -359704.46042  24014983.0954   24014981.4764
     -2410.4924      -1878.3314         48.0004         40.0004
  24364560.8794   -3060851.27543  -2381891.58142  24364560.5144   24364561.9554
     -2788.9834      -2173.2334         45.0004         40.0004
  22697748.5014  -13345081.52843 -10382127.92842  22697748.1284   22697748.0494
       -41.8874        -32.6474         51.0004         46.0004
  23282653.9074   -1407474.70643  -1083005.58642  23282651.7534   23282655.6294
     -3318.5294      -2585.8564         49.0004         42.0004
 08  4 20  0 20  0.0000000  0 11G30G29G 5G23G31G16G12G 4G20G 2G 1
  21272210.5484  -22425655.70843  -9085543.86042  21272210.0874   21272211.6804
     -2465.9954      -1921.5524         56.0004         49.0004
  21467455.4704  -15585501.18943 -12135543.78442  21467454.5184   21467456.1484
      1604.2914       1250.0924         56.0004         50.0004
  22543930.5124  -13713555.41443 -10630506.22842  22543928.9884   22543930.9054
     -3416.8004      -2662.4484         52.0004         44.0004
  22893578.2004  -11367814.52743  -8846854.85342  22893577.0684   22893576.1764
      2315.8414       1804.5324         52.0004         45.0004
  20890522.5304  -25170309.34044 -18268339.62342  20890521.8234   20890521.8394
      -257.2194       -200.4374         58.0004         52.0004
  24247901.3264   -6310440.49843  -4904551.57442  24247900.4964   24247901.6894
      3728.0844       2905.0034         46.0004         38.0004
  24091100.3194   -8297210.09343   1127553.30142  24091099.7194   24091101.4904
     -3570.4104      -2782.1464         49.0004         42.0004
  24028787.7514    -494450.62243   -303179.29942  24028785.1354   24028785.1464
     -2426.3414      -1890.6804         47.0004         40.0004
  24380513.7464   -2977001.92643  -2316554.42942  24380509.1644   24380516.1814
     -2802.1664      -2183.5044         39.0004         37.0004
  22698049.3834  -13343508.70443 -10380902.30942  22698047.1074   22698047.7344
       -63.8464        -49.7544         52.0004         46.0004
  23301627.9354   -1307769.69343  -1005313.31042  23301626.4134   23301629.1944
     -3329.1094      -2594.1244         49.0004         42.0004
 08  4 20  0 20 30.0000000  0 11G30G29G 5G23G31G16G12G 4G20G 2G 1
  21286329.1794  -22351463.77043  -9027731.87642  21286328.5194   21286329.8154
     -2480.5604      -1932.9094         56.0004         49.0004
  21458345.2684  -15633375.87343 -12172848.71042  21458344.4734   21458345.9664
      1586.8684       1236.5194         56.0004         50.0004
  22563457.7234  -13610939.44243 -10550545.74842  22563456.6294   22563457.5694
     -3424.8814      -2668.7254         51.0004         44.0004
  22880402.4414  -11437055.65543  -8900808.95742  22880401.3874   22880400.8484
      2299.7394       1792.0074         52.0004         45.0004
  20892040.2644  -25162335.31344 -18262125.98542  20892039.4284   20892039.2804
      -274.9464       -214.2484         58.0004         52.0004
  24226626.6364   -6422241.22443  -4991669.02242  24226625.2694   24226625.8924
      3724.5744       2902.2614         47.0004         39.0004
  24111492.7324   -8190045.30143   1211058.32742  24111492.1314   24111494.7954
     -3574.3574      -2785.2174         47.0004         41.0004
  24042680.0474    -421446.14143   -246292.73842  24042683.6224   24042687.6384
     -2440.9014      -1901.9574         49.0004         41.0004
  24396544.1304   -2892780.78243  -2250927.66642  24396544.4964   24396545.3714
     -2813.2734      -2192.1584         45.0004         38.0004
  22698469.9024  -13341292.33443 -10379175.23742  22698468.9284   22698469.8964
       -84.3634        -65.7424         51.0004         45.0004
  23320658.8274   -1207764.80743   -927387.39842  23320658.5114   23320658.9144
     -3338.3724      -2601.3234         50.0004         42.0004
 08  4 20  0 21  0.0000000  0 11G30G29G 5G23G31G16G12G 4G20G 2G 1
  21300534.6234  -22276813.21843  -8969562.50242  21300533.9494   21300535.2054
     -2495.8574      -1944.8214         56.0004         49.0004
  21449339.2344  -15680702.47043 -12209726.53942  21449338.3844   21449339.8534
      1568.5204       1222.2254         56.0004         50.0004
  22583036.4044  -13508052.06743 -10470373.77042  22583035.0474   22583037.1334
     -3434.0954      -2675.9274         51.0004         44.0004
  22867324.0704  -11505784.46743  -8954363.91442  22867322.6014   22867321.2534
      2282.5974       1778.6494         52.0004         44.0004
  20893663.5394  -25153801.57044 -18255476.30542  20893662.8844   20893663.6964
      -293.6994       -228.8584         57.0004         52.0004
  24205377.4214   -6533905.23643  -5078679.91442  24205375.7184   24205376.6254
      3719.7944       2898.5394         47.0004         40.0004
  24131915.0534   -8082723.67943   1294685.55542  24131914.8304   24131917.1344
     -3579.9584      -2789.5844         45.0004         40.0004
  24056662.3864    -347978.92843   -189045.53042  24056660.1854   24056655.8114
     -2456.5214      -1914.1944         48.0004         40.0004
  24412641.6424   -2808189.40043  -2185012.25842  24412638.8654   24412641.2674
     -2825.7234      -2201.8634         46.0004         39.0004
  22699015.3474  -13338431.22743 -10376945.80442  22699013.5464   22699014.1504
      -106.0014        -82.5864         52.0004         46.0004
  23339745.7384   -1107461.21643   -849228.72842  23339744.4644   23339745.6504
     -3348.2944      -2609.0604         50.0004         42.0004
 08  4 20  0 21 30.0000000  0 11G30G29G 5G23G31G16G12G 4G20G 2G 1
  21314826.9694  -22201707.93643  -8911038.87542  21314825.6934   21314827.3694
     -2511.4864      -1957.0084         56.0004         49.0004
  21440437.7794  -15727481.21243 -12246177.44342  21440436.8894   21440437.8054
      1549.7004       1207.5614         56.0004         50.0004
  22602665.8964  -13404897.12843 -10389993.31442  22602663.6894   22602666.7734
     -3443.2204      -2683.0274         50.0004         44.0004
  22854342.8254  -11574000.08543  -9007518.92442  22854341.9724   22854341.3274
      2264.8454       1764.8014         52.0004         45.0004
  20895394.4854  -25144709.61744 -18248391.65942  20895393.6334   20895393.5374
      -312.7304       -243.6834         58.0004         52.0004
  24184154.5304   -6645432.40743  -5165584.22642  24184153.6374   24184153.8654
      3714.6674       2894.5684         46.0004         40.0004
  24152367.0754   -7975248.85943   1378432.17542  24152366.0644   24152368.1064
     -3585.6684      -2794.0274         46.0004         40.0004
  24070726.6414    -274052.96043   -131440.91042  24070723.4964   24070725.6854
     -2472.2324      -1926.3904         46.0004         39.0004
  24428808.0074   -2723232.26143  -2118811.88342  24428806.7314   24428809.7964
     -2838.2354      -2211.6114         47.0004         40.0004
  22699682.1314  -13334926.83743 -10374215.10742  22699680.2254   22699681.3034
      -127.9864        -99.7184         52.0004         46.0004
  23358889.2154   -1006863.29443   -770840.72042  23358887.2184   23358890.5854
     -3358.4924      -2616.9964         50.0004         43.0004
 08  4 20  0 22  0.0000000  0 11G30G29G 5G23G31G16G12G 4G20G 2G 1
  21329205.2284  -22126146.48243  -8852159.77442  21329204.6574   21329206.0624
     -2525.5954      -1967.9924         56.0004         49.0004
  21431640.8994  -15773707.25643 -12282197.65142  21431639.8134   21431641.4594
      1532.3284       1194.0284         56.0004         50.0004
  22622347.2134  -13301473.51543 -10309403.49142  22622345.7184   22622348.0844
     -3451.3144      -2689.3224         51.0004         44.0004
  22841460.6924  -11641697.32143  -9060270.02442  22841458.4884   22841458.1094
      2248.6104       1752.1574         52.0004         45.0004
  20897230.2234  -25135056.31444 -18240869.60042  20897229.6994   20897230.6934
      -330.4624       -257.5004         57.0004         52.0004
  24162958.5434   -6756816.96743  -5252377.28042  24162955.7834   24162958.8524
      3711.0434       2891.7204         45.0004         39.0004
  24172849.0814   -7867619.33543   1462299.34942  24172847.8654   24172849.6604
     -3589.5134      -2797.0244         47.0004         41.0004
  24084884.6514    -199667.28843    -73478.01742  24084883.8034   24084889.4764
     -2486.5214      -1937.5484         48.0004         41.0004
  24445045.0774   -2637909.31343  -2052326.52842  24445043.0414   24445044.7784
     -2849.6274      -2220.4854         47.0004         40.0004
  22700471.2034  -13330775.94543 -10370980.73342  22700470.9634   22700470.7274
      -148.4214       -115.6524         52.0004         46.0004
  23378088.3004    -905970.47043   -692222.93042  23378085.9234   23378089.3434
     -3367.2774      -2623.8474         50.0004         43.0004
 08  4 20  0 22 30.0000000  0 11G30G29G 5G23G31G16G12G 4G20G 2G 1
  21343670.5844  -22050133.37243  -8792928.75242  21343669.6044   21343670.8904
     -2541.3154      -1980.2414         56.0004         49.0004
  21422949.2604  -15819381.92743 -12317788.23642  21422948.2394   21422949.4934
      1513.2604       1179.1624         56.0004         50.0004
  22642078.4904  -13197785.71343 -10228607.79142  22642076.5474   22642078.7104
     -3460.7684      -2696.7064         51.0004         44.0004
  22828677.5694  -11708875.39143  -9112616.59742  22828675.9464   22828675.1204
      2230.5694       1738.1134         53.0004         45.0004
  20899174.5414  -25124844.08744 -18232912.02342  20899173.6874   20899174.1024
      -349.8394       -272.6014         58.0004         52.0004
  24141789.5874   -6868060.22143  -5339060.22942  24141788.6524   24141789.6664
      3705.3534       2887.2834         45.0004         39.0004
  24193358.6694   -7759839.30143   1546283.81242  24193358.2184   24193358.6864
     -3595.3644      -2801.5834         47.0004         42.0004
  24099125.7774    -124826.97643    -15160.98342  24099126.0054   24099125.8564
     -2502.1094      -1949.6924         48.0004         40.0004
  24461349.1744   -2552225.26843  -1985559.78342  24461348.7904   24461350.0764
     -2862.0844      -2230.1934         46.0004         39.0004
  22701385.1354  -13325981.11443 -10367244.52342  22701383.0324   22701383.2074
      -170.6204       -132.9474         52.0004         46.0004
  23397342.6284    -804787.56043   -613379.08642  23397340.9934   23397343.0164
     -3377.6144      -2631.9074         50.0004         43.0004
 08  4 20  0 23  0.0000000  0 11G30G29G 5G23G31G16G12G 4G20G 2G 1
  21358220.8704  -21973669.84243  -8733346.77442  21358219.8884   21358221.2294
     -2555.9474      -1991.6444         56.0004         49.0004
  21414363.2104  -15864502.84643 -12352947.34142  21414361.8914   21414363.2494
      1495.1824       1165.0734         56.0004         50.0004
  22661859.2084  -13093835.07543 -10147607.28342  22661857.9994   22661860.3794
     -3468.9444      -2703.0724         51.0004         44.0004
  22815992.9274  -11775531.34343  -9164556.33642  22815991.9154   22815991.7914
      2213.5964       1724.8974         52.0004         45.0004
  20901223.8244  -25114071.98544 -18224518.17742  20901223.4494   20901223.3774
      -368.0854       -286.8124         57.0004         52.0004
  24120648.5524   -6979159.06943  -5425630.71242  24120645.9624   24120649.2884
      3701.1244       2883.9914         45.0004         39.0004
  24213896.9694   -7651909.68843   1630384.82242  24213895.7864   24213898.2074
     -3599.8794      -2805.1004         48.0004         43.0004
  24113451.7344     -49533.51143     43509.27442  24113449.9294   24113453.5164
     -2517.0274      -1961.3534         45.0004         39.0004
  24477722.4824   -2466182.32443  -1918513.33742  24477720.1974   24477722.8344
     -2873.6544      -2239.2134         45.0004         39.0004
  22702418.4864  -13320541.48343 -10363005.98542  22702418.5604   22702418.3344
      -191.7504       -149.4084         51.0004         46.0004
  23416651.2324    -703316.65943   -534310.90542  23416648.9604   23416651.9504
     -3386.8544      -2639.0804         49.0004         42.0004
 08  4 20  0 23 30.0000000  0 11G30G29G 5G23G31G16G12G 4G20G 2G 1
  21372856.6234  -21896758.06943  -8673415.51342  21372856.1674   21372857.0644
     -2571.0314      -2003.3964         56.0004         49.0004
  21405882.0834  -15909069.38343 -12387674.48442  21405881.1374   21405882.5044
      1476.3974       1150.4444         56.0004         50.0004
  22681690.0224  -12989624.15143 -10066403.95942  22681687.7364   22681690.7334
     -3477.8834      -2710.0394         51.0004         44.0004
  22803409.3194  -11841663.06143  -9216087.52042  22803407.6204   22803406.5344
      2195.8144       1711.0184         52.0004         45.0004
  20903380.7124  -25102740.51644 -18215688.43542  20903379.7484   20903380.1044
      -386.8604       -301.4474         58.0004         52.0004
  24099534.7404   -7090111.84343  -5512087.37042  24099533.2164   24099533.9344
      3696.0544       2880.0484         46.0004         40.0004
  24234463.2474   -7543833.06143   1714600.37942  24234462.5724   24234463.8114
     -3605.0484      -2809.1394         48.0004         43.0004
  24127864.8914      26210.18843    102530.25342  24127865.5364   24127866.9254
     -2531.9364      -1972.9374         45.0004         40.0004
  24494160.7784   -2379783.80743  -1851189.88442  24494160.4124   24494165.6084
     -2885.3794      -2248.3444         43.0004         38.0004
  22703578.2974  -13314457.22743 -10358264.99742  22703575.5014   22703576.1334
      -213.2704       -166.1714         52.0004         46.0004
  23436014.0784    -601560.86743   -455020.81942  23436012.7954   23436016.6504
     -3396.5414      -2646.6404         48.0004         42.0004
 08  4 20  0 24  0.0000000  0 11G30G29G 5G23G31G16G12G 4G20G 2G 1
  21387577.4284  -21819401.51043  -8613137.69042  21387576.3354   21387577.6744
     -2585.7534      -2014.8694         56.0004         49.0004
  21397507.0184  -15953080.95143 -12421969.21842  21397506.1504   21397507.4894
      1458.0224       1136.1264         56.0004         50.0004
  22701569.2004  -12885156.05343  -9985000.24842  22701567.6244   22701570.8374
     -3486.2404      -2716.5384         50.0004         44.0004
  22790924.3874  -11907269.33643  -9267209.31142  22790922.6634   22790922.2034
      2178.3244       1697.3954         52.0004         45.0004
  20905643.2674  -25090850.54244 -18206423.54042  20905642.3144   20905642.8294
      -405.4004       -315.8994         58.0004         52.0004
  24078449.4504   -7200917.68843  -5598429.52742  24078447.5514   24078448.8434
      3691.0904       2876.1684         47.0004         40.0004
  24255056.9504   -7435611.77843   1798928.65842  24255055.2444   24255058.1334
     -3609.5174      -2812.6214         48.0004         43.0004
  24142365.4724     102400.68743    161899.41042  24142366.5354   24142365.0224
     -2546.4614      -1984.2514         47.0004         40.0004
  24510672.3594   -2293033.39343  -1783592.19442  24510670.8314   24510672.7244
     -2897.2704      -2257.6154         47.0004         40.0004
  22704855.2444  -13307729.35743 -10353022.40842  22704855.8434   22704855.7964
      -234.7444       -182.9074         51.0004         46.0004
  23455431.0444    -499523.58143   -375511.30642  23455430.7594   23455432.6184
     -3405.8714      -2653.9514         48.0004         42.0004
 08  4 20  0 24 30.0000000  0 11G30G29G 5G23G31G16G12G 4G20G 2G 1
  21402382.1384  -21741600.03243  -8552513.17642  21402381.4904   21402382.8264
     -2600.9594      -2026.7224         56.0004         49.0004
  21389238.4344  -15996534.31843 -12455828.95842  21389237.4254   21389238.4184
      1438.9414       1121.2454         56.0004         50.0004
  22721497.8504  -12780431.45443  -9903396.65042  22721496.4354   22721498.1594
     -3495.3554      -2723.6574         51.0004         44.0004
  22778540.1874  -11972346.26443  -9317918.62342  22778539.2264   22778538.8214
      2160.1874       1683.2514         52.0004         45.0004
  20908011.6984  -25078400.82044 -18196722.35442  20908011.3234   20908011.3474
      -424.6044       -330.8654         57.0004         52.0004
  24057391.6564   -7311573.00843  -5684654.33842  24057390.1484   24057391.9984
      3685.9844       2872.1804         46.0004         40.0004
  24275678.5064   -7327245.91943   1883369.55842  24275676.6004   24275678.4914
     -3614.5354      -2816.5304         46.0004         42.0004
  24156947.4654     179037.22343    221616.16742  24156948.8084   24156947.6874
     -2562.3954      -1996.7104         46.0004         39.0004
  24527247.4694   -2205932.09143  -1715721.00542  24527245.8884   24527248.4264
     -2909.2824      -2266.9824         46.0004         39.0004
  22706262.0464  -13300356.68043 -10347277.38442  22706259.1514   22706259.0824
      -256.7474       -200.0694         53.0004         46.0004
  23474902.8194    -397205.97643   -295783.37442  23474901.0534   23474901.7544
     -3415.3434      -2661.3174         49.0004         42.0004
 08  4 20  0 25  0.0000000  0 11G30G29G 5G23G31G16G12G 4G20G 2G 1
  21417271.6394  -21663356.95143  -8491544.56242  21417270.7444   21417272.1884
     -2615.2754      -2037.8824         56.0004         49.0004
  21381075.7204  -16039429.06843 -12489253.39942  21381074.4564   21381075.7294
      1420.5824       1106.9424         56.0004         50.0004
  22741474.6834  -12675453.36943  -9821595.53642  22741472.6934   22741475.0674
     -3503.1644      -2729.7464         50.0004         44.0004
  22766258.4054  -12036891.65043  -9368213.67342  22766256.9854   22766255.9584
      2142.7634       1669.6784         53.0004         45.0004
  20910487.9354  -25065392.11844 -18186585.61842  20910487.0004   20910487.2184
      -442.7894       -345.0364         58.0004         52.0004
  24036363.4594   -7422076.80343  -5770761.09742  24036362.1724   24036364.5474
      3681.0214       2868.3244         46.0004         40.0004
  24296326.3624   -7218738.47343   1967920.77242  24296325.6764   24296326.8454
     -3619.0884      -2820.0804         45.0004         41.0004
  24171617.2734     256116.26843    281677.74042  24171617.9254   24171620.6294
     -2576.4514      -2007.6244         48.0004         41.0004
  24543886.5794   -2118483.71643  -1647579.44342  24543884.3664   24543887.8904
     -2920.6434      -2275.8294         43.0004         38.0004
  22707784.3724  -13292340.00343 -10341030.56942  22707784.1664   22707784.6464
      -277.8424       -216.5084         52.0004         45.0004
  23494425.2084    -294611.49043   -215839.69342  23494423.7834   23494426.4814
     -3424.7364      -2668.6504         48.0004         41.0004
 08  4 20  0 25 30.0000000  0 11G30G29G 5G23G31G16G12G 4G20G 2G 1
  21432244.5354  -21584672.31743  -8430231.81442  21432243.8094   21432245.1064
     -2630.3344      -2049.6134         56.0004         49.0004
  21373019.8214  -16081762.25643 -12522240.26842  21373018.6954   21373020.0574
      1401.6324       1092.1814         56.0004         50.0004
  22761499.2684  -12570221.69543  -9739596.84242  22761497.6514   22761499.5654
     -3512.0774      -2736.6854         50.0004         44.0004
  22754077.5044  -12100901.63943  -9418091.53742  22754076.1604   22754076.1754
      2124.6784       1655.5954         53.0004         45.0004
  20913069.4374  -25051822.32844 -18176011.73842  20913069.0254   20913069.5714
      -461.7844       -359.8294         57.0004         52.0004
  24015364.5854   -7532425.16543  -5856746.78142  24015363.4294   24015364.5734
      3675.6334       2864.1224         45.0004         40.0004
  24317002.2114   -7110088.90943   2052582.70842  24317000.7794   24317002.4394
     -3624.0274      -2823.9124         45.0004         40.0004
  24186368.0554     333637.51343    342083.83642  24186368.6194   24186370.9044
     -2591.4674      -2019.3104         46.0004         40.0004
  24560594.3394   -2030689.33543  -1579168.25442  24560592.3524   24560596.1764
     -2932.2894      -2284.8944         45.0004         38.0004
  22709435.4154  -13283677.78343 -10334280.85242  22709432.7884   22709433.3474
      -299.6404       -233.4724         52.0004         45.0004
  23514001.3544    -191740.57243   -135680.56042  23513999.7684   23514003.0494
     -3433.5964      -2675.5224         48.0004         42.0004
 08  4 20  0 26  0.0000000  0 11G30G29G 5G23G31G16G12G 4G20G 2G 1
  21447300.5934  -21505553.31243  -8368580.60242  21447299.6384   21447301.0054
     -2644.3944      -2060.5634         56.0004         49.0004
  21365070.1604  -16123537.58343 -12554792.45242  21365069.3144   21365070.1524
      1383.4374       1078.0064         56.0004         50.0004
  22781570.4574  -12464743.57643  -9657406.13442  22781569.4904   22781571.6594
     -3519.7174      -2742.6404         50.0004         43.0004
  22741997.5764  -12164378.96743  -9467554.36242  22741996.7584   22741996.3374
      2107.1544       1641.9394         53.0004         45.0004
  20915757.8824  -25037696.88844 -18165004.88042  20915757.1964   20915756.9204
      -479.9344       -373.9734         58.0004         52.0004
  23994395.5034   -7642621.01143  -5942613.62442  23994393.3254   23994395.2184
      3670.8634       2860.4144         46.0004         40.0004
  24337702.5544   -7001303.96743   2137350.17842  24337702.1954   24337702.4534
     -3628.3104      -2827.2434         45.0004         40.0004
  24201203.1974     411593.50643    402828.71842  24201201.3064   24201200.2994
     -2605.5034      -2030.2604         46.0004         39.0004
  24577365.0404   -1942556.61343  -1510493.35742  24577363.1724   24577366.8894
     -2943.3054      -2293.4854         45.0004         39.0004
  22711202.9684  -13274375.00543 -10327031.94342  22711203.6754   22711203.5924
      -320.5434       -249.7694         51.0004         45.0004
  23533628.3634     -88601.02043    -55312.13742  23533627.0834   23533628.8754
     -3442.2194      -2682.2494         48.0004         42.0004
 08  4 20  0 26 30.0000000  0 11G30G29G 5G23G31G16G12G 4G20G 2G 1
  21462438.8954  -21426000.83843  -8306591.63542  21462437.6174   21462439.3254
     -2659.4334      -2072.2844         56.0004         49.0004
  21357227.1914  -16164752.66643 -12586908.10642  21357226.4934   21357227.5884
      1364.2154       1063.0254         56.0004         50.0004
  22801689.4724  -12359020.46643  -9575024.61942  22801688.1464   22801690.6034
     -3528.5984      -2749.5454         50.0004         44.0004
  22730019.8004  -12227319.98643  -9516599.27142  22730018.4584   22730019.0184
      2088.6454       1627.5154         52.0004         45.0004
  20918551.4354  -25023014.87844 -18153564.32042  20918550.5784   20918550.9464
      -499.0364       -388.8554         58.0004         52.0004
  23973455.6484   -7752661.45843  -6028359.41542  23973454.5604   23973455.5894
      3665.2334       2856.0224         48.0004         40.0004
  24358430.5844   -6892384.68843   2222222.33742  24358429.3404   24358430.9494
     -3633.2104      -2831.0734         47.0004         41.0004
  24216119.2774     489982.41843    463911.02742  24216119.3714   24216119.7904
     -2620.6134      -2042.0324         48.0004         40.0004
  24594199.7434   -1854087.30843  -1441556.23442  24594198.2984   24594202.0774
     -2955.1014      -2302.6824         45.0004         38.0004
  22713096.9544  -13264430.79943 -10319283.18742  22713095.4584   22713095.4164
      -342.6734       -267.0224         52.0004         46.0004
  23553305.8464      14805.52743     25264.35742  23553304.1484   23553306.2394
     -3451.8104      -2689.7274         47.0004         41.0004
 08  4 20  0 27  0.0000000  0 12G30G24G29G 5G23G31G16G12G 4G20G 2G 1
  21477659.8264  -21346013.65843  -8244263.97042  21477659.1504   21477660.1384
     -2673.9374      -2083.5794         56.0004         49.0004
  24750245.807
                                        45.000
  21349491.9194  -16205402.92443 -12618583.63842  21349490.8654   21349492.0474
      1345.0424       1048.0894         56.0004         50.0004
  22821855.6964  -12253050.85343  -9492451.05442  22821853.5134   22821855.7884
     -3537.1684      -2756.2264         51.0004         44.0004
  22718146.3314  -12289719.07443  -9565221.93442  22718145.1544   22718144.9504
      2070.4804       1613.3704         53.0004         45.0004
  20921452.4534  -25007773.04244 -18141687.56542  20921451.6484   20921451.6384
      -517.8924       -403.5474         58.0004         52.0004
  23952545.8934   -7862541.10143  -6113979.91642  23952545.4934   23952545.3384
      3659.4364       2851.5124         47.0004         40.0004
  24379183.1084   -6783329.25643   2307200.58242  24379181.9634   24379183.4224
     -3637.8114      -2834.6594         48.0004         41.0004
  24231117.6054     568805.59743    525331.71842  24231117.9814   24231121.8444
     -2635.1434      -2053.3674         46.0004         40.0004
  24611100.5834   -1765281.08843  -1372356.62242  24611097.2614   24611101.5324
     -2966.7084      -2311.7114         44.0004         38.0004
  22715112.4884  -13253842.07443 -10311032.31642  22715110.1904   22715111.3224
      -364.2344       -283.8214         52.0004         45.0004
  23573034.3244     118479.81643    106049.50342  23573033.7614   23573035.9784
     -3460.8254      -2696.7284         48.0004         41.0004
 08  4 20  0 27 30.0000000  0 12G30G24G29G 5G23G31G16G12G 4G20G 2G 1
  21492962.8704  -21265596.19843  -8181601.03842  21492961.9564   21492962.8124
     -2687.7524      -2094.3524         56.0004         48.0004
  24730258.5984   -1654703.61943  -1274348.90842  24730256.5134   24730258.5314
      3498.2814       2725.9274         45.0004         38.0004
  21341863.4234  -16245489.44543 -12649819.89142  21341862.5644   21341863.9024
      1326.8194       1033.8874         56.0004         50.0004
  22842066.6864  -12146839.18143  -9409688.86142  22842065.1304   22842067.4014
     -3544.3794      -2761.8634         50.0004         44.0004
  22706374.3424  -12351576.42843  -9613422.47542  22706373.3234   22706373.2214
      2052.8244       1599.5994         53.0004         45.0004
  20924458.6174  -24991973.87744 -18129376.51742  20924457.5344   20924457.7704
      -535.9314       -417.6114         58.0004         52.0004
  23931667.4094   -7972260.58943  -6199475.70742  23931665.7114   23931666.6844
      3654.6464       2847.7754         47.0004         40.0004
  24399960.8494   -6674141.96543   2392281.53842  24399959.6334   24399960.7794
     -3641.8694      -2837.8214         49.0004         42.0004
  24246200.9204     648057.82943    587086.63142  24246200.8794   24246203.6624
     -2648.8814      -2064.0724         48.0004         41.0004
  24628061.9404   -1676142.90343  -1302898.33742  24628061.9754   24628062.0594
     -2976.4924      -2319.3374         45.0004         38.0004
  22717250.0764  -13242611.61743 -10302281.40742  22717247.6784   22717248.0004
      -384.9544       -299.9564         52.0004         45.0004
  23592812.9334     222416.67143    187039.25342  23592810.2884   23592813.2284
     -3468.9744      -2703.1064         48.0004         41.0004
 08  4 20  0 28  0.0000000  0 12G30G24G29G 5G23G31G16G12G 4G20G 2G 1
  21508348.4314  -21184743.46043  -8118598.92942  21508347.5894   21508348.7214
     -2701.4714      -2105.0374         55.0004         48.0004
  24710305.2104   -1759555.47143  -1356051.65842  24710303.4024   24710306.2264
      3493.1534       2721.9464         44.0004         38.0004
  21334344.0654  -16285004.12443 -12680610.57742  21334343.0584   21334344.5664
      1308.4054       1019.5394         56.0004         50.0004
  22862325.2044  -12040380.58843  -9326734.22342  22862322.8924   22862326.1874
     -3551.7774      -2767.6164         50.0004         43.0004
  22694708.7394  -12412882.73443  -9661193.62542  22694707.7884   22694707.3594
      2035.1734       1585.8634         53.0004         45.0004
  20927571.9934  -24975610.60244 -18116625.90042  20927571.5164   20927571.8814
      -554.0004       -431.6844         58.0004         52.0004
  23910820.8534   -8081810.78443  -6284839.44642  23910819.0354   23910820.5744
      3649.6874       2843.9094         47.0004         40.0004
  24420763.8684   -6564817.36543   2477469.48642  24420763.4724   24420764.3854
     -3645.5694      -2840.6874         48.0004         42.0004
  24261364.3784     727743.60543    649179.47842  24261363.0744   24261367.9224
     -2662.3714      -2074.5614         47.0004         41.0004
  24645088.6494   -1586668.88143  -1233178.37542  24645086.9284   24645088.9034
     -2987.3444      -2327.8034         46.0004         38.0004
  22719509.7044  -13230732.26143 -10293024.80942  22719508.5334   22719508.8924
      -406.0134       -316.3664         52.0004         45.0004
  23612642.0054     326620.47843    268236.99042  23612641.0714   23612643.5234
     -3477.1894      -2709.4874         48.0004         41.0004
 08  4 20  0 28 30.0000000  0 12G30G24G29G 5G23G31G16G12G 4G20G 2G 1
  21523814.1474  -21103470.05843  -8055269.03642  21523813.3634   21523814.5094
     -2716.4714      -2116.7274         55.0004         48.0004
  24690383.9954   -1864243.53743  -1437626.83442  24690382.6714   24690385.3864
      3486.2124       2716.5254         43.0004         38.0004
  21326931.7414  -16323958.22043 -12710964.47842  21326930.6884   21326931.7374
      1288.6434       1004.1424         56.0004         51.0004
  22882626.8284  -11933689.64243  -9243598.49342  22882625.8264   22882628.5294
     -3560.5564      -2774.4654         49.0004         43.0004
  22683146.4134  -12473647.91043  -9708543.11342  22683144.7704   22683144.0124
      2016.0404       1570.9454         53.0004         45.0004
  20930791.1604  -24958696.12844 -18103445.84742  20930790.2764   20930790.6484
      -573.5284       -446.9044         58.0004         52.0004
  23890003.3614   -8191202.68243  -6370079.96242  23890000.7234   23890004.6764
      3643.2784       2838.9194         46.0004         40.0004
  24441591.4134   -6455369.93843   2562753.14542  24441589.9924   24441590.6404
     -3650.8274      -2844.8194         48.0004         42.0004
  24276605.6214     807848.04743    711598.50442  24276605.9014   24276609.2954
     -2677.4034      -2086.2794         45.0004         40.0004
  24662174.2904   -1496874.27643  -1163208.54342  24662173.3724   24662174.9484
     -2999.0214      -2336.8964         44.0004         38.0004
  22721890.3894  -13218217.21643 -10283272.87442  22721890.7414   22721890.4874
      -428.2064       -333.6774         51.0004         45.0004
  23632519.6644     431076.13343    349631.03742  23632518.1574   23632521.8354
     -3486.6714      -2716.9094         48.0004         41.0004
 08  4 20  0 29  0.0000000  0 12G30G24G29G 5G23G31G16G12G 4G20G 2G 1
  21539361.1644  -21021770.06443  -7991606.71942  21539360.3274   21539361.8964
     -2730.0514      -2127.3144         55.0004         48.0004
  24670495.0174   -1968756.65443  -1519065.62442  24670494.4714   24670497.6064
      3481.3224       2712.7194         44.0004         37.0004
  21319627.4284  -16362342.44343 -12740874.32842  21319626.3484   21319627.4934
      1270.1514        989.7284         56.0004         50.0004
  22902975.4424  -11826760.29143  -9160276.91942  22902974.2814   22902976.0264
     -3568.0674      -2780.3154         50.0004         43.0004
  22671688.8044  -12533861.83343  -9755463.04542  22671686.1364   22671685.3194
      1998.1464       1556.9984         53.0004         45.0004
  20934116.0804  -24941222.29144 -18089829.84942  20934115.2824   20934115.6854
      -591.5274       -460.9334         58.0004         52.0004
  23869219.6564   -8300425.51243  -6455188.73742  23869219.7334   23869219.0954
      3638.0684       2834.8554         47.0004         40.0004
  24462442.9994   -6345793.38443   2648137.41842  24462442.0374   24462443.5184
     -3654.4304      -2847.6084         48.0004         42.0004
  24291931.9654     888376.46443    774347.87042  24291929.4014   24291933.4994
     -2690.7874      -2096.7114         48.0004         40.0004
  24679323.8784   -1406754.09043  -1092985.09242  24679323.6704   24679325.8454
     -3009.1684      -2344.7874         44.0004         38.0004
  22724395.2834  -13205058.40143 -10273019.17942  22724393.8234   22724393.8074
      -449.1414       -349.9894         52.0004         45.0004
  23652445.2264     535788.95643    431225.52242  23652444.7144   23652447.5024
     -3494.4084      -2722.9124         48.0004         41.0004
 08  4 20  0 29 30.0000000  0 12G30G24G29G 5G23G31G16G12G 4G20G 2G 1
  21554988.8374  -20939648.68943  -7927616.02642  21554987.8384   21554989.2614
     -2744.2394      -2138.3654         56.0004         48.0004
  24650640.6544   -2073094.72443  -1600368.09742  24650638.3974   24650643.1294
      3474.9594       2707.7614         43.0004         36.0004
  21312430.9414  -16400158.75943 -12770341.58242  21312429.9684   21312431.3664
      1250.8144        974.6644         56.0004         50.0004
  22923367.5414  -11719597.73043  -9076773.64242  22923366.5974   22923369.7284
     -3576.0924      -2786.5574         50.0004         43.0004
  22660334.8304  -12593525.44343  -9801954.17042  22660332.7804   22660331.6924
      1979.5334       1542.5064         53.0004         46.0004
  20937547.2164  -24923192.38244 -18075780.58742  20937546.3364   20937546.7374
      -610.3584       -475.6054         58.0004         52.0004
  23848466.8564   -8409480.35843  -6540166.48142  23848465.1524   23848466.7304
      3632.2824       2830.3444         48.0004         41.0004
  24483317.9504   -6236091.88243   2733619.09542  24483318.1264   24483318.4054
     -3659.0164      -2851.1714         45.0004         41.0004
  24307337.1134     969323.43143    837423.47342  24307334.1234   24307337.6604
     -2705.2284      -2107.9674         46.0004         40.0004
  24696535.1674   -1316313.85343  -1022512.19042  24696534.5804   24696536.4214
     -3019.9214      -2353.1884         45.0004         38.0004
  22727020.5114  -13191259.17343 -10262266.39342  22727019.5754   22727020.0694
      -470.8304       -366.8854         51.0004         45.0004
  23672419.8614     640753.32943    513016.02042  23672417.8764   23672422.5864
     -3503.0374      -2729.6284         48.0004         41.0004
 08  4 20  0 30  0.0000000  0 12G30G24G29G 5G23G31G16G12G 4G20G 2G 1
  21570694.9614  -20857109.04343  -7863299.42842  21570694.5764   21570695.8724
     -2758.3424      -2149.3594         55.0004         48.0004
  24630819.3774   -2177255.92043  -1681532.67742  24630817.7294   24630819.9764
      3469.3204       2703.3614         45.0004         37.0004
  21305343.2334  -16437406.83243 -12799366.02542  21305342.0564   21305343.4214
      1232.7154        960.5614         56.0004         50.0004
  22943804.3174  -11612205.18543  -8993091.10442  22943802.8504   22943806.2014
     -3583.4244      -2792.2924         50.0004         43.0004
  22649085.2704  -12652636.84443  -9848014.97442  22649084.8544   22649083.4094
      1961.4144       1528.3844         53.0004         46.0004
  20941083.7094  -24904607.75044 -18061299.05442  20941083.0514   20941083.2364
      -628.3954       -489.6604         58.0004         52.0004
  23827746.0914   -8518366.27243  -6625012.39642  23827745.3324   23827747.1274
      3626.9884       2826.2134         47.0004         41.0004
  24504216.6374   -6126268.64543   2819195.63042  24504215.5504   24504217.1974
     -3662.2424      -2853.6884         44.0004         41.0004
  24322816.7264    1050685.22843    900822.17242  24322815.4644   24322816.3914
     -2718.4454      -2118.2544         44.0004         38.0004
  24713806.3574   -1225557.63043   -951793.04942  24713803.8194   24713807.1964
     -3030.3964      -2361.3544         44.0004         38.0004
  22729769.4404  -13176821.35243 -10251016.26242  22729767.5784   22729766.9894
      -491.6144       -383.0734         52.0004         45.0004
  23692440.7214     745965.41843    594999.48442  23692438.7464   23692442.6864
     -3510.8194      -2735.7064         47.0004         41.0004
 08  4 20  0 30 30.0000000  0 12G30G24G29G 5G23G31G16G12G 4G20G 2G 1
  21586481.5334  -20774151.45343  -7798657.19342  21586480.7254   21586482.1714
     -2771.4924      -2159.6064         55.0004         48.0004
  24611032.4364   -2281235.64643  -1762555.87242  24611031.1024   24611034.3744
      3463.3624       2698.7294         45.0004         37.0004
  21298363.5574  -16474083.99343 -12827945.61442  21298362.5834   21298363.6824
      1213.8204        945.8354         56.0004         50.0004
  22964284.1464  -11504582.92843  -8909229.59242  22964282.0694   22964284.6444
     -3590.4504      -2797.7444         49.0004         43.0004
  22637942.7914  -12711192.59743  -9893642.79142  22637941.4214   22637941.1784
      1943.2934       1514.2554         54.0004         46.0004
  20944726.4414  -24885466.67144 -18046383.92942  20944725.5654   20944725.5084
      -646.5434       -503.7954         58.0004         52.0004
  23807059.6864   -8627080.35643  -6709724.78542  23807058.4914   23807060.3174
      3621.6054       2822.0394         47.0004         40.0004
  24525139.0474   -6016323.70443   2904866.95242  24525139.1844   24525138.2504
     -3666.1744      -2856.7564         45.0004         40.0004
  24338379.3474    1132461.33543    964543.76442  24338380.1864   24338381.3034
     -2731.9584      -2128.7884         47.0004         40.0004
  24731136.2974   -1134486.42243   -880828.49942  24731135.0244   24731137.0244
     -3040.1844      -2368.9764         44.0004         38.0004
  22732638.0884  -13161743.57443 -10239267.42842  22732636.6984   22732635.7634
      -512.5924       -399.4074         52.0004         45.0004
  23712509.3124     851424.36743    677175.23442  23712507.3774   23712511.0764
     -3518.6734      -2741.8114         47.0004         41.0004
 08  4 20  0 31  0.0000000  0 12G30G24G29G 5G23G31G16G12G 4G20G 2G 1
  21602347.3914  -20690777.23843  -7733690.28642  21602346.5294   21602347.3484
     -2785.9664      -2170.8764         56.0004         48.0004
  24591281.8434   -2385030.10843  -1843434.74342  24591279.6424   24591283.8224
      3457.1284       2693.8724         45.0004         38.0004
  21291493.1814  -16510188.36244 -12856078.84842  21291492.1964   21291493.2654
      1193.8394        930.2704         57.0004         51.0004
  22984806.8644  -11396732.40543  -8825190.30742  22984805.8034   22984808.0184
     -3598.6544      -2804.1464         49.0004         43.0004
  22626905.9364  -12769189.57343  -9938835.19242  22626904.6704   22626904.1174
      1923.9894       1499.2244         53.0004         46.0004
  20948474.5904  -24865768.56044 -18031034.71742  20948473.8834   20948474.1964
      -665.8774       -518.8594         58.0004         52.0004
  23786404.9794   -8735619.00243  -6794300.37342  23786403.0444   23786405.0254
      3614.9744       2816.8394         46.0004         40.0004
  24546083.8344   -5906257.52643   2990632.82542  24546083.2494   24546083.9564
     -3670.5884      -2860.2074         45.0004         40.0004
  24354017.7114    1214649.76243   1028586.70542  24354018.1414   24354020.6104
     -2746.3234      -2139.9974         45.0004         39.0004
  24748525.6174   -1043102.37843   -809620.21842  24748523.0404   24748527.1064
     -3051.3344      -2377.6664         43.0004         38.0004
  22735629.7014  -13146024.92643 -10227019.16842  22735628.5204   22735627.4414
      -534.8264       -416.7524         52.0004         46.0004
  23732624.2044     957128.33743    759541.91442  23732622.1104   23732625.1414
     -3527.3254      -2748.5694         46.0004         40.0004
 08  4 20  0 31 30.0000000  0 12G30G24G29G 5G23G31G16G12G 4G20G 2G 1
  21618291.0444  -20606991.93943  -7668403.02942  21618290.1564   21618291.4344
     -2799.8064      -2181.6664         55.0004         48.0004
  24571564.4714   -2488639.52443  -1924169.31742  24571563.9534   24571567.7724
      3450.5394       2688.7324         46.0004         39.0004
  21284730.8534  -16545722.15743 -12883767.48342  21284730.2914   21284731.6024
      1174.7544        915.3934         56.0004         51.0004
  23005373.1414  -11288659.18643  -8740977.50842  23005372.0134   23005374.2374
     -3606.3544      -2810.1564         49.0004         43.0004
  22615975.8744  -12826629.34743  -9983593.39342  22615975.0844   22615973.4694
      1905.1994       1484.5814         53.0004         46.0004
  20952328.7444  -24845517.62844 -18015254.76042  20952327.8634   20952327.9154
      -684.4134       -533.3074         58.0004         52.0004
  23765783.8944   -8843983.52743  -6878740.06642  23765781.8534   23765785.1044
      3609.0574       2812.2584         47.0004         40.0004
  24567051.8014   -5796075.87043   3076488.65342  24567050.0934   24567050.7604
     -3674.7754      -2863.4584         46.0004         40.0004
  24369737.1874    1297244.50343   1092946.18842  24369735.0424   24369738.9364
     -2760.1974      -2150.8074         46.0004         40.0004
  24765974.1434    -951411.75543   -738173.01142  24765971.8204   24765975.1574
     -3061.4994      -2385.5804         45.0004         38.0004
  22738741.3784  -13129669.52543 -10214274.60942  22738740.3854   22738740.2734
      -555.9854       -433.2344         52.0004         46.0004
  23752783.9914    1063070.68743    842094.07442  23752782.0894   23752784.6594
     -3535.1004      -2754.6104         46.0004         40.0004
 08  4 20  0 32  0.0000000  0 12G30G24G29G 5G23G31G16G12G 4G20G 2G 1
  21634312.3324  -20522799.26743  -7602798.33942  21634311.4984   21634312.8094
     -2813.6214      -2192.4374         55.0004         48.0004
  24551883.6334   -2592062.28443  -2004758.43642  24551882.6124   24551887.0274
      3443.9504       2683.5934         45.0004         39.0004
  21278077.7394  -16580685.69843 -12911011.77542  21278076.8064   21278077.9984
      1155.4584        900.3534         56.0004         51.0004
  23025980.8184  -11180366.39043  -8656593.60542  23025978.7814   23025982.0314
     -3613.8494      -2816.0024         49.0004         43.0004
  22605152.5614  -12883510.43743 -10027916.26742  22605150.5604   22605148.6394
      1886.3474       1469.8794         54.0004         45.0004
  20956286.4344  -24824715.19244 -17999045.10742  20956285.9074   20956286.3304
      -703.0394       -547.8284         58.0004         52.0004
  23745195.7434   -8952173.42543  -6963043.63542  23745193.5074   23745196.0134
      3603.0214       2807.5404         48.0004         41.0004
  24588039.8994   -5685781.41743   3162432.32542  24588038.4864   24588039.0254
     -3678.9444      -2866.7114         47.0004         41.0004
  24385530.7144    1380241.74343   1157619.33942  24385529.8244   24385532.7724
     -2773.6764      -2161.3204         47.0004         40.0004
  24783480.4954    -859418.82843   -666490.20942  24783478.9654   24783478.7304
     -3071.9484      -2393.7254         45.0004         37.0004
  22741976.0574  -13112678.91543 -10201035.05642  22741972.8384   22741973.4084
      -577.5384       -450.0484         52.0004         45.0004
  23772989.7484    1169247.97143    924829.22342  23772988.3394   23772990.6194
     -3543.5674      -2761.2074         46.0004         40.0004
 08  4 20  0 32 30.0000000  0 12G30G24G29G 5G23G31G16G12G 4G20G 2G 1
  21650412.5094  -20438194.11343  -7536872.22042  21650411.4524   21650412.7424
     -2827.4314      -2203.1934         55.0004         48.0004
  24532239.9324   -2695288.65443  -2085194.63542  24532239.1134   24532242.9654
      3436.8924       2678.0974         43.0004         39.0004
  21271534.5754  -16615070.97343 -12937805.48042  21271533.4874   21271534.5834
      1136.0974        885.2714         56.0004         51.0004
  23046631.7044  -11071849.00443  -8572034.59542  23046629.2324   23046631.8994
     -3621.3824      -2821.8564         49.0004         43.0004
  22594435.3464  -12939823.88143 -10071796.80642  22594433.3584   22594433.1614
      1867.1794       1454.9474         53.0004         46.0004
  20960351.8914  -24803354.66444 -17982400.58142  20960351.1534   20960351.1134
      -721.7674       -562.4164         58.0004         52.0004
  23724642.9134   -9060180.21043  -7047204.73342  23724641.5844   23724642.2574
      3596.6624       2802.5844         49.0004         41.0004
  24609050.1984   -5575369.18543   3248467.75642  24609048.7244   24609049.6994
     -3682.9934      -2869.8654         47.0004         41.0004
  24401401.6574    1463645.92843   1222609.52542  24401400.7704   24401402.4624
     -2787.1324      -2171.7974         46.0004         40.0004
  24801043.5034    -767119.30343   -594568.49842  24801044.2654   24801044.2164
     -3082.2594      -2401.7604         44.0004         36.0004
  22745330.7304  -13095047.36443 -10187296.16442  22745328.6654   22745328.7944
      -598.9034       -466.6864         52.0004         45.0004
  23793240.1544    1275664.07843   1007750.30142  23793238.8154   23793241.8054
     -3551.4814      -2767.3884         47.0004         41.0004
 08  4 20  0 33  0.0000000  0 12G30G24G29G 5G23G31G16G12G 4G20G 2G 1
  21666589.5894  -20353179.90743  -7470627.36642  21666588.8274   21666590.6014
     -2840.4334      -2213.3274         55.0004         48.0004
  24512635.1524   -2798317.30543  -2165476.75642  24512633.1944   24512637.8424
      3431.3364       2673.7724         44.0004         38.0004
  21265101.0854  -16648878.50543 -12964148.98742  21265100.0254   21265101.3394
      1117.4224        870.7184         56.0004         51.0004
  23067323.2074  -10963110.66343  -8487303.31542  23067320.8724   23067324.8884
     -3628.0934      -2827.0894         49.0004         43.0004
  22583826.6184  -12995569.23943 -10115234.71542  22583825.7394   22583825.6474
      1848.8984       1440.7054         52.0004         46.0004
  20964522.2574  -24781438.03744 -17965322.77542  20964521.5294   20964521.7764
      -739.6484       -576.3484         58.0004         52.0004
  23704124.5834   -9168003.42543  -7131222.77542  23704123.6434   23704123.5694
      3591.1694       2798.3434         48.0004         41.0004
  24630082.6774   -5464842.16443   3334592.63942  24630081.6664   24630082.1264
     -3686.5704      -2872.6604         47.0004         41.0004
  24417349.2944    1547452.73043   1287913.53342  24417348.5874   24417352.0194
     -2800.0844      -2181.8774         46.0004         40.0004
  24818666.3324    -674517.75443   -522411.50242  24818664.4284   24818665.6274
     -3091.7394      -2409.1524         44.0004         37.0004
  22748807.2894  -13076776.34143 -10173058.92042  22748805.0654   22748805.2494
      -619.5014       -482.7214         52.0004         46.0004
  23813535.7254    1382314.77443   1090853.95142  23813534.1794   23813537.8224
     -3558.8524      -2773.1154         47.0004         41.0004
 08  4 20  0 33 30.0000000  0 12G30G24G29G 5G23G31G16G12G 4G20G 2G 1
  21682844.5604  -20267761.99043  -7404067.92142  21682843.0194   21682844.7564
     -2853.4884      -2223.4954         55.0004         48.0004
  24493067.2334   -2901148.36943  -2245605.11942  24493066.1334   24493069.6934
      3424.9804       2668.8294         43.0004         38.0004
  21258777.2834  -16682110.59143 -12990044.10042  21258776.4024   21258777.3984
      1098.7084        856.1364         56.0004         51.0004
  23088056.3674  -10854156.89343  -8402404.18042  23088054.9074   23088056.2664
     -3634.7704      -2832.3004         50.0004         43.0004
  22573328.2774  -13050747.36343 -10158230.63942  22573326.2214   22573324.6824
      1830.3044       1426.2124         53.0004         46.0004
  20968798.3694  -24758968.53744 -17947814.11542  20968797.5504   20968797.3744
      -757.6944       -590.4114         58.0004         52.0004
  23683640.7004   -9275643.84043  -7215098.35642  23683639.9934   23683641.0804
      3585.5624       2793.9304         47.0004         41.0004
  24651137.2154   -5354205.04643   3420803.38242  24651135.4654   24651136.7954
     -3689.1984      -2874.7034         46.0004         40.0004
  24433375.3014    1631656.55643   1353526.84942  24433373.1384   24433373.6214
     -2812.9914      -2191.9514         48.0004         40.0004
  24836344.8964    -581620.23043   -450023.81042  24836341.7244   24836344.5284
     -3101.1764      -2416.5024         45.0004         39.0004
  22752404.5364  -13057869.57043 -10158326.34542  22752402.9564   22752403.0564
      -640.3314       -498.9724         52.0004         46.0004
  23833874.1374    1489196.15943   1174138.03642  23833872.2234   23833874.6564
     -3566.2384      -2778.9324         47.0004         40.0004
 08  4 20  0 34  0.0000000  0 12G30G24G29G 5G23G31G16G12G 4G20G 2G 1
  21699175.3664  -20181941.41543  -7337194.72342  21699174.7404   21699175.9084
     -2866.9684      -2233.9944         55.0004         48.0004
  24473537.7024   -3003776.97043  -2325575.61942  24473536.5654   24473540.0874
      3417.8284       2663.2494         44.0004         39.0004
  21252562.9564  -16714765.07643 -13015489.14742  21252562.2104   21252563.4144
      1079.2374        840.9664         56.0004         51.0004
  23108830.3424  -10744988.55943  -8317337.88942  23108829.2384   23108831.1324
     -3642.1754      -2838.0424         49.0004         43.0004
  22562936.6254  -13105354.90143 -10200781.93042  22562934.7114   22562933.1554
      1811.0994       1411.2504         54.0004         46.0004
  20973179.3154  -24735945.49844 -17929874.13942  20973178.6424   20973178.6824
      -776.2984       -604.9004         58.0004         52.0004
  23663193.2094   -9383098.48943  -7298829.16642  23663191.2574   23663192.5894
      3579.0344       2788.8584         47.0004         41.0004
  24672211.6924   -5243458.28443   3507099.53142  24672209.3074   24672211.4454
     -3693.0404      -2877.6834         45.0004         40.0004
  24449474.1004    1716256.05043   1419448.54142  24449472.6694   24449474.3784
     -2826.1054      -2202.1594         47.0004         40.0004
  24854077.2594    -488428.43243   -377406.83942  24854075.9814   24854078.3594
     -3110.8334      -2424.0274         46.0004         39.0004
  22756122.0444  -13038326.77343 -10143098.11142  22756121.9924   22756121.9114
      -661.6024       -515.5254         51.0004         45.0004
  23854256.3914    1596306.24643   1257600.80542  23854254.9414   23854257.6684
     -3573.7234      -2784.7104         47.0004         40.0004
 08  4 20  0 34 30.0000000  0 12G30G24G29G 5G23G31G16G12G 4G20G 2G 1
  21715582.4754  -20095721.87043  -7270010.65542  21715581.8394   21715583.3024
     -2880.0384      -2244.1794         55.0004         48.0004
  24454047.2024   -3106200.96643  -2405386.29642  24454045.3904   24454049.6534
      3411.4544       2658.2784         45.0004         39.0004
  21246459.3544  -16746841.37844 -13040483.67242  21246458.5084   21246459.6624
      1060.1174        826.0724         57.0004         51.0004
  23129644.2384  -10635608.68043  -8232106.79942  23129641.9284   23129644.6844
     -3648.9874      -2843.3534         49.0004         43.0004
  22552654.1014  -13159391.10443 -10242888.03342  22552652.0194   22552651.0804
      1792.2854       1396.5974         54.0004         46.0004
  20977665.5414  -24712370.22844 -17911503.85742  20977664.5664   20977665.3134
      -794.5474       -619.1184         58.0004         52.0004
  23642779.8684   -9490366.61043  -7382414.77242  23642777.7004   23642780.0314
      3572.8624       2784.0594         47.0004         41.0004
  24693305.0174   -5132605.01243   3593478.65542  24693304.5304   24693305.9014
     -3696.5104      -2880.3894         44.0004         40.0004
  24465645.3054    1801247.74343   1485675.81842  24465642.8764   24465644.6194
     -2839.3954      -2212.5364         45.0004         38.0004
  24871865.7534    -394945.87943   -304563.26542  24871864.6964   24871867.1864
     -3120.2294      -2431.3474         46.0004         39.0004
  22759962.7364  -13018149.35843 -10127375.44242  22759961.8814   22759961.3024
      -682.4854       -531.7874         52.0004         46.0004
  23874681.0904    1703640.33843   1341238.07342  23874680.5974   23874682.4684
     -3580.7494      -2790.1924         47.0004         40.0004
 08  4 20  0 35  0.0000000  0 12G30G24G29G 5G23G31G16G12G 4G20G 2G 1
  21732065.0334  -20009105.58743  -7202517.47342  21732064.1674   21732065.9034
     -2894.1174      -2255.1524         55.0004         48.0004
  24434595.7054   -3208419.06043  -2485036.68742  24434593.9744   24434597.2184
      3403.3444       2651.9374         45.0004         39.0004
  21240465.2914  -16778339.83843 -13065027.94242  21240464.6954   21240465.8674
      1040.0014        810.3904         56.0004         51.0004
  23150498.3934  -10526020.00243  -8146712.97842  23150496.5924   23150498.9774
     -3656.6424      -2849.3364         49.0004         43.0004
  22542479.4734  -13212854.33243 -10284547.68542  22542477.5044   22542477.6364
      1772.3064       1381.0174         53.0004         46.0004
  20982257.0714  -24688243.92244 -17892704.23642  20982256.1954   20982256.2474
      -813.6324       -633.9974         58.0004         52.0004
  23622404.1644   -9597446.64843  -7465853.84142  23622403.1554   23622403.9274
      3566.1364       2778.8224         48.0004         41.0004
  24714419.7774   -5021647.41243   3679939.05742  24714418.5424   24714421.0094
     -3700.8424      -2883.7844         45.0004         40.0004
  24481893.6424    1886628.00943   1552205.88442  24481891.2324   24481895.1834
     -2852.6204      -2222.8224         45.0004         40.0004
  24889709.3444    -301176.75743   -231496.42742  24889707.5294   24889709.8104
     -3130.7834      -2439.5694         43.0004         37.0004
  22763922.1584  -12997338.45043 -10111159.12442  22763921.8244   22763921.3664
      -704.5254       -548.9894         52.0004         46.0004
  23895148.6314    1811195.06643   1425047.19142  23895148.3714   23895149.5674
     -3589.0204      -2796.6374         47.0004         40.0004
 08  4 20  0 35 30.0000000  0 12G30G24G29G 5G23G31G16G12G 4G20G 2G 1
  21748622.4904  -19922093.12843  -7134715.57842  21748622.0044   21748623.2884
     -2907.2104      -2265.3604         55.0004         48.0004
  24415183.3794   -3310425.80343  -2564522.13042  24415182.1424   24415186.7574
      3396.3554       2646.5014         44.0004         39.0004
  21234581.3464  -16809257.71343 -13089119.81242  21234580.8524   21234582.4334
      1020.7934        795.4224         56.0004         51.0004
  23171392.3704  -10416222.92043  -8061156.75942  23171390.2954   23171392.9704
     -3663.3874      -2854.5964         49.0004         42.0004
  22532414.6984  -13265740.87243 -10325757.97042  22532414.0674   22532413.2534
      1753.1324       1366.0744         53.0004         46.0004
  20986952.6044  -24663565.01644 -17873473.95342  20986951.8884   20986952.5694
      -831.9364       -648.2684         57.0004         52.0004
  23602064.1544   -9704334.67343  -7549143.15742  23602062.6754   23602063.0864
      3559.5004       2773.6124         48.0004         41.0004
  24735554.6554   -4910585.65043   3766480.58242  24735553.3864   24735555.6524
     -3704.2954      -2886.4564         45.0004         40.0004
  24498215.8554    1972395.63543   1619037.88142  24498215.1674   24498215.4164
     -2865.5324      -2232.9004         47.0004         40.0004
  24907605.9344    -207122.10043   -158207.09942  24907607.8854   24907607.7154
     -3140.0534      -2446.7954         41.0004         35.0004
  22768002.7704  -12975893.14343 -10094448.51742  22768002.3154   22768001.9994
      -725.5184       -565.3594         51.0004         46.0004
  23915657.6144    1918968.88243   1509026.71842  23915655.5374   23915659.1494
     -3596.1254      -2802.1944         47.0004         40.0004
 08  4 20  0 36  0.0000000  0 12G30G24G29G 5G23G31G16G12G 4G20G 2G 1
  21765255.8654  -19834686.94443  -7066606.86342  21765254.8754   21765256.3534
     -2920.1414      -2275.4244         55.0004         48.0004
  24395813.6664   -3412219.07343  -2643841.45542  24395812.3794   24395815.6434
      3389.1084       2640.8664         44.0004         39.0004
  21228808.6824  -16839593.98843 -13112758.45142  21228808.3734   21228809.2074
      1001.3354        780.2674         56.0004         51.0004
  23192325.3554  -10306219.65643  -7975439.92042  23192322.5834   23192325.9074
     -3670.4704      -2860.0754         48.0004         42.0004
  22522461.2894  -13318048.66243 -10366517.29142  22522460.1654   22522459.3264
      1733.6544       1350.9094         53.0004         46.0004
  20991754.7404  -24638334.71244 -17853814.00942  20991753.9184   20991753.8364
      -850.4394       -662.6774         58.0004         52.0004
  23581760.1594   -9811029.32343  -7632281.85342  23581759.7464   23581760.7294
      3553.1904       2768.7174         47.0004         41.0004
  24756709.4304   -4799421.63643   3853101.80042  24756707.8404   24756709.1984
     -3707.4684      -2888.9344         45.0004         40.0004
  24514608.7124    2058548.24743   1686169.56442  24514608.0344   24514608.6774
     -2878.8674      -2243.2774         47.0004         39.0004
  24925560.7314    -112785.08543    -84697.77942  24925558.9404   24925560.5454
     -3149.3634      -2454.0504         44.0004         36.0004
  22772205.1844  -12953814.45143 -10077244.36342  22772203.4134   22772203.4564
      -746.7924       -581.9204         51.0004         46.0004
  23936207.3544    2026960.24043   1593176.07642  23936205.9694   23936209.0044
     -3603.6164      -2808.0144         47.0004         40.0004
 08  4 20  0 36 30.0000000  0 12G30G24G29G 5G23G31G16G12G 4G20G 2G 1
  21781962.9164  -19746890.37543  -6998193.96742  21781962.0174   21781963.5124
     -2932.8554      -2285.3394         54.0004         47.0004
  24376483.5524   -3513797.04143  -2722993.10742  24376482.5974   24376485.4564
      3382.4604       2635.6864         44.0004         39.0004
  21223147.0694  -16869349.38543 -13135944.50942  21223145.8244   21223147.0504
       982.3224        765.4454         56.0004         51.0004
  23213297.0934  -10196013.47443  -7889564.95642  23213294.4804   23213297.8524
     -3676.7664      -2865.0124         48.0004         42.0004
  22512617.7944  -13369777.09143 -10406825.15442  22512616.5594   22512616.0414
      1714.7614       1336.1804         54.0004         46.0004
  20996659.5804  -24612554.18144 -17833725.25242  20996658.9794   20996659.4224
      -868.3894       -676.6714         57.0004         52.0004
  23561494.7164   -9917529.74643  -7715269.29242  23561492.6634   23561493.3764
      3547.0544       2763.9484         48.0004         41.0004
  24777882.3094   -4688157.89543   3939800.71642  24777881.3484   24777881.9674
     -3710.1814      -2891.0484         46.0004         40.0004
  24531072.8984    2145081.82643   1753598.36642  24531073.9564   24531076.0044
     -2890.7994      -2252.5634         42.0004         37.0004
  24943565.9704     -18169.52843    -10971.36042  24943563.2414   24943565.6844
     -3158.1984      -2460.9364         47.0004         39.0004
  22776527.2324  -12931104.27543 -10059548.21342  22776525.0554   22776526.1534
      -767.4234       -597.9904         52.0004         46.0004
  23956797.4394    2135164.18243   1677490.86542  23956795.4234   23956799.2534
     -3610.0374      -2813.0124         47.0004         40.0004
 08  4 20  0 37  0.0000000  0 12G30G24G29G 5G23G31G16G12G 4G20G 2G 1
  21798743.9564  -19658704.35643  -6929477.58542  21798743.2974   21798744.5544
     -2946.4504      -2295.9324         55.0004         47.0004
  24357196.1084   -3615155.35543  -2801973.46142  24357195.2254   24357198.7204
      3374.3614       2629.3674         45.0004         39.0004
  21217595.6494  -16898522.17943 -13158676.59342  21217594.4634   21217595.9664
       962.2094        749.7734         56.0004         51.0004
  23234306.5504  -10085605.58343  -7803532.82242  23234305.4674   23234308.1834
     -3684.0654      -2870.6784         49.0004         42.0004
  22502885.7434  -13420923.08743 -10446679.16342  22502884.1934   22502883.9824
      1694.7394       1320.5724         54.0004         46.0004
  21001671.2294  -24586223.04144 -17813207.44142  21001670.1184   21001670.0394
      -887.2924       -691.3954         58.0004         52.0004
  23541266.3544  -10023833.27243  -7798103.48942  23541265.1944   23541265.5254
      3539.5834       2758.1554         48.0004         41.0004
  24799072.9484   -4576795.33743   4026576.73942  24799072.4684   24799073.7124
     -3713.9904      -2894.0214         46.0004         40.0004
  24547615.3304    2231994.61543   1821322.51542  24547613.4614   24547613.8634
     -2903.9644      -2262.8084         45.0004         38.0004
  24961621.4664      76722.61643     62970.57342  24961619.8834   24961623.5974
     -3167.8784      -2468.4814         46.0004         39.0004
  22780967.1844  -12907762.25243 -10041359.75942  22780967.7294   22780967.2034
      -789.2114       -614.9684         51.0004         46.0004
  23977428.2844    2243579.58343   1761970.53142  23977427.4224   23977428.9544
     -3617.9334      -2819.1634         46.0004         40.0004
 08  4 20  0 37 30.0000000  0 12G30G24G29G 5G23G31G16G12G 4G20G 2G 1
  21815598.6084  -19570133.55243  -6860461.36042  21815597.8744   21815599.4004
     -2958.2214      -2305.1034         55.0004         47.0004
  24337949.3844   -3716293.66043  -2880782.45842  24337948.8064   24337952.1724
      3367.8684       2624.3174         46.0004         39.0004
  21212154.9404  -16927113.57444 -13180955.61742  21212154.0204   21212155.1034
       943.8174        735.4474         57.0004         51.0004
  23255353.6114   -9975000.41843  -7717347.00642  23255351.7554   23255355.4724
     -3689.4864      -2874.9104         49.0004         42.0004
  22493263.1434  -13471487.04543 -10486079.64742  22493262.1844   22493260.3814
      1676.2454       1306.1614         53.0004         46.0004
  21006785.4214  -24559344.32644 -17792263.01842  21006784.5454   21006785.0974
      -904.5444       -704.8324         57.0004         52.0004
  23521074.5524  -10129939.06243  -7880783.21642  23521073.4534   23521074.6684
      3534.0554       2753.8074         49.0004         42.0004
  24820283.0354   -4465337.99243   4113426.54842  24820282.3494   24820282.0504
     -3716.2474      -2895.7754         46.0004         40.0004
  24564224.7924    2319282.04643   1889338.55342  24564223.9894   24564225.4704
     -2915.1844      -2271.5664         45.0004         39.0004
  24979731.2824     171886.05943    137123.87242  24979729.7284   24979731.4614
     -3176.3954      -2475.1104         44.0004         39.0004
  22785529.0034  -12883791.15943 -10022680.92042  22785529.6244   22785529.4424
      -809.0854       -630.4754         51.0004         46.0004
  23998097.6104    2352201.32743   1846610.98542  23998097.2814   23998099.1884
     -3623.5644      -2823.5584         45.0004         39.0004
 08  4 20  0 38  0.0000000  0 12G30G24G29G 5G23G31G16G12G 4G20G 2G 1
  21832526.7534  -19481174.83243  -6791142.85442  21832526.0544   21832527.0764
     -2972.5194      -2316.2544         54.0004         47.0004
  24318747.4544   -3817203.94943  -2959414.01442  24318747.0004   24318748.2634
      3359.1074       2617.4954         46.0004         39.0004
  21206825.7304  -16955117.27143 -13202776.74242  21206824.8974   21206826.1944
       922.9104        719.1494         56.0004         51.0004
  23276439.7654   -9864194.51343  -7631004.79042  23276437.7994   23276440.4584
     -3697.6564      -2881.2934         49.0004         42.0004
  22483753.1724  -13521461.43643 -10525020.73742  22483751.6054   22483750.6844
      1655.1284       1289.7074         54.0004         46.0004
  21012005.4654  -24531913.12844 -17770888.14342  21012004.6484   21012005.0204
      -924.4074       -720.3194         57.0004         52.0004
  23500922.2814  -10235840.70943  -7963304.08042  23500921.2034   23500921.3344
      3525.8374       2747.4234         49.0004         42.0004
  24841510.8034   -4353781.84743   4200353.46542  24841510.2834   24841511.5894
     -3720.9954      -2899.4714         47.0004         40.0004
  24580902.5764    2406946.56443   1957648.49742  24580902.6444   24580907.0724
     -2928.9974      -2282.3344         40.0004         36.0004
  24997890.1984     267323.31943    211490.52642  24997888.0184   24997892.1464
     -3186.7764      -2483.2124         41.0004         36.0004
  22790211.8774  -12859186.49643 -10003508.34142  22790211.0314   22790211.5814
      -831.5264       -647.9554         52.0004         46.0004
  24018807.3534    2461031.93143   1931414.11942  24018806.2254   24018810.0324
     -3631.8754      -2830.0354         45.0004         39.0004
 08  4 20  0 38 30.0000000  0 12G30G24G29G 5G23G31G16G12G 4G20G 2G 1
  21849527.3654  -19391836.73443  -6721528.73142  21849526.3624   21849527.3944
     -2985.0614      -2326.0244         54.0004         47.0004
  24299586.7204   -3917888.87543  -3037869.87242  24299585.4574   24299589.6704
      3351.4274       2611.5024         45.0004         38.0004
  21201608.1174  -16982539.05443 -13224144.46842  21201606.7764   21201608.1984
       903.5864        704.0934         56.0004         51.0004
  23297562.0194   -9753196.09043  -7544512.55642  23297559.8774   23297562.3314
     -3704.0834      -2886.2834         49.0004         42.0004
  22474355.0564  -13570850.68843 -10563505.86142  22474353.9394   22474352.5584
      1635.7774       1274.6244         53.0004         46.0004
  21017329.8624  -24503936.19144 -17749088.02842  21017329.0454   21017328.9714
      -942.4014       -734.3354         58.0004         52.0004
  23480807.6654  -10341541.80043  -8045668.38842  23480806.7354   23480807.9464
      3519.1654       2742.1764         48.0004         41.0004
  24862756.3954   -4242135.05243   4287350.96142  24862754.8754   24862756.2574
     -3723.8204      -2901.6804         45.0004         40.0004
  24597659.3794    2494979.12843   2026245.27642  24597658.6954   24597660.1594
     -2940.5984      -2291.3784         45.0004         38.0004
  25016102.1524     363024.91443    286063.13142  25016101.8144   25016101.7424
     -3195.4464      -2489.9684         41.0004         34.0004
  22795014.0824  -12833955.89243  -9983848.13842  22795012.4164   22795012.2124
      -852.1724       -664.0264         52.0004         46.0004
  24039555.1674    2570062.54343   2016373.01242  24039554.2914   24039556.4134
     -3638.2514      -2834.9934         45.0004         39.0004
 08  4 20  0 39  0.0000000  0 12G30G24G29G 5G23G31G16G12G 4G20G 2G 1
  21866600.1354  -19302117.89743  -6651617.95142  21866599.4034   21866600.0954
     -2996.1664      -2334.6724         54.0004         47.0004
  24280471.6864   -4018342.38843  -3116145.42942  24280470.3884   24280474.4034
      3345.4594       2606.8484         45.0004         38.0004
  21196501.0494  -17009374.67043 -13245055.45342  21196500.0764   21196501.3904
       885.6704        690.1394         56.0004         51.0004
  23318721.3064   -9642004.04143  -7457869.40442  23318719.2944   23318720.8364
     -3708.7894      -2889.9834         48.0004         42.0004
  22465068.1164  -13619649.69943 -10601531.05542  22465067.4054   22465067.3994
      1617.7204       1260.5594         54.0004         46.0004
  21022757.2864  -24475411.06344 -17726860.75042  21022756.5774   21022757.4004
      -959.0064       -747.2764         57.0004         52.0004
  23460732.3284  -10447037.70143  -8127872.83742  23460731.4444   23460731.5054
      3514.0124       2738.1894         49.0004         42.0004
  24884019.3954   -4130396.10643   4374420.27342  24884017.8534   24884020.4364
     -3725.2614      -2902.8074         46.0004         40.0004
  24614482.5604    2583380.51943   2095129.34042  24614480.1884   24614480.3964
     -2951.9794      -2300.2474         47.0004         39.0004
  25034364.9154     458991.34843    360842.19242  25034364.0034   25034366.6704
     -3202.2414      -2495.2554         45.0004         35.0004
  22799934.2814  -12808096.60643  -9963698.06042  22799933.4934   22799933.1664
      -871.5344       -679.1094         52.0004         46.0004
  24060341.1024    2679293.71943   2101488.17342  24060339.6484   24060341.5614
     -3643.2964      -2838.9394         45.0004         39.0004
 08  4 20  0 39 30.0000000  0 12G30G24G29G 5G23G31G16G12G 4G20G 2G 1
  21883745.6064  -19212018.67043  -6581410.77042  21883745.2144   21883745.7984
     -3010.1064      -2345.5404         54.0004         47.0004
  24261399.8224   -4118559.60143  -3194236.86042  24261400.1264   24261404.7054
      3335.8184       2599.3434         43.0004         38.0004
  21191506.7504  -17035621.38643 -13265507.53242  21191505.7504   21191506.9304
       864.3164        673.4974         56.0004         51.0004
  23339917.0364   -9530618.39943  -7371075.44842  23339914.4544   23339918.2854
     -3716.9054      -2896.3064         48.0004         42.0004
  22455895.0774  -13667854.50143 -10639093.21342  22455893.8374   22455893.3634
      1596.1224       1243.7414         54.0004         46.0004
  21028291.1444  -24446335.71044 -17704204.66942  21028290.3554   21028290.2124
      -979.0954       -762.9294         58.0004         52.0004
  23440696.7974  -10552324.55843  -8209914.42842  23440694.4884   23440696.7164
      3505.4664       2731.5394         49.0004         42.0004
  24905300.9824   -4018564.58843   4461561.73842  24905299.4244   24905300.9644
     -3729.5894      -2906.1734         44.0004         39.0004
  24631371.6664    2672150.07143   2164300.52242  24631371.1864   24631375.2684
     -2965.6804      -2310.9194         44.0004         39.0004
  25052677.5384     555221.97143    435827.13842  25052675.9804   25052677.6124
     -3212.8064      -2503.4834         46.0004         37.0004
  22804975.3314  -12781607.13243  -9943056.84642  22804974.6604   22804974.2444
      -894.0524       -696.6584         52.0004         46.0004
  24081164.7904    2788724.60943   2186758.84442  24081165.0214   24081166.1224
     -3651.6394      -2845.4394         45.0004         39.0004
 08  4 20  0 40  0.0000000  0 12G30G24G29G 5G23G31G16G12G 4G20G 2G 1
  21900961.8084  -19121548.00343  -6510914.23642  21900960.8784   21900961.6714
     -3021.8204      -2354.6664         55.0004         47.0004
  24242374.6744   -4218544.01443  -3272146.82042  24242373.4244   24242377.0124
      3328.7154       2593.8014         44.0004         39.0004
  21186623.0294  -17061285.19644 -13285505.38542  21186622.3984   21186623.2834
       845.7524        659.0314         57.0004         51.0004
  23361148.2504   -9419047.98143  -7284137.50642  23361147.2344   23361149.0414
     -3722.1374      -2900.3704         48.0004         42.0004
  22446835.4804  -13715469.85643 -10676196.07442  22446833.3724   22446832.2024
      1577.3284       1229.0984         54.0004         46.0004
  21033926.0664  -24416717.77744 -17681125.75342  21033925.6604   21033926.2294
      -996.3074       -776.3424         57.0004         51.0004
  23420700.1734  -10657406.71343  -8291796.45742  23420699.2324   23420699.6344
      3499.3284       2726.7334         49.0004         42.0004
  24926596.6564   -3906649.07543   4548768.53642  24926596.5404   24926597.6334
     -3731.8654      -2907.9384         44.0004         40.0004
  24648334.3344    2761278.35143   2233751.12742  24648332.0124   24648333.8014
     -2976.8084      -2319.5964         47.0004         39.0004
  25071037.6144     651706.84643    511010.16942  25071034.7924   25071038.4334
     -3220.5004      -2509.4824         45.0004         38.0004
  22810136.1274  -12754495.38643  -9921930.68642  22810133.2984   22810132.5874
      -914.1034       -712.3074         53.0004         46.0004
  24102026.4624    2898346.16543   2272178.18442  24102025.2994   24102028.2954
     -3657.0864      -2849.6754         45.0004         39.0004
 08  4 20  0 40 30.0000000  0 12G30G24G29G 5G23G31G16G12G 4G20G 2G 1
  21918248.7854  -19030704.83743  -6440127.55042  21918248.1124   21918249.3884
     -3034.1364      -2364.2504         54.0004         47.0004
  24223392.6244   -4318289.26143  -3349870.42042  24223392.1424   24223395.6134
      3321.0384       2587.8234         45.0004         40.0004
  21181850.9264  -17086361.89043 -13305045.69542  21181850.4144   21181851.7434
       826.1574        643.7624         56.0004         51.0004
  23382414.8894   -9307291.40343  -7197054.46142  23382412.9594   23382415.5374
     -3728.2334      -2905.1234         47.0004         41.0004
  22437887.1194  -13762490.65043 -10712835.63342  22437885.5494   22437885.4334
      1557.4614       1213.5924         54.0004         46.0004
  21039666.9034  -24386554.30244 -17657621.70942  21039666.2424   21039666.2134
     -1014.4344       -790.4724         58.0004         52.0004
  23400744.0184  -10762278.92243  -8373514.95142  23400742.6324   23400742.6924
      3492.3254       2721.3104         49.0004         42.0004
  24947910.4174   -3794647.55943   4636042.40142  24947908.8234   24947911.2234
     -3734.6974      -2910.1624         44.0004         39.0004
  24665364.6194    2850765.97643   2303481.69242  24665362.6594   24665364.8364
     -2988.8104      -2328.9354         48.0004         41.0004
  25089447.0244     748446.40443    586391.62942  25089444.8574   25089447.6654
     -3229.0664      -2516.1604         42.0004         38.0004
  22815412.7824  -12726758.61643  -9900317.58842  22815411.5804   22815411.0764
      -934.8484       -728.4604         52.0004         46.0004
  24122923.0844    3008159.11843   2357746.71742  24122921.0084   24122924.4094
     -3663.5984      -2854.7624         46.0004         40.0004
 08  4 20  0 41  0.0000000  0 12G30G24G29G 5G23G31G16G12G 4G20G 2G 1
  21935606.2924  -18939491.39243  -6369052.41042  21935605.4084   21935606.9604
     -3047.1764      -2374.4224         54.0004         47.0004
  24204458.9934   -4417792.27743  -3427405.13842  24204457.7534   24204461.4434
      3312.1244       2580.8724         45.0004         40.0004
  21177190.7074  -17110851.12843 -13324128.25042  21177190.0584   21177191.4634
       806.0064        628.0524         56.0004         51.0004
  23403715.9894   -9195350.83143  -7109828.11542  23403715.2824   23403716.7424
     -3735.0564      -2910.4284         48.0004         42.0004
  22429053.4344  -13808915.04943 -10749010.48842  22429051.3364   22429050.6924
      1536.9614       1197.6364         55.0004         46.0004
  21045510.0484  -24355845.97044 -17633693.06842  21045509.0214   21045509.7714
     -1033.1694       -805.0754         57.0004         51.0004
  23380827.4084  -10866939.55343  -8455068.65542  23380825.3244   23380826.0104
      3484.5364       2715.2154         49.0004         41.0004
  24969239.6184   -3682562.10543   4723381.66842  24969237.6224   24969239.2634
     -3738.0444      -2912.7634         43.0004         38.0004
  24682458.5094    2940610.05843   2373490.04242  24682455.4474   24682457.5314
     -3001.8654      -2339.1274         43.0004         37.0004
  25107902.7064    7147117.83253   5572369.21252  25107898.5644   25107906.8914
     -3237.8344      -2522.9714         38.0004         36.0004
  22820809.6184  -12698398.17443  -9878218.50542  22820808.5744   22820807.4044
      -956.1734       -745.0844         52.0004         45.0004
  24143856.1344    3118160.49443   2443462.08842  24143854.0504   24143856.9164
     -3670.3394      -2860.0114         46.0004         40.0004
 08  4 20  0 41 30.0000000  0 11G30G24G29G 5G23G31G16G12G 4G 2G 1
  21953034.2354  -18847909.11643  -6297689.78242  21953033.1214   21953034.5424
     -3058.8794      -2383.5324         54.0004         47.0004
  24185571.1834   -4517050.02543  -3504748.70942  24185570.0284   24185572.6114
      3304.4544       2574.9054         45.0004         39.0004
  21172643.2054  -17134751.25144 -13342751.70942  21172642.2144   21172643.4494
       786.8204        613.1084         57.0004         51.0004
  23425053.3264   -9083227.64043  -7022459.41842  23425051.3214   23425053.4554
     -3740.6254      -2914.7764         49.0004         42.0004
  22420332.3254  -13854740.57143 -10784718.70442  22420330.7694   22420329.4414
      1517.5614       1182.5104         53.0004         46.0004
  21051457.1194  -24324592.96344 -17609340.01142  21051456.5594   21051456.7794
     -1050.9144       -818.8934         57.0004         51.0004
  23360952.4944  -10971385.76743  -8536455.30942  23360950.0944   23360950.2934
      3478.0204       2710.1334         49.0004         42.0004
  24990584.0944   -3570393.48243   4810785.69342  24990584.2934   24990585.9434
     -3740.4854      -2914.6654         44.0004         39.0004
  24699623.0654    3030808.61743   2443774.60742  24699623.6994   24699625.9904
     -3012.4064      -2347.3334         45.0004         40.0004
  22826324.8824  -12669414.66643  -9855633.93942  22826322.9274   22826323.3364
      -976.5284       -760.9264         52.0004         45.0004
  24164823.2414    3228348.37043   2529322.87642  24164821.5974   24164824.9954
     -3675.9944      -2864.4214         46.0004         40.0004
 08  4 20  0 42  0.0000000  0 12G30G24G29G 5G23G31G16G12G 4G20G 2G 1
  21970531.1854  -18755959.86743  -6226041.17542  21970530.4424   21970532.3054
     -3071.0214      -2393.0014         54.0004         47.0004
  24166730.8954   -4616058.59143  -3581898.04742  24166729.3344   24166732.5444
      3295.8844       2568.2184         45.0004         39.0004
  21168206.6244  -17158061.27343 -13360915.38342  21168206.2734   21168207.8254
       767.2144        597.8334         56.0004         51.0004
  23446424.2264   -8970923.39743  -6934949.54242  23446423.1614   23446424.4184
     -3746.6054      -2919.4274         48.0004         42.0004
  22411726.2744  -13899965.07643 -10819958.54242  22411724.6284   22411724.1864
      1497.5144       1166.8854         54.0004         46.0004
  21057508.3894  -24292795.89944 -17584563.05642  21057507.4444   21057507.9144
     -1068.8934       -832.9034         58.0004         52.0004
  23341117.9304  -11075615.32543  -8617673.16642  23341116.8464   23341116.7314
      3470.6924       2704.4404         49.0004         42.0004
  25011944.6294   -3458143.01343   4898253.55942  25011944.4294   25011946.1524
     -3742.7534      -2916.4294         46.0004         40.0004
  24716855.9784    3121359.42043   2514333.54342  24716854.5794   24716854.8614
     -3024.1584      -2356.4774         46.0004         38.0004
  25144960.5304    -279031.23743   -233386.16142  25144958.5614   25144960.7454
     -3253.5134      -2535.2104         44.0004         36.0004
  22831957.6604  -12639808.22743  -9832563.97842  22831957.2224   22831956.6434
      -997.0594       -776.9444         52.0004         45.0004
  24185826.6704    3338720.06543   2615326.74642  24185825.7034   24185828.3434
     -3681.9684      -2869.0734         46.0004         40.0004
 08  4 20  0 42 30.0000000  0 12G30G24G29G 5G23G31G16G12G 4G20G 2G 1
  21988097.4324  -18663648.79843  -6154110.53742  21988096.2444   21988098.1254
     -3082.9954      -2402.3324         53.0004         47.0004
  24147935.8954   -4714818.72143  -3658853.90142  24147934.7994   24147938.7394
      3287.6604       2561.8064         45.0004         39.0004
  21163883.3254  -17180783.89344 -13378621.29042  21163882.0984   21163883.6364
       747.5924        582.5344         57.0004         51.0004
  23467828.6784   -8858443.62143  -6847303.01342  23467826.6234   23467828.8274
     -3752.2844      -2923.8564         49.0004         42.0004
  22403235.0894  -13944589.82743 -10854731.09442  22403233.4924   22403231.8344
      1477.5034       1151.2944         54.0004         46.0004
  21063661.1414  -24260458.31944 -17559364.89042  21063660.3664   21063661.6064
     -1086.8484       -846.8954         57.0004         51.0004
  23321324.5154  -11179629.33643  -8698723.04742  23321323.1074   23321323.4544
      3463.5744       2698.8764         50.0004         42.0004
  25033320.6404   -3345815.80243   4985781.24442  25033319.4374   25033321.5294
     -3745.4964      -2918.5704         46.0004         40.0004
  24734151.9824    3212256.20943   2585162.21542  24734149.7534   24734153.9774
     -3035.6884      -2365.4684         44.0004         40.0004
  25163557.7954    -181302.28543   -157233.62142  25163556.4744   25163556.6184
     -3261.2944      -2541.2764         47.0004         36.0004
  22837708.3144  -12609583.23643  -9809012.14742  22837708.6934   22837709.1174
     -1017.8104       -793.1034         51.0004         45.0004
  24206863.1554    3449270.04243   2701469.54942  24206860.6604   24206864.1574
     -3687.9964      -2873.7714         47.0004         40.0004
 08  4 20  0 43  0.0000000  0 11G30G24G29G 5G23G31G16G12G 4G 2G 1
  22005733.0874  -18570973.78043  -6081896.23142  22005732.2144   22005733.7314
     -3095.1314      -2411.7864         54.0004         47.0004
  24129192.1114   -4813323.20043  -3735610.58142  24129190.9474   24129194.3294
      3279.6644       2555.5784         46.0004         40.0004
  21159672.1184  -17202914.30244 -13395865.73742  21159671.2924   21159672.4214
       728.0154        567.2834         57.0004         51.0004
  23489266.7234   -8745785.62743  -6759517.44742  23489263.3134   23489266.3224
     -3758.0694      -2928.4024         49.0004         41.0004
  22394857.1854  -13988609.06943 -10889031.76642  22394856.1114   22394855.8744
      1457.3444       1135.5904         53.0004         46.0004
  21069919.7394  -24227576.24244 -17533742.39742  21069918.6424   21069918.3004
     -1104.8624       -860.9324         58.0004         51.0004
  23301573.7164  -11283421.70443  -8779600.29142  23301571.8334   23301572.8074
      3456.2374       2693.1774         50.0004         42.0004
  25054710.4224   -3233408.99243   5073370.89642  25054710.5544   25054711.1504
     -3747.9694      -2920.4944         44.0004         39.0004
  24751516.7724    3303501.12443   2656261.99242  24751515.1394   24751515.0594
     -3047.3984      -2374.6094         46.0004         38.0004
  22843579.8404  -12578736.13043  -9784975.38642  22843579.2274   22843579.0944
     -1038.3394       -809.0864         51.0004         45.0004
  24227934.2194    3559999.73643   2787752.50642  24227932.5534   24227936.0314
     -3693.7194      -2878.2244         46.0004         40.0004
 08  4 20  0 43 30.0000000  0 11G30G24G29G 5G23G31G16G12G 4G 2G 1
  22023437.9814  -18477934.17643  -6009397.80742  22023436.9534   22023438.9614
     -3106.4954      -2420.6474         54.0004         47.0004
  24110497.2794   -4911566.01643  -3812163.37542  24110496.5744   24110499.5144
      3271.3604       2549.1104         47.0004         40.0004
  21155574.4104  -17224448.71444 -13412645.72942  21155573.2994   21155574.2134
       708.7554        552.2784         57.0004         51.0004
  23510739.1124   -8632948.75743  -6671592.62042  23510736.9984   23510739.1694
     -3763.4294      -2932.5514         49.0004         42.0004
  22386597.2994  -14032017.83943 -10922856.80542  22386595.7734   22386595.2494
      1437.6124       1120.2144         53.0004         46.0004
  21076279.5504  -24194147.81544 -17507694.22342  21076278.7004   21076279.7014
     -1122.5064       -874.6774         57.0004         51.0004
  23281865.5084  -11386987.23943  -8860300.77742  23281865.2144   23281865.1864
      3449.2334       2687.7284         49.0004         42.0004
  25076116.5014   -3120920.95043   5161023.88942  25076115.8784   25076117.4514
     -3750.1464      -2922.1974         43.0004         37.0004
  24768944.2104    3395094.32143   2727633.26142  24768943.5354   24768948.6374
     -3058.0654      -2382.8904         41.0004         37.0004
  22849568.9614  -12547265.25043  -9760452.62142  22849567.6274   22849567.1044
     -1058.4874       -824.8004         51.0004         45.0004
  24249039.8264    3670909.54643   2874175.68142  24249038.2464   24249041.1244
     -3699.2584      -2882.5474         46.0004         40.0004
 08  4 20  0 44  0.0000000  0 11G30G24G29G 5G23G31G16G12G 4G 2G 1
  22041209.6124  -18384544.42543  -5936626.57442  22041208.4844   22041210.4454
     -3119.1044      -2430.4764         54.0004         47.0004
  24091850.6534   -5009556.31843  -3888519.42242  24091848.9634   24091853.0784
      3261.9584       2541.7784         48.0004         40.0004
  21151587.4604  -17245398.87344 -13428970.48642  21151586.4744   21151587.4934
       688.3764        536.3954         57.0004         51.0004
  23532242.4684   -8519947.20143  -6583539.47142  23532242.0424   23532242.2604
     -3769.6264      -2937.3564         48.0004         42.0004
  22378451.0814  -14074826.51843 -10956214.22942  22378449.7694   22378449.0974
      1416.7554       1103.9634         53.0004         46.0004
  21082743.2934  -24160185.98544 -17481230.42042  21082742.3314   21082742.4074
     -1141.1874       -889.2414         58.0004         52.0004
  23262199.2444  -11490335.85043  -8940832.14742  23262197.8004   23262197.5664
      3440.9344       2681.2624         49.0004         42.0004
  25097535.7214   -3008365.82043   5248729.20042  25097533.6624   25097536.9204
     -3753.1844      -2924.5494         41.0004         35.0004
  24786439.5304    3487020.58043   2799264.00942  24786437.0834   24786439.4824
     -3069.7354      -2391.9944         44.0004         38.0004
  22855672.0104  -12515183.59043  -9735453.91342  22855672.1954   22855672.7084
     -1079.8844       -841.4854         51.0004         45.0004
  24270176.9744    3781984.56843   2960727.62042  24270175.3604   24270177.7904
     -3705.6684      -2887.5394         45.0004         39.0004
 08  4 20  0 44 30.0000000  0 11G30G24G29G 5G23G31G16G12G 4G 2G 1
  22059048.6294  -18290798.42143  -5863577.64542  22059047.6034   22059048.8484
     -3130.8954      -2439.6624         53.0004         47.0004
  24073253.3424   -5107283.53843  -3964670.59342  24073252.1524   24073254.4814
      3253.0144       2534.8234         46.0004         40.0004
  21147713.4284  -17265756.19344 -13444833.28442  21147712.4644   21147713.4504
       668.5424        520.9404         57.0004         51.0004
  23553777.6314   -8406775.12243  -6495353.50442  23553776.0694   23553778.2134
     -3775.2944      -2941.7524         48.0004         42.0004
  22370420.4834  -14117025.30843 -10989096.37642  22370419.4804   22370419.4394
      1396.3974       1088.1114         54.0004         46.0004
  21089307.8654  -24125683.43044 -17454345.24242  21089307.3454   21089307.7124
     -1159.1944       -903.2724         57.0004         51.0004
  23242575.2354  -11593457.68643  -9021186.80442  23242574.9074   23242574.8444
      3433.4314       2675.4144         50.0004         42.0004
  25118967.9414   -2895737.20543   5336491.71942  25118966.6024   25118970.4464
     -3755.8774      -2926.6494         39.0004         33.0004
  24803996.9334    3579285.57643   2871158.75542  24803995.1634   24803997.8744
     -3081.3074      -2401.0144         46.0004         38.0004
  22861895.7634  -12482484.61843  -9709974.14342  22861894.5714   22861894.8054
     -1100.3664       -857.4304         51.0004         45.0004
  24291345.8634    3893230.11143   3047412.40542  24291344.0054   24291345.7624
     -3711.3404      -2891.9754         45.0004         39.0004
 08  4 20  0 45  0.0000000  0 11G30G24G29G 5G23G31G16G12G 4G 2G 1
  22076954.9784  -18196699.21543  -5790253.52742  22076953.9424   22076955.6344
     -3142.5054      -2448.7034         53.0004         46.0004
  24054706.8704   -5204743.97143  -4040613.79142  24054705.6354   24054709.6264
      3244.1604       2527.9204         46.0004         40.0004
  21143952.6254  -17285520.03444 -13460233.64142  21143951.5714   21143952.5894
       649.0364        505.7444         57.0004         51.0004
  23575345.3774   -8293434.55343  -6407036.36942  23575344.0094   23575346.2684
     -3780.7124      -2946.0064         48.0004         41.0004
  22362507.3144  -14158612.56943 -11021502.02342  22362506.2694   22362505.6114
      1376.1024       1072.2974         54.0004         47.0004
  21095976.5704  -24090641.01044 -17427039.43042  21095975.9744   21095976.4394
     -1176.9224       -917.0774         57.0004         52.0004
  23222996.1694  -11696351.07343  -9101363.39042  23222994.8224   23222994.9304
      3426.0244       2669.6094         50.0004         43.0004
  25140415.106    12789910.32852                                  25140418.7404
                     -2927.7494         36.000          31.0004
  24821615.3844    3671886.03443   2943314.94442  24821614.3834   24821617.7644
     -3092.3144      -2409.5914         42.0004         36.0004
  22868233.6734  -12449169.18043  -9684014.07342  22868235.0924   22868234.0484
     -1120.7854       -873.3294         51.0004         45.0004
  24312547.0524    4004643.37943   3134227.87542  24312545.2724   24312548.0854
     -3716.3884      -2895.8714         45.0004         38.0004
 08  4 20  0 45 30.0000000  0 10G30G24G29G 5G23G31G16G 4G 2G 1
  22094927.5854  -18102250.51443  -5716657.05242  22094926.3564   22094928.4714
     -3153.9354      -2457.6134         53.0004         46.0004
  24036211.8984   -5301936.86843  -4116348.42642  24036210.3134   24036212.6134
      3235.7054       2521.3274         46.0004         40.0004
  21140303.8214  -17304692.16644 -13475172.89542  21140303.1204   21140304.2154
       629.3234        490.3834         57.0004         51.0004
  23596944.5674   -8179929.26243  -6318590.72942  23596942.4274   23596945.0384
     -3786.3584      -2950.4344         47.0004         41.0004
  22354709.4774  -14199589.03943 -11053431.73142  22354708.5104   22354707.7184
      1355.8194       1056.4684         53.0004         46.0004
  21102747.4544  -24055061.47744 -17399315.11342  21102746.7294   21102746.9204
     -1194.6914       -930.9224         58.0004         52.0004
  23203459.0764  -11799016.30643  -9181362.25042  23203457.9714   23203459.3804
      3418.4924       2663.7564         50.0004         43.0004
  24839301.0854    3764817.78443   3015729.45242  24839300.3914   24839304.3154
     -3103.1024      -2417.9924         45.0004         38.0004
  22874693.5954  -12415240.63843  -9657576.23342  22874691.1604   22874690.4594
     -1140.9974       -889.0804         52.0004         45.0004
  24333779.5164    4116219.57743   3221170.27442  24333778.2144   24333782.6874
     -3721.7674      -2900.0874         45.0004         39.0004
 08  4 20  0 46  0.0000000  0 10G30G24G29G 5G23G31G16G 4G 2G 1
  22112966.6934  -18007452.98543  -5642788.83042  22112966.5914   22112968.3564
     -3165.5224      -2466.6414         53.0004         46.0004
  24017768.5444   -5398857.93043  -4191871.25842  24017766.7304   24017770.0344
      3226.4574       2514.1274         47.0004         40.0004
  21136768.7574  -17323271.03844 -13489649.90142  21136767.7414   21136768.6864
       609.6834        475.0824         57.0004         51.0004
  23618575.4224   -8066259.56843  -6230016.88442  23618572.1634   23618575.4804
     -3791.6754      -2954.5444         47.0004         40.0004
  22347029.2074  -14239951.23943 -11084882.76442  22347028.0864   22347027.2984
      1335.3604       1040.5324         54.0004         46.0004
  21109619.7244  -24018944.08944 -17371171.80242  21109619.3304   21109619.5614
     -1212.6134       -944.8884         57.0004         51.0004
  23183966.3144  -11901449.43543  -9261180.24642  23183965.8064   23183966.8964
      3410.7544       2657.7274         50.0004         43.0004
  24857048.3574    3858079.36543   3088400.71442  24857047.9044   24857049.6174
     -3113.9994      -2426.4954         46.0004         38.0004
  22881265.8144  -12380698.63543  -9630660.40342  22881264.1644   22881263.6774
     -1161.2924       -904.8974         51.0004         45.0004
  24355042.3674    4227957.73343   3308238.92142  24355041.9744   24355045.8114
     -3727.0164      -2904.1624         44.0004         38.0004
 08  4 20  0 46 30.0000000  0 10G30G24G29G 5G23G31G16G 4G 2G 1
  22131072.1014  -17912310.28843  -5568651.69342  22131071.6324   22131073.1764
     -3178.0114      -2476.3624         53.0004         46.0004
  23999376.6994   -5495505.99443  -4267181.38642  23999375.6754   23999378.2244
      3216.2234       2506.1504         47.0004         41.0004
  21133346.1664  -17341256.59144 -13503664.61942  21133345.2214   21133346.2974
       588.8534        458.8504         57.0004         51.0004
  23640236.6044   -7952429.51243  -6141318.19842  23640234.8704   23640237.8514
     -3797.9684      -2959.4564         47.0004         40.0004
  22339465.5434  -14279699.16143 -11115855.15642  22339463.4964   22339463.1054
      1313.8094       1023.7444         54.0004         46.0004
  21116595.0224  -23982291.16644 -17342611.11942  21116594.3024   21116594.9104
     -1231.4724       -959.5924         57.0004         51.0004
  23164518.5194  -12003649.93143  -9340816.97342  23164518.0354   23164518.2234
      3402.0884       2650.9774         50.0004         43.0004
  24874857.5384    3951666.31643   3161325.74142  24874854.5874   24874858.6534
     -3125.9124      -2435.7754         44.0004         39.0004
  22887953.3874  -12345545.68943  -9603268.54642  22887954.2484   22887952.8574
     -1182.8004       -921.6604         51.0004         45.0004
  24376335.8294    4339853.62043   3395430.47342  24376334.9364   24376339.9744
     -3733.2234      -2909.0104         44.0004         38.0004
 08  4 20  0 47  0.0000000  0 10G30G24G29G 5G23G31G16G 4G 2G 1
  22149242.6434  -17816826.51543  -5494248.75742  22149241.6944   22149242.7634
     -3188.7254      -2484.7254         53.0004         46.0004
  23981037.5874   -5591879.47843  -4342277.55842  23981036.5234   23981038.1544
      3207.5374       2499.3794         47.0004         41.0004
  21130036.1514  -17358650.54944 -13517218.36942  21130035.2024   21130036.4324
       569.7374        443.9544         57.0004         51.0004
  23661928.0204   -7838442.35243  -6052497.07142  23661926.2374   23661929.0244
     -3802.2664      -2962.8184         47.0004         40.0004
  22332017.9794  -14318833.01943 -11146349.06542  22332016.9644   22332016.1934
      1293.9934       1008.3154         54.0004         46.0004
  21123670.7484  -23945104.82644 -17313634.73942  21123670.1994   21123670.8604
     -1248.5824       -972.9164         57.0004         51.0004
  23145115.5454  -12105617.49643  -9420272.15742  23145113.3974   23145114.6614
      3394.9444       2645.3984         50.0004         43.0004
  24892728.5804    4045574.50043   3234500.80942  24892727.0454   24892728.7124
     -3135.6184      -2443.3284         45.0004         38.0004
  22894762.7984  -12309784.76243  -9575402.89642  22894758.7764   22894758.6184
     -1202.4844       -936.9904         52.0004         45.0004
  24397658.7154    4451902.77643   3482741.42942  24397657.6704   24397659.9404
     -3737.8624      -2912.6144         44.0004         38.0004
 08  4 20  0 47 30.0000000  0 10G30G24G29G 5G23G31G16G 4G 2G 1
  22167477.6594  -17721000.41843  -5419579.05642  22167476.4364   22167478.0054
     -3199.9204      -2493.4424         53.0004         46.0004
  23962751.2784   -5687972.08743  -4417154.89842  23962750.3844   23962752.8574
      3198.2354       2492.1364         46.0004         40.0004
  21126839.5894  -17375449.05644 -13530308.12242  21126838.5824   21126839.6424
       549.9054        428.4944         57.0004         51.0004
  23683648.9614   -7724296.70043  -5963552.43442  23683647.5434   23683650.7184
     -3807.5974      -2966.9404         47.0004         41.0004
  22324688.6634  -14357347.64643 -11176360.47442  22324688.2024   22324687.4014
      1273.3284        992.1964         54.0004         46.0004
  21130849.9804  -23907382.55644 -17284240.76142  21130849.1444   21130848.8544
     -1266.4404       -986.8414         58.0004         51.0004
  23125756.0784  -12207346.82843  -9499541.69342  23125754.3834   23125755.9714
      3386.8864       2639.1034         50.0004         43.0004
  24910659.3284    4139804.53643   3307926.94542  24910657.1734   24910661.0074
     -3146.6064      -2451.8984         46.0004         39.0004
  22901681.2134  -12273413.49243  -9547061.69442  22901680.5244   22901679.8614
     -1222.6184       -952.6754         51.0004         45.0004
  24419009.9404    4564106.29043   3570172.74342  24419009.4424   24419010.9004
     -3742.6554      -2916.3444         44.0004         37.0004
 08  4 20  0 48  0.0000000  0 10G30G24G29G 5G23G31G16G 4G 2G 1
  22185776.7224  -17624834.33743  -5344644.49242  22185776.0814   22185777.9704
     -3210.7834      -2501.9114         53.0004         46.0004
  23944519.0194   -5783780.90743  -4491811.00542  23944517.5364   23944521.8694
      3189.1854       2485.0824         44.0004         39.0004
  21123755.9414  -17391651.85844 -13542933.70242  21123755.1614   21123756.6004
       530.7114        413.5404         57.0004         51.0004
  23705399.8074   -7609994.78643  -5874486.00642  23705398.6674   23705400.5884
     -3812.1844      -2970.5434         47.0004         41.0004
  22317478.8884  -14395241.58943 -11205888.23842  22317477.2184   22317476.0744
      1253.3654        976.6584         54.0004         46.0004
  21138129.6334  -23869125.92844 -17254430.41142  21138128.7794   21138129.2154
     -1283.5264      -1000.1534         57.0004         51.0004
  23106443.7324  -12308835.88543  -9578624.01342  23106441.6674   23106441.7184
      3379.4494       2633.3354         50.0004         43.0004
  24928650.7494    4234353.55243   3381601.48642  24928650.2304   24928652.2984
     -3156.3384      -2459.4864         47.0004         38.0004
  22908720.5694  -12236433.39943  -9518246.08142  22908717.7024   22908716.2454
     -1242.1014       -967.8714         53.0004         45.0004
  24440390.1604    4676461.15443   3657722.04842  24440388.8704   24440391.2454
     -3747.3364      -2919.9924         44.0004         37.0004
 08  4 20  0 48 30.0000000  0 10G30G24G29G 5G23G31G16G 4G 2G 1
  22204140.8524  -17528331.91943  -5269447.73542  22204140.6114   22204141.5074
     -3222.3884      -2510.9594         53.0004         46.0004
  23926340.5754   -5879304.84643  -4566245.09942  23926339.3104   23926344.7564
      3179.0104       2477.1474         44.0004         39.0004
  21120785.0824  -17407260.30943 -13555096.09742  21120784.4004   21120786.3084
       510.2454        397.5854         56.0004         51.0004
  23727179.7234   -7495540.52843  -5785300.92842  23727177.9844   23727181.0404
     -3817.7074      -2974.8414         48.0004         42.0004
  22310386.4364  -14432515.05543 -11234932.50942  22310384.0124   22310382.5764
      1231.9724        959.9754         54.0004         46.0004
  21145511.0144  -23830336.82444 -17224205.15242  21145510.3154   21145510.4094
     -1301.8964      -1014.4684         57.0004         51.0004
  23087176.8004  -12410084.74543  -9657519.19442  23087174.6404   23087175.4114
      3370.8644       2626.6414         50.0004         43.0004
  24946703.4984    4329216.78243   3455521.02042  24946702.7094   24946704.6254
     -3167.6784      -2468.3224         44.0004         38.0004
  22915871.7804  -12198847.59843  -9488958.47142  22915870.3674   22915869.2824
     -1262.8374       -984.0244         51.0004         45.0004
  24461798.1384    4788962.67843   3745385.43642  24461796.5524   24461801.0134
     -3752.8054      -2924.2604         43.0004         37.0004
 08  4 20  0 49  0.0000000  0 10G30G24G29G 5G23G31G16G 4G 2G 1
  22222568.1754  -17431494.93543  -5193990.17542  22222567.3294   22222568.6944
     -3233.1014      -2519.3044         53.0004         46.0004
  23908218.9874   -5974540.65343  -4640454.73042  23908218.0144   23908220.2804
      3170.0394       2470.1534         45.0004         39.0004
  21117928.5224  -17422273.29243 -13566794.48142  21117927.9474   21117929.5484
       490.8714        382.5004         56.0004         51.0004
  23748988.7084   -7380935.00343  -5695997.88942  23748987.1294   23748989.9034
     -3822.3364      -2978.4354         48.0004         42.0004
  22303410.7194  -14469165.95443 -11263491.62842  22303409.3684   22303409.3644
      1211.7144        944.1894         54.0004         46.0004
  21152994.0574  -23791015.92744 -17193565.43742  21152993.0594   21152992.7354
     -1319.0884      -1027.8564         58.0004         51.0004
  23067956.0574  -12511090.77243  -9736225.16042  23067954.3514   23067955.4024
      3363.1014       2620.6224         50.0004         43.0004
  24964813.5934    4424392.53043   3529683.80942  24964812.7334   24964816.0344
     -3176.9314      -2475.5254         41.0004         37.0004
  22923138.1134  -12160656.77143  -9459199.44642  22923136.9994   22923136.5194
     -1282.6494       -999.4584         52.0004         45.0004
  24483234.0554    4901609.04743   3833161.66642  24483233.7444   24483235.2794
     -3756.8844      -2927.4494         44.0004         38.0004
 08  4 20  0 49 30.0000000  0 10G30G24G29G 5G23G31G16G 4G 2G 1
  22241057.7874  -17334329.88843  -5118276.98842  22241056.6534   22241058.1154
     -3244.5144      -2528.1964         53.0004         46.0004
  23890149.8544   -6069489.25043  -4714440.64042  23890149.9324   23890153.1154
      3159.9744       2462.3114         46.0004         39.0004
  21115184.5314  -17436694.70944 -13578031.90342  21115183.8004   21115185.1164
       470.5724        366.6764         57.0004         51.0004
  23770825.0024   -7266184.52743  -5606582.02742  23770824.3924   23770825.9214
     -3827.6894      -2982.6154         48.0004         41.0004
  22296553.6284  -14505196.63543 -11291567.49642  22296553.0304   22296552.3074
      1190.4074        927.6024         54.0004         46.0004
  21160575.7364  -23751168.00444 -17162515.05642  21160575.2464   21160575.9594
     -1337.2444      -1042.0084         57.0004         51.0004
  23048780.6574  -12611855.95443  -9814743.50542  23048777.6004   23048779.7294
      3354.7774       2614.1294         50.0004         43.0004
  24982984.4444    4519873.87643   3604084.83742  24982982.7694   24982983.6674
     -3188.0384      -2484.1874         42.0004         38.0004
  22930520.8834  -12121866.18443  -9428973.01842  22930517.8534   22930518.5324
     -1303.3404      -1015.5994         51.0004         45.0004
  24504696.4224    5014393.98343   3921046.09842  24504695.0684   24504698.1794
     -3762.1004      -2931.5104         44.0004         38.0004
 08  4 20  0 50  0.0000000  0 10G30G24G29G 5G23G31G16G 4G 2G 1
  22259611.6754  -17236829.10843  -5042302.25542  22259610.9124   22259612.3074
     -3255.5054      -2536.7544         53.0004         46.0004
  23872139.9264   -6164137.82443  -4788192.77242  23872137.8024   23872142.5464
      3150.0704       2454.5964         46.0004         41.0004
  21112555.0524  -17450514.28244 -13588800.36042  21112554.0254   21112555.3844
       450.5984        351.1144         57.0004         51.0004
  23792690.0074   -7151280.87843  -5517046.73942  23792688.5754   23792691.0684
     -3832.8134      -2986.6354         47.0004         41.0004
  22289817.4034  -14540595.94943 -11319151.38742  22289816.6854   22289816.2184
      1169.3904        911.1984         53.0004         46.0004
  21168261.4134  -23710784.27444 -17131047.16142  21168260.5584   21168260.7914
     -1355.0794      -1055.9104         58.0004         51.0004
  23029654.1604  -12712368.26743  -9893064.79742  23029652.0844   23029652.8824
      3346.1754       2607.4334         50.0004         43.0004
  25001211.3194    4615667.86543   3678729.47342  25001212.1834   25001214.5674
     -3198.4244      -2492.2754         42.0004         37.0004
  22938013.3894  -12082467.10743  -9398272.50642  22938015.9964   22938015.9794
     -1323.3364      -1031.1754         50.0004         45.0004
  24526186.9124    5127323.82143   4009043.33242  24526185.2134   24526188.9084
     -3766.8184      -2935.1774         46.0004         39.0004
 08  4 20  0 50 30.0000000  0 10G30G24G29G 5G23G31G16G 4G 2G 1
  22278227.2584  -17139004.90143  -4966075.52142  22278226.4094   22278227.7134
     -3265.9754      -2544.9134         53.0004         46.0004
  23854184.2554   -6258493.62143  -4861716.66742  23854183.5384   23854186.3014
      3140.3534       2447.0304         47.0004         41.0004
  21110037.5664  -17463742.06344 -13599107.65342  21110036.6864   21110037.9854
       431.1164        335.9304         57.0004         51.0004
  23814582.5284   -7036236.37543  -5427401.64442  23814580.9794   23814583.1824
     -3837.0284      -2989.8854         46.0004         40.0004
  22283200.7274  -14575372.63643 -11346250.12642  22283199.0514   22283198.4134
      1148.9894        895.3084         53.0004         47.0004
  21176045.2864  -23669875.79544 -17099170.35742  21176044.6614   21176044.6624
     -1372.1854      -1069.2374         57.0004         51.0004
  23010573.3174  -12812635.99643  -9971195.49842  23010570.9064   23010572.1124
      3338.2414       2601.2094         50.0004         43.0004
  25019497.6324    4711761.31143   3753607.41242  25019497.3854   25019500.0544
     -3208.0774      -2499.8024         44.0004         38.0004
  22945630.7854  -12042471.62843  -9367107.23042  22945627.2824   22945626.9544
     -1343.0024      -1046.4874         52.0004         45.0004
  24547701.9274    5240385.20443   4097142.57842  24547700.4134   24547703.2884
     -3770.7524      -2938.2254         45.0004         39.0004
 08  4 20  0 51  0.0000000  0 10G30G24G29G 5G23G31G16G 4G 2G 1
  22296904.8844  -17040853.05843  -4889593.53442  22296903.9014   22296905.3454
     -3277.3184      -2553.7424         53.0004         46.0004
  23836287.1474   -6352547.08843  -4935005.01542  23836285.7714   23836288.8094
      3129.7044       2438.7374         48.0004         42.0004
  21107634.0004  -17476370.46444 -13608947.89642  21107633.4524   21107634.7604
       410.8004        320.1094         57.0004         51.0004
  23836501.8604   -6921046.39843  -5337643.24742  23836500.5104   23836503.0034
     -3842.2294      -2993.9524         46.0004         40.0004
  22276702.2674  -14609518.62143 -11372857.37642  22276700.8224   22276700.8394
      1127.5284        878.5974         54.0004         46.0004
  21183931.3224  -23628436.79144 -17066880.16242  21183930.6504   21183930.7114
     -1390.3464      -1083.3814         57.0004         51.0004
  22991541.3784  -12912650.50643 -10049128.88542  22991539.4764   22991539.8864
      3329.3314       2594.2954         50.0004         43.0004
  25037841.3544    4808158.47343   3828722.00742  25037841.0744   25037843.5514
     -3218.5734      -2507.9804         45.0004         39.0004
  22953353.0674  -12001873.95443  -9335472.71842  22953352.7344   22953353.2494
     -1363.3774      -1062.3514         50.0004         45.0004
  24569243.2634    5353583.80643   4185349.15842  24569242.1664   24569244.1844
     -3775.7044      -2942.1034         45.0004         38.0004
 08  4 20  0 51 30.0000000  0 10G30G24G29G 5G23G31G16G 4G 2G 1
  22315643.6384  -16942381.28543  -4812862.25942  22315642.4824   22315643.2234
     -3287.6354      -2561.8014         53.0004         46.0004
  23818445.4784   -6446300.92843  -5008059.88342  23818444.1984   23818448.0384
      3120.2154       2431.3424         47.0004         42.0004
  21105343.8464  -17488405.47044 -13618325.77342  21105343.2324   21105344.6394
       391.4344        305.0114         57.0004         51.0004
  23858448.0054   -6805718.51443  -5247777.37442  23858445.5104   23858450.3124
     -3846.2704      -2997.0784         46.0004         40.0004
  22270323.2804  -14643038.26643 -11398976.61142  22270322.4514   22270322.5734
      1106.9344        862.5354         54.0004         47.0004
  21191916.5984  -23586473.86844 -17034181.72842  21191915.6274   21191916.1114
     -1407.3664      -1096.6534         57.0004         51.0004
  22972556.9714  -13012415.43443 -10126867.79842  22972554.7174   22972556.5164
      3321.4764       2588.1724         51.0004         43.0004
  25056241.7694    4904851.04343   3904066.85942  25056241.5194   25056243.3384
     -3227.7914      -2515.1724         44.0004         37.0004
  22961193.3814  -11960681.46043  -9303374.71042  22961190.5444   22961190.8784
     -1382.8234      -1077.5294         51.0004         45.0004
  24590808.8274    5466910.71743   4273655.88742  24590806.7724   24590809.9064
     -3779.4924      -2945.0674         44.0004         38.0004
 08  4 20  0 52  0.0000000  0 10G30G24G29G 5G23G31G16G 4G 2G 1
  22334443.1094  -16843586.88543  -4735879.62042  22334442.4604   22334442.9454
     -3298.4204      -2570.2034         52.0004         45.0004
  23800663.7304   -6539747.16743  -5080875.09442  23800662.3074   23800667.0244
      3109.7934       2423.2024         48.0004         42.0004
  21103167.7414  -17499841.56544 -13627236.97842  21103167.2364   21103168.3204
       371.3224        289.3464         57.0004         51.0004
  23880421.6214   -6690249.43743  -5157801.45142  23880418.6184   23880422.6154
     -3851.0294      -3000.8034         47.0004         40.0004
  22264067.0774  -14675924.77543 -11424602.48742  22264064.9914   22264064.1554
      1085.6894        846.0064         54.0004         47.0004
  21200001.8664  -23543982.69044 -17001071.68442  21200001.3584   21200001.4124
     -1425.0064      -1110.3934         57.0004         51.0004
  22953619.9114  -13111923.90943 -10204406.88842  22953619.0184   22953620.3814
      3312.7074       2581.3334         50.0004         43.0004
  25074697.9944    5001841.18743   3979643.56042  25074697.4474   25074701.3934
     -3237.8974      -2523.0304         41.0004         35.0004
  22969145.1094  -11918890.31843  -9270810.21642  22969144.0824   22969143.4024
     -1402.8324      -1093.1194         51.0004         45.0004
  24612398.4754    5580368.32843   4362064.58642  24612397.1604   24612400.2214
     -3784.2434      -2948.7764         44.0004         38.0004
 08  4 20  0 52 30.0000000  0 10G30G24G29G 5G23G31G16G 4G 2G 1
  22353303.2104  -16744475.67043  -4658650.09842  22353302.8624   22353303.2764
     -3308.7754      -2578.2624         52.0004         45.0004
  23782939.0254   -6632886.79143  -5153451.36442  23782937.9684   23782942.0954
      3099.6034       2415.2784         47.0004         41.0004
  21101104.7724  -17510682.63344 -13635684.54542  21101104.0184   21101105.3214
       351.6274        273.9984         57.0004         51.0004
  23902420.6044   -6574645.39243  -5067720.38942  23902419.0904   23902421.6244
     -3855.5864      -3004.3564         47.0004         40.0004
  22257927.2114  -14708180.79043 -11449737.00142  22257926.7454   22257926.1254
      1064.7834        829.7094         54.0004         47.0004
  21208187.4544  -23500968.69744 -16967554.26242  21208186.5864   21208186.5184
     -1442.3424      -1123.9024         57.0004         51.0004
  22934732.5844  -13211177.86443 -10281747.64442  22934731.2494   22934732.2734
      3304.2794       2574.7554         50.0004         43.0004
  25093207.5704    9825382.08143   7738246.78742  25093208.1524   25093217.7704
     -3247.1504      -2530.2454         38.0004         33.0004
  22977211.4614  -11876505.95343  -9237783.46542  22977209.7924   22977209.4494
     -1422.4464      -1108.3934         51.0004         45.0004
  24634012.4004    5693949.50243   4450569.50042  24634012.0544   24634014.2424
     -3788.3694      -2951.9814         44.0004         38.0004
 08  4 20  0 53  0.0000000  0  9G30G24G29G 5G23G31G16G 2G 1
  22372224.6684  -16645045.88143  -4581172.36042  22372223.9594   22372225.1534
     -3320.0744      -2587.0754         52.0004         46.0004
  23765275.0454   -6725713.14843  -5225783.55142  23765273.4774   23765277.2804
      3088.4174       2406.5284         46.0004         41.0004
  21099156.2374  -17520924.39644 -13643665.12942  21099154.9834   21099156.5554
       330.9834        257.9024         57.0004         51.0004
  23924444.2724   -6458904.28343  -4977532.51142  23924443.0214   23924447.2394
     -3860.7804      -3008.4054         46.0004         40.0004
  22251910.0504  -14739801.45743 -11474376.46042  22251908.9234   22251908.9124
      1042.9934        812.7084         54.0004         47.0004
  21216472.1014  -23457428.85744 -16933627.15842  21216471.6914   21216472.3354
     -1460.3614      -1137.9474         57.0004         51.0004
  22915895.6234  -13310171.22643 -10358885.36242  22915894.8104   22915895.6374
      3294.9174       2567.4784         51.0004         44.0004
  22985391.1674  -11833525.73043  -9204292.41442  22985388.2944   22985388.6144
     -1443.0934      -1124.4814         52.0004         45.0004
  24655650.0094    5807655.62843   4539171.61242  24655648.6404   24655651.6504
     -3792.6224      -2955.2904         43.0004         38.0004
 08  4 20  0 53 30.0000000  0  9G30G24G29G 5G23G31G16G 2G 1
  22391204.1824  -16545306.08543  -4503453.03442  22391203.3224   22391204.5264
     -3329.9244      -2594.7474         53.0004         45.0004
  23747669.3154   -6818229.30943  -5297874.03442  23747667.5724   23747671.1234
      3078.5134       2398.8554         46.0004         41.0004
  21097319.5454  -17530572.98244 -13651183.50242  21097319.1344   21097320.4264
       311.6164        242.8174         57.0004         51.0004
  23946494.7224   -6343034.36843  -4887244.33942  23946493.3164   23946496.7224
     -3864.7584      -3011.5124         47.0004         40.0004
  22246012.9954  -14770791.13343 -11498524.24742  22246011.7594   22246011.7524
      1022.3094        796.6074         54.0004         47.0004
  21224857.3654  -23413370.13944 -16899295.72242  21224856.3954   21224856.0454
     -1477.2564      -1151.1144         57.0004         51.0004
  22897106.9624  -13408908.31343 -10435823.36842  22897105.7634   22897106.1864
      3286.8944       2561.2214         51.0004         44.0004
  22993679.3824  -11789957.54443  -9170343.17142  22993678.5154   22993679.1724
     -1462.2774      -1139.4414         50.0004         45.0004
  24677310.1444    5921478.03743   4627864.33842  24677309.3654   24677311.5844
     -3795.8824      -2957.8264         44.0004         39.0004
 08  4 20  0 54  0.0000000  0  9G30G24G29G 5G23G31G16G 2G 1
  22410243.4834  -16445253.62243  -4425490.07142  22410242.6364   22410244.1844
     -3339.9954      -2602.5814         52.0004         45.0004
  23730124.7004   -6910427.41743  -5369716.69642  23730123.7964   23730126.6634
      3068.1944       2390.7864         46.0004         40.0004
  21095597.9144  -17539623.13644 -13658235.56842  21095596.9984   21095598.0594
       291.8204        227.3924         57.0004         51.0004
  23968569.3934   -6227032.35543  -4796853.20142  23968567.7284   23968570.8134
     -3868.6974      -3014.5514         46.0004         40.0004
  22240238.2634  -14801143.83143 -11522175.74342  22240236.4164   22240235.3284
      1001.2234        780.1904         54.0004         47.0004
  21233340.2964  -23368788.68344 -16864556.90042  21233339.4114   21233339.8684
     -1494.5434      -1164.5804         57.0004         51.0004
  22878367.9004  -13507381.93143 -10512556.07942  22878367.1894   22878367.6704
      3278.0264       2554.2924         51.0004         44.0004
  23002084.8624  -11745797.90043  -9135933.07342  23002081.8844   23002081.6934
     -1481.8314      -1154.7014         52.0004         45.0004
  24698992.4744    6035418.73343   4716649.04642  24698991.2164   24698993.7644
     -3799.7364      -2960.8334         43.0004         38.0004
 08  4 20  0 54 30.0000000  0  9G30G24G29G 5G23G31G16G 2G 1
  22429341.2634  -16344892.38243  -4347286.51142  22429340.4524   22429341.7704
     -3350.2904      -2610.6134         52.0004         45.0004
  23712641.1944   -7002306.47543  -5441310.77042  23712638.3154   23712641.4804
      3057.3904       2382.3784         46.0004         40.0004
  21093989.3844  -17548076.10744 -13664822.29442  21093988.3424   21093989.6124
       272.0434        211.9774         57.0004         51.0004
  23990667.9284   -6110901.71643  -4706361.84242  23990666.0634   23990669.2944
     -3872.9954      -3017.9254         46.0004         40.0004
  22234584.2264  -14830859.90743 -11545331.12342  22234582.1864   22234580.7464
       980.1254        763.7324         55.0004         47.0004
  21241923.1234  -23323686.84344 -16829412.58742  21241922.3964   21241922.7384
     -1511.8384      -1178.0584         57.0004         51.0004
  22859679.1934  -13605591.80543 -10589083.22042  22859677.6874   22859678.3064
      3269.3914       2547.5794         51.0004         44.0004
  23010597.6814  -11701050.06743  -9101064.66742  23010597.6124   23010597.5734
     -1501.1774      -1169.7624         50.0004         45.0004
  24720695.9874    6149474.23743   4805523.38442  24720694.6794   24720698.4874
     -3803.5754      -2963.8254         44.0004         38.0004
 08  4 20  0 55  0.0000000  0  9G30G24G29G 5G23G31G16G 2G 1
  22448498.1054  -16244223.47243  -4268843.21542  22448497.3774   22448498.4294
     -3360.4104      -2618.4954         52.0004         45.0004
  23695218.5444   -7093862.65643  -5512653.22242  23695217.3224   23695219.5044
      3046.8334       2374.1604         47.0004         40.0004
  21092494.5614  -17555931.24944 -13670943.20342  21092493.6744   21092494.9094
       252.2374        196.5574         57.0004         51.0004
  24012791.2394   -5994643.88243  -4615771.39642  24012790.0554   24012792.2434
     -3876.9434      -3020.9994         47.0004         40.0004
  22229048.7834  -14859937.12343 -11567988.68342  22229048.1474   22229047.7424
       958.8774        747.1734         54.0004         47.0004
  21250604.6334  -23278065.23244 -16793863.24142  21250603.8464   21250603.6644
     -1529.0024      -1191.4294         57.0004         51.0004
  22841040.7904  -13703535.20143 -10665402.70442  22841039.5384   22841040.1454
      3260.6684       2540.7774         51.0004         44.0004
  23019226.5564  -11655714.62943  -9065738.33642  23019224.9254   23019224.2584
     -1520.6044      -1184.8524         52.0004         45.0004
  24742421.5554    6263642.19343   4894485.35342  24742419.4974   24742423.2644
     -3807.1564      -2966.6104         44.0004         38.0004
 08  4 20  0 55 30.0000000  0  9G30G24G29G 5G23G31G16G 2G 1
  22467713.2964  -16143248.90643  -4190161.76442  22467712.3794   22467713.8674
     -3370.2854      -2626.1974         52.0004         45.0004
  23677858.0424   -7185092.82843  -5583741.59442  23677856.9924   23677859.9594
      3036.2974       2365.9314         47.0004         41.0004
  21091113.8404  -17563188.47244 -13676598.20342  21091112.7904   21091113.8354
       232.5514        181.2144         57.0004         51.0004
  24034938.5194   -5878260.40143  -4525083.07342  24034937.0124   24034938.9014
     -3880.8854      -3024.0724         46.0004         40.0004
  22223637.8094  -14888374.35543 -11590147.64342  22223637.3894   22223636.5304
       937.8634        730.8104         55.0004         47.0004
  21259384.1824  -23231924.50444 -16757909.39442  21259383.6184   21259384.0804
     -1546.0464      -1204.7074         57.0004         51.0004
  22822454.4864  -13801209.82843 -10741512.77942  22822452.2604   22822453.6014
      3251.8884       2533.9384         52.0004         44.0004
  23027963.9194  -11609792.73643  -9029955.04542  23027963.3604   23027963.1104
     -1539.7724      -1199.8204         51.0004         45.0004
  24764168.2814    6377920.18043   4983532.93242  24764166.4884   24764169.6184
     -3810.0814      -2968.8814         43.0004         38.0004
 08  4 20  0 56  0.0000000  0  9G30G24G29G 5G23G31G16G 2G 1
  22486985.1154  -16041974.80143  -4111246.91342  22486983.7524   22486985.5344
     -3380.9724      -2634.5354         52.0004         45.0004
  23660559.3494   -7275998.06943  -5654576.80242  23660557.6854   23660560.2134
      3024.5084       2356.7594         47.0004         41.0004
  21089845.7154  -17569850.97644 -13681789.78642  21089844.7854   21089846.2054
       211.9474        165.1594         57.0004         51.0004
  24057108.5214   -5761757.17143  -4434301.43842  24057106.4034   24057108.4544
     -3885.5774      -3027.7454         46.0004         39.0004
  22218348.8624  -14916173.87543 -11611809.64042  22218346.8224   22218346.2064
       915.8154        713.6174         55.0004         47.0004
  21268263.1584  -23185269.88944 -16721555.12942  21268262.2124   21268262.5754
     -1563.8884      -1218.6154         57.0004         51.0004
  22803918.4634  -13898617.64343 -10817414.98942  22803917.1714   22803917.4344
      3242.1354       2526.3354         51.0004         44.0004
  23036813.5914  -11563290.19843  -8993719.30842  23036812.5194   23036812.4854
     -1559.9924      -1215.5534         51.0004         45.0004
  24785934.5954    6492301.89743   5072661.39642  24785932.9174   24785934.6874
     -3814.4534      -2972.3024         44.0004         37.0004
 08  4 20  0 56 30.0000000  0  9G30G24G29G 5G23G31G16G 2G 1
  22506314.2194  -15940398.52843  -4032096.58342  22506313.5484   22506314.1454
     -3390.6674      -2642.0884         52.0004         45.0004
  23643324.7944   -7366570.33343  -5725152.50342  23643322.5954   23643326.1904
      3013.6944       2348.3284         47.0004         41.0004
  21088691.9114  -17575914.03744 -13686514.27942  21088691.0884   21088692.2374
       192.3594        149.8864         57.0004         51.0004
  24079301.1524   -5645131.02043  -4343423.96542  24079299.0854   24079302.6464
     -3889.4394      -3030.7204         46.0004         39.0004
  22213180.6834  -14943329.93243 -11632970.18342  22213179.6664   22213178.3574
       894.7524        697.2074         54.0004         47.0004
  21277239.0714  -23138097.54444 -16684797.43642  21277238.3704   21277238.6614
     -1580.7504      -1231.7584         57.0004         51.0004
  22785433.3804  -13995751.88443 -10893104.03642  22785432.3884   22785433.6014
      3233.4554       2519.5604         51.0004         44.0004
  23045773.6874  -11516203.53643  -8957028.42242  23045773.4354   23045772.2784
     -1578.9454      -1230.3414         51.0004         44.0004
  24807721.7934    6606789.40043   5161872.29242  24807719.6674   24807723.0064
     -3816.5954      -2973.9724         46.0004         37.0004
 08  4 20  0 57  0.0000000  0  9G30G24G29G 5G23G31G16G 2G 1
  22525699.8404  -15838525.92043  -3952715.36442  22525699.0604   22525700.7884
     -3400.3744      -2649.6444         52.0004         45.0004
  23626152.7654   -7456810.45243  -5795469.45742  23626150.4854   23626153.8364
      3002.7454       2339.8054         47.0004         41.0004
  21087651.6244  -17581381.12444 -13690774.39742  21087650.9124   21087651.9684
       172.7234        134.5864         57.0004         51.0004
  24101516.5484   -5528387.34143  -4252454.85442  24101514.4134   24101517.5054
     -3893.0154      -3033.5124         45.0004         39.0004
  22208135.4324  -14969844.48343 -11653630.84142  22208133.7394   22208133.0484
       873.4834        680.6204         55.0004         47.0004
  21286313.6224  -23090411.87044 -16647639.74942  21286312.9834   21286312.7774
     -1597.6934      -1244.9584         57.0004         51.0004
  22767001.9124  -14092613.66043 -10968580.69742  22767000.3024   22767001.8534
      3224.4004       2512.5224         51.0004         44.0004
  23054843.9564  -11468538.06343  -8919886.49542  23054842.3314   23054843.8654
     -1598.0484      -1245.2094         50.0004         44.0004
  24829526.1004    6721377.12843   5251161.57542  24829524.4774   24829527.9464
     -3820.7014      -2977.1784         44.0004         37.0004
 08  4 20  0 57 30.0000000  0  9G30G24G29G 5G23G31G16G 2G 1
  22545142.7624  -15736355.27843  -3873101.93342  22545141.9274   22545143.5824
     -3410.9434      -2657.8804         52.0004         46.0004
  23609043.4274   -7546712.27543  -5865522.90442  23609042.5134   23609045.6764
      2990.6074       2330.3514         47.0004         41.0004
  21086725.5504  -17586248.45244 -13694567.16342  21086724.6944   21086725.8994
       151.9334        118.3934         57.0004         51.0004
  24123754.4514   -5411524.72043  -4161393.13142  24123752.6624   24123756.2054
     -3897.9984      -3037.3874         44.0004         39.0004
  22203212.8744  -14995713.34243 -11673788.39442  22203210.8974   22203210.0874
       851.1854        663.2744         54.0004         47.0004
  21295485.9034  -23042210.36844 -16610080.12342  21295485.2944   21295485.6344
     -1615.5834      -1258.8924         57.0004         51.0004
  22748622.2464  -14189197.77543 -11043841.04942  22748620.8924   22748621.9324
      3214.3854       2504.7094         52.0004         44.0004
  23064025.5804  -11420291.68843  -8882291.95742  23064024.8614   23064024.6754
     -1618.2494      -1260.9524         52.0004         45.0004
  24851349.6744    6836065.57043   5340529.31242  24851348.4984   24851352.5914
     -3824.8404      -2980.3974         43.0004         37.0004
 08  4 20  0 58  0.0000000  0  9G30G24G29G 5G23G31G16G 2G 1
  22564640.4524  -15633892.93643  -3793261.18042  22564639.5474   22564641.1304
     -3420.1724      -2665.0574         52.0004         45.0004
  23591999.5104   -7636276.96143  -5935313.87342  23591997.8044   23592002.4894
      2979.6554       2321.8134         47.0004         41.0004
  21085913.4144  -17590520.14944 -13697895.82042  21085912.0074   21085913.0354
       132.4424        103.2044         57.0004         51.0004
  24146015.1854   -5294549.40943  -4070243.91142  24146014.6064   24146016.3374
     -3901.3104      -3039.9584         45.0004         39.0004
  22198410.7784  -15020939.16543 -11693444.85842  22198410.9794   22198409.6784
       830.0414        646.7944         54.0004         47.0004
  21304755.6724  -22993498.33244 -16572122.70442  21304754.8594   21304754.9184
     -1632.2894      -1271.9154         57.0004         51.0004
  22730294.7864  -14285505.98043 -11118886.42042  22730294.1834   22730295.2374
      3205.5144       2497.8044         51.0004         44.0004
  23073315.9234  -11371469.81843  -8844248.95342  23073313.9194   23073314.5854
     -1637.0444      -1275.5874         50.0004         44.0004
  24873192.6404    6950848.16543   5429970.28742  24873191.7884   24873195.2094
     -3827.7504      -2982.6594         45.0004         37.0004
 08  4 20  0 58 30.0000000  0 10G30G24G29G 5G23G31G16G 6G 2G 1
  22584197.2294  -15531122.54143  -3713180.43442  22584196.9244   22584198.0684
     -3430.8844      -2673.4214         52.0004         45.0004
  23575024.9624   -7725482.11943  -6004824.63442  23575022.7534   23575028.8494
      2967.4064       2312.2784         47.0004         42.0004
  21085217.4364  -17594177.20144 -13700745.52142  21085216.1624   21085217.3344
       111.6414         86.9984         57.0004         52.0004
  24168299.8864   -5177443.47743  -3978992.75542  24168299.2184   24168301.3384
     -3905.9134      -3043.5734         46.0004         40.0004
  22193738.9264  -15045501.59643 -11712584.43542  22193737.5464   22193735.6024
       807.5724        629.2764         54.0004         47.0004
  21314125.9594  -22944257.92244 -16533753.55742  21314125.1534   21314124.8554
     -1650.1844      -1285.8564         57.0004         51.0004
  22712025.1634  -14381517.59843 -11193700.69242  22712023.2964   22712024.5164
      3195.2764       2489.8484         51.0004         44.0004
  24207429.475
                                        45.000
  23082720.2064  -11322055.33343  -8805744.21742  23082717.3684   23082718.4044
     -1657.0604      -1291.2264         51.0004         44.0004
  24895055.7584    7065741.02943   5519497.16542  24895055.4864   24895058.5964
     -3831.6544      -2985.7094         45.0004         37.0004
 08  4 20  0 59  0.0000000  0 10G30G24G29G 5G23G31G16G 6G 2G 1
  22603809.8454  -15428058.47543  -3632870.80942  22603809.1064   22603809.7364
     -3440.3104      -2680.7574         52.0004         45.0004
  23558117.4624   -7814337.08743  -6074062.29642  23558115.6424   23558118.1884
      2956.0624       2303.4344         48.0004         42.0004
  21084635.9184  -17597231.95744 -13703125.82942  21084634.6064   21084635.9204
        91.9194         71.6254         57.0004         51.0004
  24190607.1724   -5060221.68243  -3887651.24142  24190605.0204   24190608.2514
     -3909.4974      -3046.3524         48.0004         41.0004
  22189188.6424  -15069412.23543 -11731216.11042  22189186.6834   22189186.2114
       786.2514        612.6644         54.0004         47.0004
  21323593.6554  -22894502.90944 -16494983.45142  21323593.0214   21323593.5974
     -1666.9224      -1298.8964         57.0004         51.0004
  22693809.6654  -14477242.77143 -11268291.73442  22693808.3304   22693809.1174
      3186.1124       2482.6864         52.0004         44.0004
  24186522.6374   -1051165.39343   -804500.35642  24186521.5454   24186523.7754
      3660.0644       2851.9994         46.0004         40.0004
  23092232.8914  -11272062.45643  -8766788.75742  23092231.0814   23092231.2944
     -1675.9844      -1305.9724         50.0004         44.0004
  24916937.7764    7180729.35043   5609098.44842  24916936.1124   24916938.1134
     -3834.7424      -2988.1224         45.0004         36.0004
 08  4 20  0 59 30.0000000  0 10G30G24G29G 5G23G31G16G 6G 2G 1
  22623463.8104  -15324775.46843  -3552390.60542  22623462.7974   22623464.3604
     -3448.7224      -2687.3194         52.0004         45.0004
  23541261.5424   -7902912.07543  -6143081.78642  23541260.0624   23541264.0884
      2945.6014       2295.2904         48.0004         42.0004
  21084154.8924  -17599757.21144 -13705093.53742  21084153.7494   21084155.2404
        72.8994         56.8074         57.0004         51.0004
  24212921.8314   -4942958.49743  -3796277.54042  24212920.2914   24212922.7684
     -3911.8804      -3048.2174         48.0004         40.0004
  22184749.4214  -15092742.56843 -11749395.58342  22184747.3484   22184746.4034
       765.6694        596.6194         55.0004         47.0004
  21333146.1124  -22844306.78944 -16455869.65242  21333145.2734   21333145.4734
     -1682.9584      -1311.3954         57.0004         51.0004
  22675634.8414  -14572752.22443 -11342714.69342  22675632.9354   22675634.4274
      3177.7874       2476.1974         52.0004         44.0004
  24165630.9974   -1160953.93543   -890049.71342  24165629.0624   24165632.1354
      3656.0304       2848.8454         45.0004         40.0004
  23101843.6914  -11221565.31543  -8727440.33442  23101839.9714   23101839.8254
     -1693.9864      -1319.9714         51.0004         45.0004
  24938823.2084    7295738.05643   5698715.71742  24938822.6264   24938824.3664
     -3836.4254      -2989.4154         45.0004         36.0004
                            4  7
RINEX FILE SPLICE                                           COMMENT
teqc 2002Mar14 20080420 00:59:48UTC                         COMMENT
MSWin2000|IAx86-PII|bcc32 5.0|MSWin95/98/NT/2000|486/DX+    COMMENT
BIT 2 OF LLI FLAGS DATA COLLECTED UNDER A/S CONDITION       COMMENT
SNR is mapped to RINEX snr flag value [1-9]                 COMMENT
L1: 1 -> 1; 90 -> 5; 210 -> 9                               COMMENT
L2: 1 -> 1; 150 -> 5; 250 -> 9                              COMMENT
 08  4 20  1  0  0.0000000  0 10G30G24G29G 5G23G31G16G 6G 2G 1
  22643180.3424  -15221162.72243  -3471653.44242  22643179.8354   22643181.4594
     -3458.4194      -2694.8704         52.0004         45.0004
  23524480.7284   -7991091.51543  -6211793.03542  23524479.1184   23524482.9664
      2933.4424       2285.7994         47.0004         42.0004
  21083797.2594  -17601640.47444 -13706561.03642  21083795.7284   21083796.9214
        52.8314         41.1684         57.0004         52.0004
  24235265.4574   -4825542.74443  -3704784.91742  24235262.2804   24235267.9174
     -3915.6234      -3051.1224         47.0004         40.0004
  22180439.5314  -15115379.03843 -11767034.38142  22180438.9594   22180438.6834
       743.6924        579.5024         54.0004         47.0004
  21342802.9554  -22793558.08144 -16416325.22742  21342802.2244   21342802.0684
     -1700.1174      -1324.7654         57.0004         51.0004
  22657523.0864  -14667930.99943 -11416879.94442  22657520.9464   22657521.8454
      3167.7474       2468.3654         52.0004         45.0004
  24144773.9564   -1270550.04643   -975449.17242  24144773.3514   24144776.4004
      3650.5854       2844.6074         45.0004         40.0004
  23111568.9904  -11170453.02343  -8687612.62442  23111566.6224   23111567.1624
     -1713.2864      -1335.0474         51.0004         45.0004
  24960733.2424    7410877.11843   5788434.40942  24960731.4954   24960734.7934
     -3839.4014      -2991.7284         44.0004         36.0004
 08  4 20  1  0 30.0000000  0 10G30G24G29G 5G23G31G16G 6G 2G 1
  22662950.4664  -15117269.01343  -3390697.30842  22662950.0724   22662951.3474
     -3467.9634      -2702.3204         51.0004         44.0004
  23507768.3344   -8078918.94243  -6280229.84042  23507766.6244   23507771.2704
      2921.5994       2276.5614         47.0004         42.0004
  21083551.9664  -17602927.98244 -13707564.31342  21083550.6344   21083552.0464
        32.7664         25.5294         57.0004         52.0004
  24257628.8264   -4708023.01343  -3613211.22242  24257627.1634   24257630.2674
     -3919.2084      -3053.9384         46.0004         40.0004
  22176257.6524  -15137366.96943 -11784167.82742  22176255.0124   22176254.5784
       721.9454        562.5534         55.0004         47.0004
  21352556.4964  -22742304.49344 -16376387.36142  21352555.6744   21352555.8484
     -1717.1694      -1338.0544         57.0004         51.0004
  22639465.5134  -14762823.86843 -11490822.44842  22639463.1414   22639464.5214
      3158.2014       2460.9194         52.0004         45.0004
  24123947.5044   -1379997.85143  -1060733.07642  24123945.8334   24123948.9014
      3645.5554       2840.6914         45.0004         40.0004
  23121403.1204  -11118773.88843  -8647343.19842  23121400.9934   23121401.6054
     -1731.7024      -1349.3844         50.0004         45.0004
  24982659.3124    7526097.40443   5878216.44742  24982657.4104   24982661.0724
     -3842.0914      -2993.8394         44.0004         37.0004
 08  4 20  1  1  0.0000000  0 10G30G24G29G 5G23G31G16G 6G 2G 1
  22682774.1164  -15013096.93343  -3309524.40342  22682772.9664   22682775.2094
     -3477.3424      -2709.6084         51.0004         45.0004
  23491123.4314   -8166391.58143  -6348390.10442  23491122.4464   23491124.7534
      2909.3644       2267.0304         48.0004         42.0004
  21083419.8254  -17603620.13544 -13708103.67342  21083418.8574   21083420.3244
        12.9164         10.0714         57.0004         51.0004
  24280011.7394   -4590401.19243  -3521557.87442  24280008.5154   24280011.8544
     -3922.7384      -3056.7144         46.0004         39.0004
  22172196.1194  -15158705.69643 -11800795.41342  22172195.0794   22172194.2264
       700.1754        545.6004         55.0004         47.0004
  21362405.6854  -22690547.38744 -16336057.13442  21362404.7274   21362404.8364
     -1733.8894      -1351.0814         57.0004         51.0004
  22621462.3964  -14857429.48543 -11564541.18842  22621461.3514   22621461.2724
      3148.3904       2453.2754         52.0004         45.0004
  24103148.9794   -1489296.00743  -1145900.69042  24103147.9424   24103150.1764
      3640.5274       2836.7914         46.0004         40.0004
  23131346.2864  -11066529.75143  -8606633.50742  23131342.7684   23131343.3224
     -1750.8144      -1364.2564         51.0004         44.0004
  25004599.7754    7641396.00443   5968059.41842  25004599.0884   25004602.4934
     -3844.9044      -2996.0324         44.0004         37.0004
 08  4 20  1  1 30.0000000  0 10G30G24G29G 5G23G31G16G 6G 2G 1
  22702651.1584  -14908645.00943  -3228133.40042  22702650.4964   22702652.2144
     -3486.5274      -2716.7704         52.0004         45.0004
  23474546.8734   -8253503.85943  -6416269.84242  23474545.2254   23474547.2774
      2897.6804       2257.9124         48.0004         42.0004
  21083402.4944  -17603713.39944 -13708176.33842  21083401.3994   21083402.6114
        -6.9114         -5.3844         57.0004         52.0004
  24302412.3374   -4472674.77343  -3429822.59942  24302412.2874   24302413.7754
     -3925.8654      -3059.1054         44.0004         39.0004
  22168259.7324  -15179390.39643 -11816913.36942  22168258.8364   22168257.8474
       678.5654        528.7424         54.0004         47.0004
  21372350.6144  -22638284.38344 -16295332.73442  21372349.9434   21372349.8354
     -1750.5674      -1364.0754         57.0004         51.0004
  22603515.5744  -14951741.37343 -11638030.94842  22603514.0104   22603514.6324
      3138.7634       2445.7844         52.0004         45.0004
  24082379.0534   -1598438.24143  -1230946.90742  24082378.1074   24082381.7214
      3635.5994       2832.9374         44.0004         39.0004
  23141392.4954  -11013718.62343  -8565481.99842  23141392.7124   23141392.3614
     -1769.8654      -1379.1254         50.0004         45.0004
  25026556.0074    7756774.17143   6057964.44442  25026555.3124   25026557.7354
     -3847.1964      -2997.8184         43.0004         37.0004
 08  4 20  1  2  0.0000000  0 10G30G24G29G 5G23G31G16G 6G 2G 1
  22722579.7414  -14803920.69143  -3146530.17142  22722578.9334   22722579.8124
     -3495.3834      -2723.6474         51.0004         44.0004
  23458037.5064   -8340258.65443  -6483871.56942  23458037.3704   23458040.2874
      2885.7094       2248.6254         48.0004         42.0004
  21083497.2764  -17603213.41544 -13707786.76742  21083496.4834   21083497.6724
       -26.6014        -20.7284         57.0004         52.0004
  24324833.1484   -4354853.93843  -3338014.89442  24324832.3114   24324837.7944
     -3929.4444      -3061.8974         43.0004         37.0004
  22164447.5584  -15199425.55443 -11832525.18742  22164445.5334   22164445.0624
       656.9344        511.8864         55.0004         47.0004
  21382391.4964  -22585522.26044 -16254219.49042  21382390.5804   21382390.3804
     -1767.1324      -1376.9874         57.0004         51.0004
  22585624.1364  -15045763.13043 -11711294.67042  22585623.0784   22585623.2314
      3129.1374       2438.2994         52.0004         45.0004
  24061639.1494   -1707427.09543  -1315873.42542  24061638.0224   24061641.3444
      3630.2914       2828.8024         44.0004         39.0004
  23151551.5304  -10960347.96543  -8523894.47342  23151548.5874   23151548.3624
     -1788.3984      -1393.5624         51.0004         44.0004
  25048525.3084    7872224.02743   6147925.42342  25048523.5784   25048526.8524
     -3849.6394      -2999.7164         41.0004         37.0004
 08  4 20  1  2 30.0000000  0 10G30G24G29G 5G23G31G16G 6G 2G 1
  22742560.4534  -14698921.03843  -3064712.59042  22742559.1044   22742561.6774
     -3503.5224      -2729.9874         51.0004         44.0004
  23441599.5184   -8426645.27943  -6551185.82342  23441597.6824   23441601.6054
      2874.3624       2239.8334         49.0004         43.0004
  21083706.0754  -17602114.43744 -13706930.42542  21083705.4374   21083706.8074
       -45.6364        -35.5484         57.0004         52.0004
  24347273.9924   -4236930.89643  -3246126.41342  24347272.1294   24347274.8214
     -3931.2834      -3063.3494         44.0004         38.0004
  22160758.0134  -15218805.00043 -11847626.04542  22160757.7404   22160757.2674
       635.9914        495.5944         54.0004         47.0004
  21392527.2164  -22532256.42044 -16212713.72042  21392526.5784   21392526.9154
     -1783.0374      -1389.3634         57.0004         51.0004
  22567788.7964  -15139487.31343 -11784326.47642  22567787.0724   22567788.5824
      3120.1704       2431.3154         52.0004         45.0004
  24040931.3714   -1816254.98243  -1400674.33342  24040929.8924   24040932.6284
      3626.2004       2825.6254         45.0004         39.0004
  23161813.1004  -10906413.88243  -8481867.96242  23161812.0954   23161811.3604
     -1806.2504      -1407.4684         51.0004         44.0004
  25070507.9644   14289428.51243  11148344.55042  25070505.6684   25070509.9804
     -3851.0024      -3000.7854         39.0004         35.0004
 08  4 20  1  3  0.0000000  0 10G30G24G29G 5G23G31G16G 6G 2G 1
  22762592.3574  -14593655.21843  -2982687.95842  22762590.7324   22762594.5344
     -3513.4844      -2737.7724         51.0004         45.0004
  23425229.9284   -8512669.05243  -6618217.57442  23425228.9894   23425232.6164
      2861.2804       2229.5994         49.0004         43.0004
  21084027.7654  -17600423.49744 -13705612.87442  21084027.4414   21084028.8304
       -66.3934        -51.7264         57.0004         52.0004
  24369730.4334   -4118916.40943  -3154166.98842  24369730.5974   24369732.8474
     -3935.1324      -3066.3304         44.0004         37.0004
  22157195.8514  -15237534.21943 -11862220.19742  22157193.7824   22157193.3434
       613.3124        477.9124         55.0004         47.0004
  21402757.5574  -22478494.56044 -16170821.41142  21402756.9324   21402757.3644
     -1800.4484      -1402.9504         57.0004         50.0004
  22550009.0004  -15232918.27643 -11857129.78242  22550007.9094   22550008.0674
      3109.2464       2422.7884         52.0004         45.0004
  24020251.8864   -1924927.02643  -1485354.21642  24020250.3404   24020252.6934
      3619.2354       2820.1774         46.0004         40.0004
  23172182.8694  -10851924.74543  -8439408.89042  23172181.1394   23172180.2074
     -1825.7874      -1422.6884         51.0004         44.0004
  25092503.3144   14405018.45843  11238414.56142  25092502.8934   25092506.4664
     -3854.6994      -3003.6524         38.0004         35.0004
 08  4 20  1  3 30.0000000  0 10G30G24G29G 5G23G31G16G 6G 2G 1
  22782675.6394  -14488117.87143  -2900450.92042  22782675.5014   22782676.5054
     -3522.1734      -2744.5524         52.0004         45.0004
  23408930.8204   -8598321.67443  -6684959.99642  23408929.1084   23408932.5414
      2848.8794       2219.8544         49.0004         43.0004
  21084462.9594  -17598135.83344 -13703830.29842  21084462.5574   21084464.0294
       -85.9614        -66.9854         57.0004         51.0004
  24392206.8974   -4000808.13543  -3062135.10542  24392205.1074   24392207.9484
     -3938.0914      -3068.6254         45.0004         39.0004
  22153755.4374  -15255607.21243 -11876303.01042  22153754.7064   22153753.9544
       591.8164        461.1514         54.0004         47.0004
  21413083.8214  -22424233.11044 -16128539.78642  21413082.9324   21413082.9284
     -1816.7714      -1415.6654         57.0004         51.0004
  22532286.6104  -15326048.97343 -11929699.06742  22532285.5744   22532286.9054
      3099.5474       2415.2324         52.0004         45.0004
  23999603.3224   -2033434.53643  -1569905.21642  23999600.9774   23999605.7704
      3614.0594       2816.1484         46.0004         40.0004
  23182658.2874  -10796877.34743  -8396514.83642  23182656.4244   23182654.9124
     -1843.9754      -1436.8674         50.0004         44.0004
  25114514.3324   14520676.40443  11328537.68442  25114512.1244   25114516.2424
     -3856.5604      -3005.1164         41.0004         36.0004
 08  4 20  1  4  0.0000000  0 11G30G24G29G 5G23G31G16G13G 6G 2G 1
  22802822.2494  -14382245.08143  -2817952.52842  22802821.0874   22802822.6944
     -3533.0824      -2753.0534         51.0004         44.0004
  23392715.6334   -8683531.77043  -6751357.08242  23392714.1464   23392715.6234
      2834.6644       2208.8024         49.0004         42.0004
  21085025.1044  -17595183.38844 -13701529.65842  21085024.6964   21085025.7914
      -108.0014        -84.1564         57.0004         51.0004
  24414712.3074   -3882538.21843  -2969976.94842  24414712.0214   24414713.9494
     -3943.4264      -3072.7994         44.0004         39.0004
  22150454.6984  -15272955.52143 -11889821.14942  22150453.4464   22150453.4214
       567.6934        442.3504         54.0004         47.0004
  21423516.9784  -22369405.43844 -16085816.92042  21423516.1834   21423516.3774
     -1835.5024      -1430.2654         57.0004         51.0004
  22514635.2584  -15418809.86043 -12001980.24542  22514633.8924   22514634.1284
      3087.3724       2405.7494         53.0004         45.0004
  23668489.1934   -1119112.26543   -857967.55142  23668490.7024   23668492.3414
      2886.5824       2249.2764         49.0004         41.0004
  23979000.4184   -2141710.19243  -1654276.75342  23978998.9764   23978999.9954
      3606.6464       2810.3834         47.0004         41.0004
  23193250.4664  -10741205.64043  -8353134.25042  23193249.1914   23193250.1704
     -1864.4824      -1452.8434         50.0004         43.0004
  25136548.4344   14636467.49243  11418764.55742  25136544.5624   25136550.3434
     -3860.9754      -3008.5594         42.0004         37.0004
 08  4 20  1  4 30.0000000  0 10G30G24G29G 5G23G31G16G13G 6G 2
  22822992.1604  -14276246.33143  -2735356.17342  22822992.2464   22822994.4474
     -3539.7914      -2758.2594         50.0004         43.0004
  23376544.8604   -8768505.46343  -6817570.13542  23376542.2854   23376545.2784
      2823.8804       2200.4164         49.0004         42.0004
  21085673.9584  -17591773.91744 -13698872.89142  21085673.2274   21085674.4784
      -125.5864        -97.8634         57.0004         52.0004
  24437208.7574   -3764315.77043  -2877855.26342  24437208.1094   24437210.2644
     -3944.3074      -3073.5114         46.0004         39.0004
  22147251.9604  -15289785.98443 -11902935.77842  22147250.7094   22147250.8554
       547.9724        426.9794         54.0004         47.0004
  21434018.4664  -22314220.32944 -16042815.52042  21434017.7554   21434017.5634
     -1849.8404      -1441.4414         57.0004         50.0004
  22497015.0774  -15511406.45643 -12074133.40242  22497013.1694   22497013.4054
      3079.4014       2399.5254         53.0004         45.0004
  23652029.2284   -1205616.18243   -925373.12142  23652029.7014   23652025.3744
      2873.9884       2239.4774         48.0004         40.0004
  23958401.3564   -2249955.33243  -1738623.09142  23958399.2644   23958402.5624
      3603.3384       2807.7804         47.0004         41.0004
  23203924.6714  -10685119.07543  -8309430.41542  23203923.4794   23203921.9564
     -1880.8834      -1465.6574         51.0004         43.0004
 08  4 20  1  5  0.0000000  0 10G30G24G29G 5G23G31G16G13G 6G 2
  22843226.6014  -14169917.79643  -2652503.20742  22843226.9674   22843228.1634
     -3548.4214      -2765.0284         50.0004         43.0004
  23360459.5404   -8853033.09843  -6883435.73742  23360458.9214   23360461.5524
      2811.2004       2190.5424         48.0004         42.0004
  21086449.3954  -17587701.11444 -13695699.22742  21086448.2884   21086449.6694
      -145.5174       -113.3924         57.0004         52.0004
  24459736.2214   -3645936.74143  -2785611.59042  24459734.9104   24459738.1064
     -3947.1234      -3075.7004         45.0004         39.0004
  22144187.1734  -15305890.77343 -11915484.95742  22144186.3884   22144185.6344
       526.0594        409.9154         54.0004         47.0004
  21444626.9094  -22258472.67844 -15999375.77142  21444625.7034   21444626.0504
     -1866.2724      -1454.2314         57.0004         50.0004
  22479464.8754  -15603630.13743 -12145996.00142  22479463.4284   22479464.5484
      3069.3124       2391.6724         53.0004         45.0004
  23635664.4404   -1291612.03643   -992382.83542  23635661.6344   23635662.4954
      2859.9314       2228.5154         47.0004         41.0004
  23937847.2754   -2357963.79943  -1822785.43242  23937846.1994   23937847.5294
      3597.8264       2803.4864         46.0004         40.0004
  23214714.7484  -10628412.84043  -8265243.75042  23214713.8994   23214712.8314
     -1899.1684      -1479.8824         50.0004         44.0004
 08  4 20  1  5 30.0000000  0 10G30G24G29G 5G23G31G16G13G 6G 2
  22863511.6014  -14063322.41043  -2569441.52342  22863510.6404   22863512.4414
     -3557.3294      -2771.9664         51.0004         44.0004
  23344447.6394   -8937175.33743  -6949001.36942  23344446.9884   23344451.3744
      2798.3804       2180.5264         48.0004         42.0004
  21087338.4374  -17583028.82444 -13692058.48342  21087337.3224   21087338.7804
      -165.4904       -128.9564         57.0004         52.0004
  24482280.1254   -3527466.46043  -2693297.06442  24482278.2404   24482282.4064
     -3950.2674      -3078.1234         46.0004         39.0004
  22141249.4104  -15321332.40443 -11927517.36542  22141247.9934   22141247.5254
       503.8914        392.6434         55.0004         47.0004
  21455329.8144  -22202226.81744 -15955547.85142  21455329.0734   21455329.5584
     -1882.9314      -1467.2314         57.0004         51.0004
  22461974.4394  -15695541.39543 -12217615.15842  22461973.3834   22461974.2224
      3058.7264       2383.4344         52.0004         45.0004
  23619382.5364   -1377160.12343  -1059043.61142  23619380.9214   23619385.1574
      2844.5834       2216.5494         47.0004         41.0004
  23917327.6944   -2465796.04543  -1906810.38442  23917326.1314   23917328.4314
      3591.5754       2798.6444         46.0004         40.0004
  23225610.3854  -10571151.99643  -8220624.89042  23225609.4554   23225610.1764
     -1917.6424      -1494.2604         50.0004         44.0004
 08  4 20  1  6  0.0000000  0 10G30G24G29G 5G23G31G16G13G 6G 2
  22883843.4314  -13956476.03943  -2486184.46842  22883842.7304   22883844.8224
     -3565.7614      -2778.4804         51.0004         44.0004
  23328507.8924   -9020940.32243  -7014273.08042  23328507.2064   23328511.0834
      2785.5344       2170.5524         49.0004         42.0004
  21088339.6044  -17577767.96844 -13687959.03542  21088338.4024   21088339.5404
      -185.2054       -144.3224         57.0004         52.0004
  24504839.2284   -3408918.05143  -2600921.76842  24504837.6354   24504842.4154
     -3952.9274      -3080.1954         45.0004         38.0004
  22138434.6454  -15336121.55543 -11939041.37842  22138433.6504   22138432.7104
       482.0014        375.5804         55.0004         47.0004
  21466125.4214  -22145495.25544 -15911341.31842  21466124.6584   21466124.9864
     -1899.2234      -1479.9204         57.0004         50.0004
  22444541.6104  -15787150.32043 -12288998.79242  22444540.2414   22444541.2794
      3048.5854       2375.5174         52.0004         45.0004
  23603185.7944   -1462269.10443  -1125362.19542  23603187.0834   23603188.1244
      2829.6424       2204.9244         48.0004         41.0004
  23896839.8174   -2573461.91443  -1990706.12642  23896838.9754   23896839.7994
      3585.9334       2794.2404         46.0004         40.0004
  23236610.5814  -10513350.01943  -8175584.40342  23236608.8564   23236608.3294
     -1935.7544      -1508.4074         50.0004         44.0004
 08  4 20  1  6 30.0000000  0 10G30G24G29G 5G23G31G16G13G 6G 2
  22904224.0454  -13849377.79043  -2402731.80842  22904221.9674   22904225.5814
     -3575.0994      -2785.7594         50.0004         44.0004
  23312641.9104   -9104321.09843  -7079245.47442  23312640.8954   23312644.3054
      2771.8614       2159.8664         49.0004         43.0004
  21089453.0314  -17571915.35544 -13683398.58342  21089451.8764   21089453.3534
      -206.0394       -160.5484         57.0004         52.0004
  24527413.4414   -3290289.09943  -2508483.62542  24527411.6234   24527417.4334
     -3956.0404      -3082.6214         43.0004         38.0004
  22135745.2884  -15350253.69043 -11950053.43442  22135744.0904   22135742.8484
       458.9724        357.6464         54.0004         47.0004
  21477013.8204  -22088275.98044 -15866754.92142  21477013.1024   21477013.4674
     -1916.4014      -1493.2964         57.0004         50.0004
  22427167.3724  -15878451.03743 -12360142.21842  22427166.6824   22427167.7444
      3036.8734       2366.3894         52.0004         45.0004
  23587076.1224   -1546932.42843  -1191333.56342  23587075.4634   23587075.2654
      2813.6204       2192.4394         49.0004         41.0004
  23876384.0264   -2680954.02843  -2074466.05842  23876381.5214   23876385.4324
      3579.0464       2788.8684         45.0004         40.0004
  23247714.2864  -10455004.86043  -8130120.66442  23247711.2164   23247712.7974
     -1954.8334      -1523.2244         50.0004         44.0004
 08  4 20  1  7  0.0000000  0 10G30G24G29G 5G23G31G16G13G 6G 2
  22924652.4524  -13742024.57843  -2319079.94542  22924651.3754   22924653.1494
     -3582.6114      -2791.6934         50.0004         44.0004
  23296849.9194   -9187311.01643  -7143912.68442  23296848.5974   23296851.8764
      2759.5434       2150.2394         48.0004         43.0004
  21090680.0144  -17565469.10744 -13678375.78842  21090679.0334   21090680.0984
      -224.7004       -175.0734         57.0004         52.0004
  24550003.1074   -3171578.57443  -2415982.10842  24550001.4034   24550006.9304
     -3958.4144      -3084.4764         42.0004         38.0004
  22133182.5394  -15363725.10243 -11960550.65242  22133180.6814   22133179.4134
       438.1064        341.3794         55.0004         47.0004
  21487995.7944  -22030567.80844 -15821787.83342  21487995.0314   21487995.3914
     -1931.7204      -1505.2414         57.0004         50.0004
  22409853.4144  -15969438.14243 -12431041.23642  22409851.8184   22409852.8654
      3027.6344       2359.1874         52.0004         45.0004
  23571051.1614   -1631143.96643  -1256952.90742  23571049.7174   23571051.7174
      2799.3634       2181.3124         49.0004         40.0004
  23855963.4584   -2788268.34343  -2158087.74442  23855962.2274   23855964.4134
      3574.0974       2785.0094         46.0004         40.0004
  23258919.1694  -10396115.47243  -8084232.86542  23258919.1224   23258919.8004
     -1971.9674      -1536.5664         49.0004         44.0004
 08  4 20  1  7 30.0000000  0 10G30G24G29G 5G23G31G16G13G 6G 2
  22945128.5374  -13634419.61743  -2235231.72242  22945127.6684   22945129.7714
     -3590.6414      -2797.9394         50.0004         44.0004
  23281130.7734   -9269908.50243  -7208273.69242  23281130.1484   23281133.8624
      2747.1694       2140.6184         48.0004         43.0004
  21092019.1684  -17558429.75644 -13672890.92042  21092018.6184   21092020.1324
      -244.1594       -190.2634         57.0004         51.0004
  24572608.7214   -3052788.98543  -2323418.93942  24572607.3644   24572612.1004
     -3960.2454      -3085.9084         44.0004         39.0004
  22130744.6494  -15376536.08443 -11970533.26342  22130743.1664   22130742.4584
       416.3944        324.4644         55.0004         47.0004
  21499070.4494  -21972371.24644 -15776439.77442  21499069.4684   21499069.6494
     -1947.5794      -1517.5914         57.0004         50.0004
  22392599.3184  -16060110.59143 -12501695.07842  22392597.7004   22392598.9864
      3017.4654       2351.2584         53.0004         45.0004
  23555114.9884   -1714901.49343  -1322218.47942  23555115.2994   23555114.0644
      2784.5874       2169.7924         50.0004         41.0004
  23835576.4634   -2895402.83743  -2241569.30742  23835574.7194   23835577.4564
      3568.3594       2780.5404         46.0004         41.0004
  23270231.0574  -10336684.64743  -8037923.18442  23270228.8014   23270228.1634
     -1989.4244      -1550.2264         52.0004         44.0004
 08  4 20  1  8  0.0000000  0 10G30G24G29G 5G23G31G16G13G 6G 2
  22965652.0594  -13526567.28243  -2151190.31442  22965651.2784   22965653.2954
     -3599.5314      -2804.8384         51.0004         44.0004
  23265487.3634   -9352114.44143  -7272329.74442  23265487.0784   23265489.5944
      2733.3484       2129.8584         48.0004         43.0004
  21093471.9754  -17550799.21944 -13666945.07742  21093470.7394   21093472.2634
      -264.3434       -205.9744         57.0004         51.0004
  24595228.2204   -2933924.12943  -2230796.96142  24595226.4644   24595229.5664
     -3963.2744      -3088.2724         45.0004         39.0004
  22128431.5644  -15388688.18543 -11980002.43842  22128430.3914   22128429.5254
       393.9824        306.9944         54.0004         47.0004
  21510236.7394  -21913691.30144 -15730715.23942  21510235.9194   21510236.0254
     -1964.2244      -1530.5464         57.0004         50.0004
  22375405.0614  -16150468.79743 -12572104.05842  22375404.0624   22375404.8964
      3006.4864       2342.7154         53.0004         45.0004
  23539263.2014   -1798204.39343  -1387129.78642  23539262.7054   23539260.3334
      2769.1584       2157.8084         50.0004         42.0004
  23815223.0404   -3002357.74443  -2324910.79942  23815221.6464   23815225.2434
      3561.8244       2775.4494         46.0004         41.0004
  23281642.2374  -10276716.68043  -7991194.92142  23281639.1854   23281639.1904
     -2007.8424      -1564.5714         51.0004         44.0004
 08  4 20  1  8 30.0000000  0 10G30G24G29G 5G23G31G16G13G 6G 2
  22986221.1674  -13418471.75043  -2066959.90442  22986221.0104   22986223.4904
     -3607.4094      -2810.9694         50.0004         44.0004
  23249918.8054   -9433927.03043  -7336079.71942  23249918.1164   23249921.0304
      2720.1234       2119.5694         49.0004         43.0004
  21095035.9734  -17542578.50244 -13660539.16242  21095035.0974   21095036.7364
      -283.9524       -221.2564         57.0004         52.0004
  24617860.5314   -2814986.77943  -2138118.53342  24617857.9374   24617862.7864
     -3965.9804      -3090.3704         43.0004         38.0004
  22126244.3664  -15400181.13743 -11988957.95742  22126242.5384   22126242.9454
       372.0074        289.8704         54.0004         47.0004
  21521494.9244  -21854529.15344 -15684614.99042  21521494.0764   21521494.7174
     -1980.1904      -1542.9974         57.0004         50.0004
  22358270.0564  -16240511.21843 -12642266.97242  22358268.6274   22358270.1204
      2996.1434       2334.6614         53.0004         46.0004
  23523495.6374   -1881050.61343  -1451685.23942  23523493.2954   23523495.7924
      2753.6374       2145.6864         48.0004         41.0004
  23794905.3504   -3109130.91543  -2408110.49942  23794903.8754   23794906.6304
      3555.7584       2770.7044         47.0004         41.0004
  23293153.3294  -10216214.34043  -7944050.26942  23293151.9834   23293152.7134
     -2025.7684      -1578.5114         50.0004         44.0004
 08  4 20  1  9  0.0000000  0 10G30G24G29G 5G23G31G16G13G 6G 2
  23006837.6094  -13310130.20343  -1982537.82042  23006836.6354   23006839.0034
     -3615.5814      -2817.3524         49.0004         44.0004
  23234426.6854   -9515338.65243  -7399517.45642  23234424.4364   23234428.6714
      2706.9174       2109.2874         50.0004         43.0004
  21096713.5194  -17533764.86844 -13653671.45242  21096712.3814   21096713.7534
      -303.7284       -236.6744         57.0004         52.0004
  24640508.8034   -2695974.18243  -2045381.39242  24640505.4014   24640508.9764
     -3968.2454      -3092.1424         41.0004         36.0004
  22124183.5664  -15411010.57543 -11997396.47542  22124182.4814   22124181.8074
       349.8824        272.6404         55.0004         47.0004
  21532845.4964  -21794882.46943 -15638137.30442  21532844.5934   21532845.5114
     -1996.4764      -1555.7124         56.0004         50.0004
  22341196.6694  -16330231.87843 -12712179.16442  22341194.9224   22341196.3414
      2985.2874       2326.1894         53.0004         46.0004
  23507819.8334   -1963432.10643  -1515878.60642  23507819.1824   23507821.2764
      2738.3204       2133.7394         48.0004         41.0004
  23774623.1074   -3215718.31343  -2491166.48542  23774621.8844   23774624.4284
      3549.4774       2765.8494         47.0004         41.0004
  23304769.9594  -10155175.41743  -7896487.49942  23304767.9364   23304767.7534
     -2043.6974      -1592.5144         51.0004         44.0004
 08  4 20  1  9 30.0000000  0 10G30G24G29G 5G23G31G16G13G 6G 2
  23027499.9404  -13201548.35843  -1897928.53742  23027500.0204   23027502.1014
     -3622.9114      -2823.0494         49.0004         43.0004
  23219010.8204   -9596349.39343  -7462642.69042  23219009.8174   23219013.4524
      2694.1244       2099.3164         50.0004         43.0004
  21098502.9434  -17524361.90444 -13646344.63342  21098501.8274   21098503.2634
      -322.8714       -251.6034         57.0004         52.0004
  24663168.4464   -2576891.65443  -1952589.73742  24663166.7124   24663169.5724
     -3970.0784      -3093.5684         39.0004         34.0004
  22122248.6824  -15421179.02543 -12005319.94042  22122247.7864   22122246.5974
       328.2764        255.7984         54.0004         47.0004
  21544286.9164  -21734755.82043 -15591285.28642  21544286.1784   21544286.4394
     -2011.8404      -1567.6724         56.0004         50.0004
  22324184.9404  -16419632.23343 -12781841.77842  22324183.4594   22324183.9134
      2975.0614       2318.2264         53.0004         46.0004
  23492230.7934   -2045350.93643  -1579711.45042  23492231.2834   23492231.3754
      2723.2354       2122.0374         50.0004         41.0004
  23754375.6284   -3322116.93343  -2574074.06042  23754373.8474   23754377.0804
      3543.9814       2761.5454         47.0004         42.0004
  23316484.6544  -10093604.59443  -7848510.21942  23316483.9634   23316484.8804
     -2060.6924      -1605.7484         50.0004         44.0004
 08  4 20  1 10  0.0000000  0 10G30G24G29G 5G23G31G16G13G 6G 2
  23048208.5364  -13092729.42143  -1813134.65242  23048207.1984   23048208.5194
     -3631.2434      -2829.5384         50.0004         43.0004
  23203672.3424   -9676958.23943  -7525454.98442  23203670.5934   23203674.4914
      2680.2214       2088.5194         50.0004         43.0004
  21100403.8884  -17514369.74344 -13638558.30642  21100402.9204   21100404.3014
      -342.7734       -267.0934         57.0004         52.0004
  24685841.9844    5419357.93043   4278254.02842  24685842.6104   24685845.0654
     -3972.2194      -3095.2424         39.0004         32.0004
  22120438.0624  -15430687.00043 -12012728.73342  22120437.5364   22120437.3864
       305.9754        238.4234         54.0004         47.0004
  21555819.3094  -21674151.55243 -15544060.95242  21555818.8174   21555818.9514
     -2028.0784      -1580.3244         56.0004         50.0004
  22307233.5574  -16508711.00143 -12851253.86642  22307232.1404   22307233.0404
      2963.9244       2309.5584         53.0004         46.0004
  23476731.1344   -2126804.54643  -1643181.84942  23476731.4114   23476728.1904
      2707.3314       2109.6174         49.0004         41.0004
  23734163.5584   -3428327.45243  -2656834.97942  23734162.0824   23734164.9724
      3537.1724       2756.2154         47.0004         42.0004
  23328302.7674  -10031505.52143  -7800121.33742  23328301.7574   23328301.1174
     -2078.7694      -1619.8174         50.0004         43.0004
 08  4 20  1 10 30.0000000  0 10G30G24G29G 5G23G31G16G13G 6G 2
  23068961.8924  -12983671.98343  -1728155.15542  23068960.6934   23068962.2344
     -3639.1334      -2835.7094         50.0004         43.0004
  23188410.2474   -9757158.49443  -7587948.95142  23188409.2894   23188411.9934
      2666.6634       2077.9324         50.0004         43.0004
  21102417.6874  -17503786.22844 -13630311.38442  21102416.9824   21102418.3744
      -362.4174       -282.3944         57.0004         52.0004
  24708530.397
                                        35.000
  22118757.5764  -15439530.26043 -12019619.58942  22118755.5604   22118754.7694
       283.8764        221.2034         55.0004         47.0004
  21567443.5744  -21613068.11143 -15496463.61842  21567442.7884   21567443.2214
     -2043.9314      -1592.6664         56.0004         50.0004
  22290344.5194  -16597462.33743 -12920410.75842  22290343.2424   22290344.2544
      2953.0144       2301.0414         53.0004         46.0004
  23461320.4494   -2207786.09243  -1706284.33142  23461317.2564   23461321.1064
      2691.6764       2097.3864         47.0004         41.0004
  23713989.1594   -3534344.09843  -2739444.64642  23713988.0314   23713990.1424
      3530.7114       2751.1944         47.0004         41.0004
  23340219.6174   -9968876.46943  -7751319.49942  23340218.6504   23340219.7614
     -2096.2614      -1633.4754         47.0004         43.0004
 08  4 20  1 11  0.0000000  0  9G30G24G29G23G31G16G13G 6G 2
  23089759.2734  -12874380.44443  -1642993.09742  23089758.2414   23089759.2864
     -3647.3014      -2842.0424         50.0004         43.0004
  23173227.5744   -9836949.68443  -7650123.68742  23173225.1594   23173228.2614
      2652.6764       2066.9984         49.0004         43.0004
  21104543.8514  -17492614.58144 -13621606.05342  21104542.8884   21104544.1384
      -382.4564       -298.0304         57.0004         52.0004
  22117200.6994  -15447711.84343 -12025994.83342  22117199.1094   22117198.1404
       261.3604        203.6574         55.0004         47.0004
  21579157.6754  -21551508.87043 -15448495.16942  21579156.8884   21579157.1544
     -2060.0974      -1605.2864         56.0004         50.0004
  22273517.4284  -16685887.83643 -12989313.73042  22273516.2264   22273517.7814
      2941.7354       2292.2474         53.0004         46.0004
  23445999.5744   -2288296.60643  -1769019.75842  23445997.0114   23446001.5544
      2675.6314       2084.8774         49.0004         41.0004
  23693849.7184   -3640168.86443  -2821905.11642  23693848.4834   23693851.0024
      3523.9554       2745.9234         46.0004         41.0004
  23352237.2084   -9905722.83043  -7702108.88642  23352236.6234   23352237.7094
     -2113.9864      -1647.2564         48.0004         43.0004
 08  4 20  1 11 30.0000000  0  9G30G24G29G23G31G16G13G 6G 2
  23110601.2744  -12764853.70543  -1557647.31642  23110599.9964   23110600.4744
     -3655.5014      -2848.4514         49.0004         43.0004
  23158120.1564   -9916326.27043  -7711974.96642  23158119.0234   23158123.5664
      2638.3824       2055.8504         48.0004         43.0004
  21106781.5524  -17480852.53244 -13612440.58542  21106780.9284   21106781.9984
      -402.6274       -313.7424         57.0004         52.0004
  22115769.5124  -15455227.94843 -12031851.54442  22115768.2644   22115767.6114
       238.7704        186.0664         54.0004         47.0004
  21590962.4074  -21489473.32543 -15400155.76042  21590961.7424   21590962.0964
     -2076.5634      -1618.1124         56.0004         50.0004
  22256754.0694  -16773982.20043 -13057958.69842  22256752.9094   22256753.8574
      2930.2234       2283.3074         53.0004         46.0004
  23430768.9494   -2368329.35343  -1831382.89342  23430768.4904   23430770.1294
      2659.0204       2071.9674         48.0004         41.0004
  23673750.4084   -3745796.11843  -2904211.94642  23673749.5284   23673752.5044
      3517.0684       2740.5724         47.0004         41.0004
  23364356.6184   -9842043.70643  -7652488.85542  23364355.5354   23364355.2724
     -2132.1674      -1661.4524         49.0004         43.0004
 08  4 20  1 12  0.0000000  0  9G30G24G29G23G31G16G13G 6G 2
  23131486.7994  -12655099.18043  -1472124.11242  23131486.4904   23131488.5024
     -3662.1284      -2853.6114         49.0004         43.0004
  23143094.2184   -9995291.43343  -7773506.08442  23143092.8384   23143095.9774
      2625.5844       2045.9104         49.0004         43.0004
  21109131.3414  -17468505.69544 -13602819.60242  21109130.5174   21109131.3904
      -421.2584       -328.2604         57.0004         52.0004
  22114465.2354  -15462082.78543 -12037192.98842  22114463.4594   22114463.4664
       217.5784        169.5344         54.0004         47.0004
  21602856.8784  -21426966.98643 -15351449.37842  21602856.0614   21602856.5724
     -2091.2624      -1629.5714         56.0004         50.0004
  22240052.9394  -16861747.81643 -13126347.41542  22240051.3604   22240052.3224
      2920.0304       2275.3444         53.0004         46.0004
  23415631.7174   -2447886.70643  -1893375.62942  23415629.5764   23415628.7534
      2643.8134       2060.1304         50.0004         42.0004
  23653687.8824   -3851228.02343  -2986366.67442  23653685.7704   23653688.6294
      3511.3064       2736.0874         46.0004         41.0004
  23376573.9054   -9777845.64443  -7602464.37542  23376570.6224   23376572.2214
     -2148.5814      -1674.2264         49.0004         43.0004
 08  4 20  1 12 30.0000000  0  9G30G24G29G23G31G16G13G 6G 2
  23152415.6564  -12545116.46043  -1386423.21642  23152414.6194   23152417.6604
     -3669.9744      -2859.6914         49.0004         43.0004
  23128147.1894  -10073839.18643  -7834712.01842  23128145.3964   23128148.5494
      2611.2904       2034.7884         49.0004         43.0004
  21111593.0414  -17455571.19444 -13592740.75942  21111591.8394   21111592.8004
      -441.1184       -343.7214         58.0004         52.0004
  22113286.9814  -15468273.40043 -12042016.85142  22113285.5944   22113284.8314
       195.1334        152.0604         55.0004         47.0004
  21614841.3044  -21363989.01043 -15302375.61742  21614840.5074   21614841.0854
     -2107.2644      -1641.9994         56.0004         50.0004
  22223414.6484  -16949180.37143 -13194476.64042  22223413.5544   22223414.6004
      2908.7864       2266.5914         53.0004         46.0004
  23400582.7314   -2526963.26343  -1954993.67542  23400581.8434   23400582.0524
      2627.5284       2047.4314         49.0004         42.0004
  23633662.5954   -3956460.09343  -3068365.96342  23633661.3144   23633663.4604
      3504.4754       2730.7554         47.0004         41.0004
  23388888.4334   -9713127.95943  -7552035.05842  23388887.4074   23388887.9244
     -2166.0504      -1687.8264         49.0004         44.0004
 08  4 20  1 13  0.0000000  0  9G30G24G29G23G31G16G13G 6G 2
  23173387.1764  -12434909.91643  -1300548.00942  23173385.6194   23173387.2094
     -3677.3714      -2865.4764         49.0004         43.0004
  23113279.6574  -10151969.52243  -7895592.73042  23113277.9454   23113281.1694
      2597.1714       2023.7724         50.0004         43.0004
  21114164.9284  -17442052.44244 -13582206.77842  21114164.3004   21114165.6194
      -460.5754       -358.8944         57.0004         52.0004
  22112235.2304  -15473801.73143 -12046324.64142  22112234.0404   22112233.6244
       173.1154        134.8934         55.0004         47.0004
  21626914.8284  -21300544.19643 -15252938.37342  21626914.1044   21626914.1614
     -2122.6894      -1654.0344         56.0004         50.0004
  22206840.2814  -17036280.76043 -13262347.07742  22206839.0664   22206839.6624
      2897.5984       2257.8684         53.0004         46.0004
  23385625.8284   -2605558.28943  -2016236.56142  23385625.9404   23385626.9514
      2611.6494       2035.0604         49.0004         42.0004
  23613676.6384   -4061492.77443  -3150210.16942  23613674.7004   23613677.2224
      3497.5184       2725.3434         48.0004         42.0004
  23401301.3044   -9647895.21643  -7501204.36542  23401300.4914   23401301.0374
     -2183.1184      -1701.0964         49.0004         44.0004
 08  4 20  1 13 30.0000000  0  9G30G24G29G23G31G16G13G 6G 2
  23194401.3704  -12324476.81843  -1214496.25542  23194400.6974   23194402.6044
     -3685.0764      -2871.5014         49.0004         43.0004
  23098492.5174  -10229675.39243  -7956142.77842  23098491.9284   23098493.8554
      2583.1444       2012.8354         50.0004         43.0004
  21116849.8854  -17427945.32444 -13571214.32942  21116848.8574   21116850.3114
      -480.1544       -374.1494         57.0004         52.0004
  22111311.1444  -15478662.99743 -12050112.62242  22111308.9204   22111308.0094
       150.9044        117.5894         55.0004         47.0004
  21639077.3284  -21236627.66543 -15203133.09842  21639076.7024   21639077.0824
     -2138.4654      -1666.3414         56.0004         50.0004
  22190330.2094  -17123042.12343 -13329953.34942  22190328.8994   22190329.5884
      2886.3054       2249.0704         54.0004         46.0004
  23370762.2974   -2683664.65843  -2077098.68542  23370762.3104   23370763.0034
      2595.5844       2022.5364         48.0004         41.0004
  23593728.8894   -4166316.66043  -3231890.77942  23593727.2434   23593729.4974
      3490.7364       2720.0624         47.0004         42.0004
  23413812.9144   -9582145.34543  -7449970.73442  23413812.6834   23413812.2394
     -2200.1744      -1714.4384         51.0004         44.0004
 08  4 20  1 14  0.0000000  0  9G30G24G29G23G31G16G13G 6G 2
  23215457.9174  -12213822.67043  -1128272.28942  23215458.0044   23215460.0954
     -3692.1554      -2877.0104         48.0004         42.0004
  23083786.3674  -10306956.92143  -8016362.11742  23083785.6634   23083788.0734
      2568.8774       2001.7214         50.0004         44.0004
  21119645.6714  -17413253.12744 -13559765.69342  21119644.8974   21119645.8574
      -499.5394       -389.2574         58.0004         52.0004
  22110511.9544  -15482860.03543 -12053383.06042  22110510.0984   22110509.6244
       128.8724        100.4234         54.0004         47.0004
  21651329.0524  -21172244.91943 -15152964.48142  21651328.3944   21651328.3124
     -2153.7574      -1678.2484         56.0004         50.0004
  22173884.5314  -17209465.48043 -13397296.22342  22173883.2594   22173883.9284
      2875.0614       2240.3024         54.0004         46.0004
  23355992.7164   -2761282.92943  -2137580.46242  23355992.5864   23355992.0654
      2579.1704       2009.7424         49.0004         42.0004
  23573820.0264   -4270934.73943  -3313411.00242  23573819.0214   23573821.4414
      3484.0614       2714.8554         47.0004         42.0004
  23426421.7324   -9515883.63243  -7398338.25242  23426420.7934   23426422.1344
     -2217.1554      -1727.6634         49.0004         44.0004
 08  4 20  1 14 30.0000000  0  9G30G24G29G23G31G16G13G 6G 2
  23236557.2304  -12102949.41043  -1041877.56942  23236555.9014   23236557.3884
     -3699.5124      -2882.7304         48.0004         42.0004
  23069161.7304  -10383811.23043  -8076248.55242  23069160.6814   23069162.9194
      2554.6824       1990.6774         50.0004         44.0004
  21122552.5564  -17397976.83544 -13547861.99642  21122551.8024   21122552.8274
      -519.0004       -404.4194         58.0004         52.0004
  22109839.1654  -15486392.43443 -12056135.56642  22109837.3384   22109837.3524
       106.5564         83.0354         54.0004         47.0004
  21663669.3624  -21107397.50944 -15102434.00042  21663668.3744   21663668.5714
     -2169.3104      -1690.3694         57.0004         50.0004
  22157503.6004  -17295548.68743 -13464374.02342  22157502.1044   22157502.9534
      2863.5984       2231.3854         54.0004         46.0004
  23341316.9414   -2838409.57943  -2197679.17342  23341316.7924   23341317.1904
      2562.8494       1997.0424         50.0004         42.0004
  23553951.5934   -4375344.78843  -3394769.33742  23553950.9194   23553953.3354
      3476.4274       2708.9154         48.0004         42.0004
  23439128.3264   -9449111.69943  -7346308.21642  23439128.4854   23439128.4124
     -2234.3124      -1741.0084         51.0004         44.0004
 08  4 20  1 15  0.0000000  0  9G30G24G29G23G31G16G13G 6G 2
  23257696.8004  -11991863.17043   -955316.77542  23257696.3824   23257697.7224
     -3707.0904      -2888.6464         50.0004         43.0004
  23054617.4384  -10460239.87243  -8135803.29542  23054616.4264   23054619.9934
      2539.7784       1979.0594         50.0004         44.0004
  21125569.4934  -17382120.73444 -13535506.54942  21125568.8954   21125570.0114
      -538.9734       -419.9814         58.0004         52.0004
  22109292.8704  -15489263.79643 -12058372.97742  22109291.6154   22109290.6544
        83.8734         65.3484         55.0004         47.0004
  21676096.2784  -21042091.18143 -15051545.96642  21676095.3994   21676096.1264
     -2185.3344      -1702.8654         56.0004         50.0004
  22141186.8214  -17381293.84043 -13531188.38542  22141185.1514   22141185.3534
      2851.6774       2222.0884         54.0004         46.0004
  23326733.0954   -2915046.36343  -2257396.15542  23326731.4914   23326731.8234
      2545.4224       1983.4274         49.0004         41.0004
  23534121.8904   -4479548.48643  -3475966.95542  23534119.8114   23534123.6324
      3468.8434       2702.9694         48.0004         42.0004
  23451929.8104   -9381836.02843  -7293885.69342  23451930.3494   23451931.1744
     -2251.5364      -1754.4624         49.0004         43.0004
 08  4 20  1 15 30.0000000  0 10G30G24G29G23G31G16G13G10G 6G 2
  23278877.2514  -11880558.61543   -868585.93842  23278876.3914   23278877.1954
     -3713.3494      -2893.5154         50.0004         43.0004
  23040155.8684  -10536232.29843  -8195018.10342  23040154.4764   23040158.1634
      2526.3414       1968.5704         50.0004         44.0004
  21128698.7854  -17365677.90944 -13522693.94842  21128697.8974   21128698.9454
      -557.4814       -434.3984         57.0004         52.0004
  22108873.9594  -15491466.03043 -12060089.01342  22108872.2824   22108871.7824
        62.6824         48.8444         55.0004         47.0004
  21688612.2484  -20976319.20543 -15000295.06342  21688611.6094   21688611.9994
     -2199.7064      -1714.0554         56.0004         50.0004
  22124936.1974  -17466691.16643 -13597731.72142  22124934.6644   22124935.3524
      2841.1914       2213.9164         54.0004         46.0004
  23312246.3884   -2991182.46743  -2316722.98942  23312245.2714   23312244.4724
      2529.6444       1971.1284         51.0004         42.0004
  24852048.4364   -1462569.19943  -1127589.79742  24852047.6784   24852048.4664
      3112.1874       2425.0754         41.0004         35.0004
  23514333.1854   -4583535.75343  -3556995.88542  23514331.5944   23514334.4924
      3463.0024       2698.4394         48.0004         42.0004
  23464830.5164   -9314050.75343  -7241066.03642  23464828.5664   23464828.9534
     -2267.7044      -1767.0164         48.0004         43.0004
 08  4 20  1 16  0.0000000  0 10G30G24G29G23G31G16G13G10G 6G 2
  23300098.2534  -11769041.96243   -781689.93642  23300097.5664   23300098.4114
     -3720.8294      -2899.3404         50.0004         43.0004
  23025778.8254  -10611790.44443  -8253894.62042  23025776.9714   23025780.7244
      2511.4234       1956.9654         50.0004         44.0004
  21131938.2564  -17348653.16544 -13509427.93742  21131937.4624   21131938.7114
      -577.1704       -449.7434         57.0004         52.0004
  22108581.4884  -15493003.38343 -12061286.94342  22108579.6384   22108578.7674
        40.1284         31.2564         55.0004         47.0004
  21701215.9034  -20910087.62043 -14948686.01142  21701215.0274   21701215.2584
     -2215.3684      -1726.2574         56.0004         50.0004
  22108750.9824  -17551743.05043 -13664005.93842  22108749.5264   22108750.4804
      2829.2044       2204.5824         54.0004         46.0004
  23297852.0484   -3066819.68443  -2375661.07742  23297850.8074   23297850.8924
      2512.6894       1957.9024         50.0004         42.0004
  24834316.4184   -1555769.55953  -1200213.58352  24834311.9714   24834316.4614
      3099.8394       2415.4424         37.0004         33.0004
  23494587.0224   -4687308.58643  -3637857.75642  23494586.7654   23494587.8954
      3455.4614       2692.5624         49.0004         42.0004
  23477823.2754   -9245762.59243  -7187854.53842  23477823.3044   23477824.8714
     -2284.7774      -1780.3164         48.0004         42.0004
 08  4 20  1 16 30.0000000  0 10G30G24G29G23G31G16G13G 6G 2G21
  23321357.8134  -11657318.57443   -694632.80642  23321356.8514   23321358.6104
     -3727.4744      -2904.4984         48.0004         42.0004
  23011482.0724  -10686915.20743  -8312433.38742  23011481.2864   23011484.8804
      2496.7784       1945.5434         50.0004         44.0004
  21135288.2964  -17331050.85944 -13495711.82642  21135287.3014   21135288.2544
      -596.4094       -464.7334         58.0004         52.0004
  22108413.8804  -15493879.37943 -12061969.53042  22108412.9304   22108412.2734
        18.1494         14.1444         54.0004         47.0004
  21713905.9814  -20843401.81943 -14896723.05042  21713904.9094   21713904.9524
     -2230.4404      -1738.0024         56.0004         50.0004
  22092631.5754  -17636451.43643 -13730012.47742  22092630.0814   22092630.8694
      2817.8454       2195.7394         54.0004         47.0004
  23283552.1954   -3141959.02443  -2434211.18942  23283551.1844   23283553.9184
      2496.2114       1945.1144         49.0004         42.0004
  23474879.8704   -4790868.88243  -3718554.17842  23474878.9194   23474881.1824
      3448.3094       2686.9884         48.0004         42.0004
  23490912.4324   -9176977.74143  -7134256.00342  23490911.5324   23490914.1234
     -2300.9554      -1792.9434         47.0004         42.0004
  25520507.979
                                        43.000
 08  4 20  1 17  0.0000000  0 10G30G24G29G23G31G16G13G 6G 2G21
  23342658.2284  -11545379.96443   -607407.92342  23342657.2344   23342659.2364
     -3734.8544      -2910.2754         47.0004         42.0004
  22997271.6544  -10761593.32943  -8370624.11842  22997270.4044   22997273.6164
      2481.8614       1933.9204         50.0004         44.0004
  21138749.8894  -17312860.91244 -13481537.82042  21138748.7204   21138749.5024
      -616.1584       -480.1244         58.0004         52.0004
  22108375.5974  -15494082.89043 -12062128.08342  22108373.9714   22108373.1764
        -4.5164         -3.5184         54.0004         47.0004
  21726684.0444  -20776253.06943 -14844399.73042  21726683.1024   21726683.3864
     -2246.0694      -1750.1704         56.0004         50.0004
  22076580.0674  -17720803.13943 -13795741.04942  22076578.3284   22076579.0804
      2805.7614       2186.3084         54.0004         47.0004
  23269353.7204   -3216586.48843  -2492362.48742  23269351.8454   23269352.9594
      2478.8844       1931.6074         50.0004         42.0004
  23455215.0424   -4894202.88543  -3799074.06042  23455213.6904   23455216.6364
      3440.5264       2680.9224         47.0004         42.0004
  23504100.7574   -9107687.09043  -7080263.25842  23504099.0324   23504098.3304
     -2318.1854      -1806.3994         49.0004         43.0004
  25500119.7144   -1540857.51443  -1172151.06142  25500117.8724   25500118.7704
      3570.8104       2782.4444         44.0004         36.0004
 08  4 20  1 17 30.0000000  0 11G30G24G29G23G31G16G13G10G 6G 2G21
  23363998.6214  -11433238.83243   -520025.26642  23363997.7634   23363999.4294
     -3741.5574      -2915.5094         48.0004         42.0004
  22983144.0114  -10835832.49043  -8428472.78142  22983142.9224   22983146.6734
      2467.1134       1922.4524         49.0004         44.0004
  21142320.5394  -17294094.42944 -13466914.62742  21142319.6604   21142320.6824
      -635.3714       -495.0924         57.0004         52.0004
  22108462.6764  -15493624.20643 -12061770.63542  22108461.0164   22108460.7554
       -26.4734        -20.6354         54.0004         47.0004
  21739548.0574  -20708652.47243 -14791724.12842  21739547.0864   21739547.4524
     -2261.2044      -1761.9874         56.0004         50.0004
  22060594.5444  -17804806.77243 -13861198.38242  22060593.3764   22060593.9774
      2794.0874       2177.2124         54.0004         47.0004
  23255245.1074   -3290710.36743  -2550121.32142  23255245.8254   23255245.6344
      2462.1784       1918.5774         49.0004         42.0004
  24781481.2914   -1502475.00943  -1160511.78542  24781480.3704   24781485.6454
      3068.2474       2390.8454         44.0004         38.0004
  23435594.0074   -4997319.28443  -3879424.42142  23435592.1794   23435592.9534
      3433.2884       2675.2834         48.0004         42.0004
  23517378.3134   -9037903.71743  -7025886.61742  23517378.2104   23517379.0204
     -2334.4864      -1819.0454         47.0004         43.0004
  25479737.5224   -1647965.87943  -1255612.13642  25479734.9414   25479735.2334
      3569.3064       2781.2764         44.0004         36.0004
 08  4 20  1 18  0.0000000  0 11G30G24G29G23G31G16G13G10G 6G 2G21
  23385378.2254  -11320895.17343   -432484.80642  23385377.0044   23385377.7884
     -3748.0904      -2920.5904         49.0004         43.0004
  22969101.5294  -10909627.91443  -8485975.66742  22969100.2284   22969103.6214
      2452.4944       1911.0554         50.0004         44.0004
  21146001.6394  -17274750.18144 -13451841.21742  21146000.8364   21146001.6994
      -654.4404       -509.9514         57.0004         52.0004
  22108677.0584  -15492501.06843 -12060895.41242  22108675.5584   22108675.0064
       -48.5944        -37.8644         55.0004         47.0004
  21752497.9534  -20640598.97843 -14738695.28442  21752497.1714   21752497.4094
     -2275.9494      -1773.4614         56.0004         50.0004
  22044676.5284  -17888458.19543 -13926381.30042  22044675.2584   22044675.9874
      2782.6184       2168.2714         54.0004         47.0004
  23241239.1224   -3364325.34443  -2607483.61742  23241238.0084   23241238.1394
      2445.2914       1905.3894         49.0004         41.0004
  24763997.9474   -1594360.15143  -1232110.77542  24763995.0794   24763997.8054
      3057.3334       2382.3404         47.0004         40.0004
  23416012.6484   -5100213.49143  -3959601.63542  23416011.7334   23416014.5484
      3426.1404       2669.6974         48.0004         42.0004
  23530753.0854   -8967627.39443  -6971125.86742  23530752.5194   23530751.1374
     -2350.5764      -1831.6064         49.0004         43.0004
  25459361.8664   -1755037.49843  -1339044.57242  25459359.9644   25459360.7434
      3568.3554       2780.5384         44.0004         36.0004
 08  4 20  1 18 30.0000000  0 11G30G24G29G23G31G16G13G10G 6G 2G21
  23406794.7684  -11208349.67743   -344787.00142  23406793.8024   23406795.1594
     -3755.0284      -2926.0084         50.0004         43.0004
  22955143.0414  -10982976.70543  -8543130.52242  22955142.0114   22955145.0754
      2437.5724       1899.4054         50.0004         44.0004
  21149793.3724  -17254828.18044 -13436317.61542  21149792.1724   21149792.9854
      -673.7314       -524.9894         57.0004         52.0004
  22109016.2164  -15490712.93743 -12059502.01842  22109015.4164   22109014.6434
       -70.7584        -55.1384         54.0004         47.0004
  21765533.7144  -20572094.17243 -14685314.82342  21765533.2234   21765533.7304
     -2291.0764      -1785.2554         55.0004         50.0004
  22028826.0294  -17971755.05943 -13991287.95042  22028823.8594   22028825.0934
      2770.6054       2158.9194         54.0004         47.0004
  23227327.7454   -3437428.07843  -2664446.72442  23227327.2414   23227328.1964
      2428.1304       1892.0594         51.0004         42.0004
  24746577.3804   -1685908.46143  -1303447.05442  24746573.7094   24746576.4874
      3045.8294       2373.3714         48.0004         41.0004
  23396475.6904   -5202882.96343  -4039603.79742  23396474.8054   23396476.4104
      3418.4684       2663.7604         49.0004         42.0004
  23544221.0764   -8896860.01643  -6915982.41542  23544217.6364   23544217.5714
     -2367.1814      -1844.5834         51.0004         43.0004
  25438993.2574   -1862069.11243  -1422445.88142  25438991.6334   25438992.7854
      3567.1014       2779.5604         44.0004         36.0004
 08  4 20  1 19  0.0000000  0 11G30G24G29G23G31G16G13G10G 6G 2G21
  23428248.9384  -11095604.90743   -256933.97042  23428248.4984   23428249.7694
     -3762.1224      -2931.5034         49.0004         42.0004
  22941271.6094  -11055876.05243  -8599935.15042  22941270.7924   22941273.0494
      2421.8694       1887.1664         50.0004         44.0004
  21153693.4594  -17234328.93544 -13420344.16142  21153692.7274   21153693.7064
      -693.4634       -540.3644         57.0004         51.0004
  22109483.7864  -15488259.87243 -12057590.52142  22109482.1684   22109481.7014
       -93.4204        -72.7924         55.0004         47.0004
  21778655.5254  -20503140.73643 -14631585.00242  21778654.9444   21778655.4514
     -2306.5054      -1797.2814         56.0004         50.0004
  22013042.6184  -18054695.41843 -14055916.88842  22013041.3974   22013042.3854
      2758.1304       2149.1884         55.0004         47.0004
  23213513.7174   -3510016.38843  -2721009.06242  23213512.6224   23213515.0194
      2410.6034       1878.4004         49.0004         42.0004
  24729219.5214   -1777117.48743  -1374519.09542  24729216.7894   24729220.9594
      3034.1494       2364.2754         47.0004         41.0004
  23376981.7834   -5305325.33243  -4119428.97742  23376981.2224   23376982.8584
      3410.2284       2657.3014         48.0004         43.0004
  23557778.9044   -8825604.12243  -6860458.35042  23557776.6394   23557777.0664
     -2383.8044      -1857.5344         50.0004         43.0004
  25418635.2544   -1969058.78643  -1505814.53942  25418633.4554   25418633.7044
      3564.8044       2777.7794         44.0004         37.0004
 08  4 20  1 19 30.0000000  0 11G30G24G29G23G31G16G13G10G 6G 2G21
  23449741.1784  -10982660.92243   -168925.66742  23449740.0524   23449743.2334
     -3767.8614      -2936.0114         48.0004         42.0004
  22927485.6194  -11128321.64843  -8656386.23842  22927484.5154   22927487.1644
      2407.2864       1875.8244         51.0004         44.0004
  21157704.6324  -17213251.12644 -13403919.88042  21157703.6904   21157704.8694
      -712.1184       -554.8954         57.0004         51.0004
  22110077.5334  -15485139.70443 -12055159.21242  22110076.0894   22110075.2684
      -115.0384        -89.6394         55.0004         47.0004
  21791862.4874  -20433737.26243 -14577504.31742  21791861.8554   21791862.0634
     -2320.7674      -1808.3864         56.0004         50.0004
  21997328.6224  -18137275.13743 -14120264.80742  21997327.0164   21997328.2474
      2746.7884       2140.3554         55.0004         47.0004
  23199799.9264   -3582085.44143  -2777166.69342  23199798.4834   23199799.9954
      2393.7344       1865.2304         51.0004         42.0004
  24711928.7684   -1867981.17943  -1445322.03442  24711926.8454   24711929.4344
      3023.2404       2355.7804         47.0004         41.0004
  23357531.0724   -5407536.74843  -4199074.31342  23357529.5124   23357533.4494
      3403.3584       2651.9684         48.0004         42.0004
  23571430.7724   -8753859.68543  -6804553.79642  23571430.6104   23571430.3444
     -2399.4934      -1869.7524         50.0004         43.0004
  25398284.3234   -2076001.47043  -1589146.61142  25398282.2644   25398284.8704
      3563.9464       2777.0934         44.0004         37.0004
 08  4 20  1 20  0.0000000  0 11G30G24G29G23G31G16G13G10G 6G 2G21
  23471270.5794  -10869522.75043    -80766.09942  23471269.7334   23471272.9004
     -3774.4654      -2941.1364         49.0004         42.0004
  22913786.4224  -11200313.64343  -8712483.90042  22913784.6034   22913787.5544
      2392.0704       1863.9584         51.0004         44.0004
  21161824.9864  -17191598.64544 -13387047.85742  21161824.0414   21161825.1944
      -731.3924       -569.9234         57.0004         52.0004
  22110797.7184  -15481354.81243 -12052209.91442  22110796.4374   22110795.6894
      -137.2714       -106.9624         55.0004         47.0004
  21805154.0924  -20363887.83543 -14523076.02742  21805153.2814   21805153.4704
     -2335.7364      -1820.0684         55.0004         49.0004
  21981682.0954  -18219494.79143 -14184332.06342  21981680.9804   21981681.4594
      2734.6234       2130.8744         55.0004         47.0004
  23186182.8784   -3653634.95743  -2832919.49442  23186181.2754   23186184.4834
      2376.2994       1851.6454         49.0004         42.0004
  24694704.0204   -1958499.77443  -1515856.11642  24694701.6554   24694704.8604
      3011.4014       2346.5464         47.0004         41.0004
  23338125.8114   -5509517.64943  -4278540.20542  23338123.9054   23338124.6984
      3395.4664       2645.8064         48.0004         43.0004
  23585177.4174   -8681631.03643  -6748271.51842  23585173.1514   23585173.1754
     -2415.9524      -1882.5954         46.0004         42.0004
  25377943.9254   -2182897.22343  -1672442.16242  25377941.3934   25377942.8864
      3562.1914       2775.7354         44.0004         37.0004
 08  4 20  1 20 30.0000000  0 11G30G24G29G23G31G16G13G10G 6G 2G21
  23492836.7264  -10756194.43543      7541.57942  23492836.4524   23492838.2694
     -3781.4644      -2946.6474         48.0004         42.0004
  22900173.0454  -11271851.74043  -8768228.01442  22900171.8984   22900173.8314
      2376.8104       1852.0594         51.0004         44.0004
  21166054.1924  -17169374.12044 -13369730.06342  21166053.1934   21166054.3264
      -750.6924       -584.9474         57.0004         52.0004
  22111643.9654  -15476907.56943 -12048744.52342  22111642.7094   22111641.8174
      -159.6814       -124.4174         55.0004         47.0004
  21818529.8654  -20293596.75043 -14468303.70442  21818529.2924   21818529.6964
     -2350.8204      -1831.8164         55.0004         49.0004
  21966104.7994  -18301354.71943 -14248118.96642  21966103.5884   21966104.2944
      2722.2714       2121.2434         55.0004         47.0004
  23172668.0954   -3724664.86843  -2888267.43242  23172667.3634   23172668.0554
      2358.5934       1837.8814         50.0004         42.0004
  24677543.3224   -2048672.01343  -1586120.31142  24677542.4934   24677544.7694
      2999.5934       2337.3414         43.0004         37.0004
  23318763.6644   -5611267.08543  -4357825.54342  23318761.8364   23318763.2354
      3387.3244       2639.4724         49.0004         43.0004
  23599011.4454   -8608923.33743  -6691616.12342  23599009.9324   23599009.6914
     -2431.9864      -1895.0374         47.0004         42.0004
  25357610.9234   -2289745.75343  -1755700.88242  25357607.6984   25357610.4474
      3560.4074       2774.3474         43.0004         37.0004
 08  4 20  1 21  0.0000000  0 11G30G24G29G23G31G16G13G10G 6G 2G21
  23514439.0074  -10642673.21743     95999.57342  23514438.1874   23514439.5124
     -3787.5404      -2951.3314         48.0004         41.0004
  22886647.2624  -11342928.61343  -8823612.59642  22886646.5554   22886649.1924
      2361.3064       1839.9694         50.0004         44.0004
  21170392.9974  -17146574.09644 -13351963.92542  21170392.1014   21170393.3214
      -769.6524       -599.7194         57.0004         51.0004
  22112617.3244  -15471793.63743 -12044759.65142  22112615.9054   22112615.4964
      -181.6614       -141.5544         55.0004         47.0004
  21831990.6474  -20222860.99043 -14413184.94042  21831989.9264   21831990.2274
     -2365.2904      -1843.1024         55.0004         49.0004
  21950597.4794  -18382848.51843 -14311620.63142  21950595.8894   21950596.7214
      2710.3044       2111.9294         55.0004         47.0004
  23159250.9174   -3795167.56543  -2943204.54042  23159251.0284   23159252.1454
      2341.4374       1824.5014         50.0004         42.0004
  24660452.9754   -2138490.58043  -1656109.30142  24660451.4804   24660454.5424
      2987.8324       2328.1694         40.0004         36.0004
  23299446.3614   -5712778.83043  -4436925.58442  23299443.1784   23299446.8684
      3379.6274       2633.4594         49.0004         43.0004
  23612937.0034   -8535734.37543  -6634585.76342  23612936.9524   23612937.3024
     -2447.6924      -1907.2994         46.0004         42.0004
  25337287.6944   -2396540.21143  -1838917.45642  25337287.5444   25337287.0074
      3558.6114       2772.9314         42.0004         37.0004
 08  4 20  1 21 30.0000000  0 11G30G24G29G23G31G16G13G10G 6G 2G21
  23536077.5004  -10528963.10143    184604.91742  23536076.3544   23536078.1174
     -3793.6674      -2956.0804         48.0004         42.0004
  22873209.6704  -11413543.99943  -8878637.45742  22873208.9374   22873210.4344
      2345.8634       1827.9484         51.0004         44.0004
  21174840.5094  -17123201.29544 -13333751.40242  21174839.7844   21174840.7894
      -788.7974       -614.6534         57.0004         51.0004
  22113716.8954  -15466014.98543 -12040256.80842  22113715.3964   22113714.6584
      -203.8254       -158.8174         55.0004         47.0004
  21845535.3054  -20151684.24343 -14357722.45642  21845534.3364   21845534.2694
     -2380.0914      -1854.6284         56.0004         49.0004
  21935159.0114  -18463976.62743 -14374837.35842  21935157.4324   21935158.4934
      2698.0044       2102.3544         55.0004         47.0004
  23145934.1574   -3865142.87343  -2997730.66142  23145933.8654   23145936.7004
      2323.4464       1810.4494         49.0004         42.0004
  24643429.7414   -2227953.71543  -1725820.77442  24643424.6194   24643430.0724
      2976.1264       2319.0594         44.0004         35.0004
  23280174.3844   -5814052.87943  -4515840.40442  23280172.1734   23280174.8414
      3371.7624       2627.3374         49.0004         43.0004
  23626958.1674   -8462068.93843  -6577184.16042  23626956.5404   23626955.1754
     -2463.5724      -1919.6474         47.0004         42.0004
  25316975.7104   -2503280.48143  -1922091.75142  25316972.4904   25316973.6684
      3556.7134       2771.4684         44.0004         37.0004
 08  4 20  1 22  0.0000000  0 11G30G24G29G23G31G16G13G10G 6G 2G21
  23557751.4554  -10415066.55843    273355.46642  23557749.7534   23557752.0514
     -3799.2604      -2960.4564         48.0004         42.0004
  22859860.1614  -11483695.75443  -8933301.07242  22859859.2404   22859861.8794
      2330.7524       1816.1684         51.0004         45.0004
  21179396.9024  -17099256.45644 -13315092.83942  21179395.9784   21179397.0164
      -807.5354       -629.2424         57.0004         51.0004
  22114943.4634  -15459572.02343 -12035236.31842  22114941.8574   22114940.7624
      -225.6544       -175.8454         55.0004         47.0004
  21859163.3034  -20080068.81543 -14301918.24642  21859162.2124   21859162.2954
     -2394.3254      -1865.7104         55.0004         49.0004
  21919790.4024  -18544736.91343 -14437767.51442  21919789.2204   21919789.9604
      2685.8954       2092.8894         54.0004         47.0004
  23132720.5734   -3934588.25443  -3051843.90142  23132719.7234   23132720.0574
      2305.9274       1796.8284         49.0004         42.0004
  24626472.9334   -2317058.73343  -1795253.18642  24626470.8624   24626471.7674
      2963.9644       2309.5794         45.0004         35.0004
  23260948.1884   -5915086.97943  -4594568.16542  23260946.7594   23260949.4174
      3363.9884       2621.2814         48.0004         43.0004
  23641066.5734   -8387928.87643  -6519412.70142  23641065.0044   23641064.5054
     -2478.9444      -1931.6464         50.0004         42.0004
  25296674.5854   -2609963.45143  -2005221.49542  25296673.4964   25296674.9024
      3555.2384       2770.3144         45.0004         38.0004
 08  4 20  1 22 30.0000000  0 11G30G24G29G23G31G16G13G10G 6G 2G21
  23579460.9284  -10300986.85243    362248.69842  23579460.1294   23579460.5824
     -3806.0024      -2965.6974         48.0004         42.0004
  22846599.2054  -11553382.32343  -8987602.29542  22846597.6504   22846601.5734
      2314.6874       1803.6514         50.0004         44.0004
  21184062.2254  -17074741.98644 -13295990.72942  21184061.2654   21184062.1354
      -827.0784       -644.4784         57.0004         51.0004
  22116294.7944  -15452465.49143 -12029698.74842  22116294.0104   22116293.1484
      -248.3774       -193.5364         55.0004         47.0004
  21872874.2424  -20008016.81343 -14245773.78942  21872873.5254   21872873.5854
     -2409.4494      -1877.5004         55.0004         49.0004
  21904492.6514  -18625127.80943 -14500409.59442  21904491.3004   21904491.9614
      2673.1204       2082.9464         55.0004         47.0004
  23119606.0604   -4003501.87943  -3105542.79642  23119605.4484   23119607.4194
      2287.7854       1782.6824         50.0004         43.0004
  24609583.9424   -2405803.26943  -1864404.94042  24609584.2024   24609586.1344
      2951.7334       2300.0434         44.0004         37.0004
  23241767.2864   -6015879.99843  -4673108.06142  23241766.8864   23241769.5814
      3355.2694       2614.4894         48.0004         43.0004
  23655266.6394   -8313317.81943  -6461274.22242  23655262.9434   23655262.5164
     -2495.2214      -1944.3664         52.0004         42.0004
  25276384.5654   -2716587.80543  -2088305.45542  25276383.6584   25276386.4684
      3552.8084       2768.4354         43.0004         38.0004
 08  4 20  1 23  0.0000000  0 11G30G24G29G23G31G16G13G10G 6G 2G21
  23601204.2734  -10186722.49543    451285.71842  23601203.5514   23601205.0404
     -3811.3124      -2969.8494         49.0004         42.0004
  22833427.5164  -11622597.75043  -9041536.39042  22833426.2734   22833429.1014
      2299.8524       1792.0884         50.0004         44.0004
  21188835.8794  -17049654.87044 -13276442.36042  21188835.3174   21188836.1294
      -845.2064       -658.6044         57.0004         51.0004
  22117774.1344  -15444692.36243 -12023641.73642  22117772.6944   22117772.4804
      -269.6274       -210.0974         55.0004         47.0004
  21886668.6484  -19935526.69743 -14189287.97742  21886667.6314   21886667.9904
     -2423.1074      -1888.1244         55.0004         49.0004
  21889266.3274  -18705145.53543 -14562761.45042  21889264.8794   21889265.2074
      2661.5714       2073.9704         55.0004         47.0004
  23106594.9144   -4071878.16943  -3158822.97742  23106592.6034   23106593.8874
      2270.7454       1769.3974         49.0004         43.0004
  24592767.6984   -2494180.67443  -1933270.43842  24592766.9264   24592768.9084
      2940.2594       2291.1154         45.0004         38.0004
  23222634.7534   -6116426.24743  -4751455.64442  23222633.2104   23222634.8114
      3348.0894       2608.8874         49.0004         43.0004
  23669549.7824   -8238234.31543  -6402767.57642  23669551.3144   23669552.4714
     -2510.0834      -1955.8894         47.0004         42.0004
  25256107.4024   -2823147.50443  -2171339.03642  25256105.3084   25256105.7004
      3551.9834       2767.7814         45.0004         38.0004
 08  4 20  1 23 30.0000000  0 11G30G24G29G23G31G16G13G10G 6G 2G21
  23622981.7734  -10072282.44943    540459.24442  23622980.8764   23622982.0404
     -3817.9824      -2975.0564         49.0004         42.0004
  22820345.1824  -11691346.03643  -9095106.56042  22820343.5454   22820347.5164
      2283.3824       1779.2554         50.0004         44.0004
  21193717.3534  -17024003.19644 -13256454.26142  21193716.6544   21193717.8084
      -864.7794       -673.8534         57.0004         51.0004
  22119378.6334  -15436259.45843 -12017070.67042  22119377.5334   22119377.4894
      -292.4674       -227.8924         54.0004         47.0004
  21900544.7454  -19862606.71243 -14132467.28742  21900544.0554   21900544.5814
     -2438.1784      -1899.8854         55.0004         49.0004
  21874109.5374  -18784793.72043 -14624825.29542  21874108.4464   21874108.9314
      2648.2874       2063.5954         55.0004         47.0004
  23093684.0044   -4139720.57743  -3211687.17742  23093684.3764   23093683.5514
      2252.0864       1754.8644         50.0004         42.0004
  24576020.2484   -2582195.29443  -2001853.56442  24576017.6804   24576020.9874
      2927.2964       2281.0144         46.0004         40.0004
  23203547.1284   -6216730.06743  -4829614.31642  23203545.3394   23203547.8204
      3338.9864       2601.8004         49.0004         43.0004
  23683929.6164   -8162687.89843  -6343900.19442  23683923.8874   23683925.0474
     -2526.2914      -1968.5744         48.0004         43.0004
  25235841.4174   -2929646.75143  -2254325.41642  25235839.8274   25235841.5204
      3548.2474       2764.8604         45.0004         38.0004
 08  4 20  1 24  0.0000000  0 11G30G24G29G23G31G16G13G10G 6G 2G21
  23644792.8554   -9957661.19743    629774.41642  23644791.9444   23644793.7334
     -3823.6244      -2979.4344         48.0004         41.0004
  22807353.9824  -11759618.83643  -9148306.31542  22807352.8054   22807355.7214
      2267.8784       1767.1884         51.0004         44.0004
  21198707.3054  -16997780.69744 -13236021.12542  21198706.4174   21198707.4654
      -883.4784       -688.4324         57.0004         51.0004
  22121110.1014  -15427160.55643 -12009980.65642  22121109.2584   22121108.3574
      -314.2514       -244.8724         54.0004         47.0004
  21914504.0784  -19789252.26043 -14075307.97442  21914503.1404   21914503.6554
     -2452.3214      -1910.8984         56.0004         49.0004
  21859025.2144  -18864063.21643 -14686593.60742  21859024.0034   21859024.6824
      2636.1414       2054.1424         55.0004         47.0004
  23080878.2594   -4207020.74943  -3264128.83542  23080875.8504   23080877.2424
      2234.4134       1741.1034         50.0004         43.0004
  24559342.8284   -2669836.43443  -2070145.26442  24559340.5704   24559342.0574
      2915.2574       2271.6294         47.0004         39.0004
  23184506.9004   -6316783.79143  -4907578.40342  23184504.7714   23184508.7374
      3331.1164       2595.7064         48.0004         43.0004
  23698391.4314   -8086674.56043  -6284669.08442  23698390.7324   23698391.9194
     -2541.3724      -1980.1994         47.0004         42.0004
  25215589.5464   -3036077.31043  -2337258.39142  25215588.6444   25215587.9944
      3546.5454       2763.5504         44.0004         38.0004
 08  4 20  1 24 30.0000000  0 11G30G24G29G23G31G16G13G10G 6G 2G21
  23666637.8734   -9842862.39843    719228.40042  23666638.5004   23666639.3514
     -3829.7704      -2984.2664         47.0004         40.0004
  22794452.7794  -11827414.89843  -9201134.38942  22794452.0354   22794454.9984
      2251.7384       1754.5914         51.0004         45.0004
  21203805.0424  -16970990.61444 -13215145.65742  21203804.3684   21203805.7204
      -902.6454       -703.3664         57.0004         51.0004
  22122968.3584  -15417397.75143 -12002373.28342  22122966.7744   22122966.5194
      -336.7424       -262.4004         55.0004         47.0004
  21928544.7344  -19715466.89043 -14017812.80742  21928543.9464   21928543.9494
     -2466.8484      -1922.2204         56.0004         49.0004
  21844012.7324  -18942955.34943 -14748068.04842  21844010.9654   21844011.9964
      2623.2404       2044.0814         55.0004         48.0004
  23068174.1254   -4273777.79743  -3316147.30042  23068174.1184   23068173.5794
      2216.0294       1726.7644         51.0004         43.0004
  24542736.1354   -2757103.33843  -2138145.32742  24542733.6284   24542736.8474
      2902.4654       2261.6764         46.0004         39.0004
  23165515.3274   -6416586.55343  -4985346.91442  23165513.8734   23165516.9194
      3322.3404       2588.8104         49.0004         43.0004
  23712945.6374   -8010198.20843  -6225077.09142  23712943.6144   23712945.0074
     -2557.0134      -1992.5764         50.0004         42.0004
  25195348.3234   -3142438.09343  -2420137.04442  25195346.9494   25195347.3704
      3543.9524       2761.5154         44.0004         38.0004
 08  4 20  1 25  0.0000000  0 11G30G24G29G23G31G16G13G10G 6G 2G21
  23688515.5994   -9727891.85143    808816.09542  23688514.2194   23688517.1004
     -3834.7994      -2988.1604         47.0004         40.0004
  22781642.1384  -11894734.59843  -9253591.11842  22781640.6314   22781643.7294
      2236.4144       1742.6524         51.0004         45.0004
  21209010.2854  -16943636.73844 -13193830.91242  21209009.7024   21209010.9104
      -920.8554       -717.5524         57.0004         51.0004
  22124951.8024  -15406974.08443 -11994250.95342  22124950.3574   22124949.5374
      -358.1084       -279.0374         55.0004         47.0004
  21942666.8554  -19641255.41943 -13959985.83642  21942665.8654   21942665.8014
     -2480.5534      -1932.9084         55.0004         49.0004
  21829071.3684  -19021469.69843 -14809247.75042  21829070.1134   21829071.4564
      2611.1394       2034.6464         55.0004         48.0004
  23055575.0024   -4339992.03843  -3367742.84342  23055572.9924   23055573.5764
      2198.4734       1713.0884         50.0004         42.0004
  24526199.5864   -2843995.68643  -2205853.73742  24526196.7404   24526201.4184
      2890.6304       2252.4424         44.0004         38.0004
  23146571.8814   -6516137.94043  -5062919.26642  23146570.0234   23146572.3394
      3314.5574       2582.7574         49.0004         44.0004
  23727584.6424   -7933264.13643  -6165128.50742  23727583.5304   23727584.2044
     -2571.7994      -2003.9934         47.0004         42.0004
  25175122.3174   -3248728.92743  -2502961.01642  25175120.7694   25175122.5354
      3541.8894       2759.9214         44.0004         38.0004
 08  4 20  1 25 30.0000000  0 11G30G24G29G23G31G16G13G10G 6G 2G21
  23710426.0384   -9612749.59743    898537.32442  23710425.8824   23710428.3574
     -3841.0244      -2993.0064         47.0004         40.0004
  22768922.6264  -11961573.50243  -9305673.24042  22768921.8084   22768924.2724
      2219.8864       1729.7824         51.0004         45.0004
  21214323.3054  -16915717.26444 -13172075.35642  21214322.4524   21214323.6994
      -940.0454       -732.5074         57.0004         51.0004
  22127061.2284  -15395887.24343 -11985611.85542  22127060.8004   22127059.5664
      -380.5204       -296.5054         55.0004         47.0004
  21956870.0734  -19566616.44943 -13901825.51742  21956869.1394   21956869.3914
     -2495.0744      -1944.2164         55.0004         49.0004
  21814203.5404  -19099603.46543 -14870131.25942  21814201.5344   21814202.8014
      2598.1354       2024.5324         55.0004         48.0004
  23043078.0194   -4405658.21843  -3418911.26642  23043077.9084   23043078.1604
      2179.7284       1698.5024         51.0004         43.0004
  24509736.6344   -2930507.87443  -2273265.73642  24509733.5414   24509738.5014
      2877.5674       2242.2664         43.0004         38.0004
  23127676.3054   -6615434.17743  -5140292.80842  23127674.3874   23127677.1274
      3305.6324       2575.7944         49.0004         44.0004
  23742310.3394   -7855872.03443  -6104822.98442  23742313.1024   23742311.4754
     -2587.2444      -2016.0344         48.0004         42.0004
  25154909.4064   -3354945.12043  -2585726.88442  25154907.3494   25154909.6854
      3539.2434       2757.8464         44.0004         38.0004
 08  4 20  1 26  0.0000000  0 11G30G24G29G23G31G16G13G10G 6G 2G21
  23732369.0794   -9497438.90043    988389.72042  23732368.8394   23732370.7604
     -3846.5334      -2997.3064         47.0004         41.0004
  22756295.8964  -12027930.77843  -9357380.06542  22756294.2604   22756297.5144
      2203.7874       1717.2244         51.0004         45.0004
  21219743.5084  -16887235.19444 -13149881.53442  21219742.4734   21219743.6724
      -958.8254       -747.1384         57.0004         51.0004
  22129296.7584  -15384139.17843 -11976457.53442  22129295.8024   22129294.5564
      -402.7584       -313.8424         55.0004         47.0004
  21971153.7954  -19491553.61043 -13843334.96142  21971152.8714   21971153.4934
     -2509.3084      -1955.3134         55.0004         49.0004
  21799407.6624  -19177355.84043 -14930717.70442  21799406.4464   21799407.4614
      2585.1614       2014.4174         55.0004         48.0004
  23030687.8074   -4470775.78243  -3469652.22542  23030687.0284   23030686.9414
      2161.2584       1684.0764         51.0004         43.0004
  24493346.3694   -3016638.80243  -2340380.71442  24493345.2454   24493349.0274
      2864.5464       2232.1044         45.0004         39.0004
  23108829.0614   -6714474.48743  -5217466.94542  23108828.5494   23108830.0944
      3296.7394       2568.8674         50.0004         44.0004
  23757124.7834   -7778026.10243  -6044163.84142  23757125.5864   23757126.4184
     -2602.5194      -2027.9484         48.0004         42.0004
  25134712.1684   -3461085.61843  -2668433.86542  25134709.2454   25134713.2534
      3536.4244       2755.6574         44.0004         38.0004
 08  4 20  1 26 30.0000000  0 11G30G24G29G23G31G16G13G10G 6G 2G21
  23754342.4074   -9381971.09643   1078364.60442  23754341.6634   23754344.4954
     -3852.5284      -3001.9704         48.0004         41.0004
  22743758.6374  -12093813.91643  -9408717.51542  22743757.3454   22743759.7664
      2187.4244       1704.4924         51.0004         45.0004
  21225268.4194  -16858201.09844 -13127257.56442  21225267.3824   21225268.5594
      -977.8484       -761.9654         57.0004         51.0004
  22131656.2934  -15371740.00043 -11966795.84542  22131655.3204   22131654.8044
      -425.0284       -331.1994         54.0004         47.0004
  21985515.8384  -19416078.59243 -13784523.25042  21985515.3014   21985515.7184
     -2523.5044      -1966.3574         55.0004         49.0004
  21784683.0434  -19254734.29843 -14991012.67542  21784681.8274   21784682.7464
      2572.1514       2004.2654         55.0004         48.0004
  23018397.2894   -4535351.93843  -3519971.27742  23018397.1824   23018398.6544
      2142.4834       1669.4574         51.0004         43.0004
  24477027.7864   -3102395.15943  -2407203.79942  24477025.8704   24477028.8654
      2851.6344       2222.0514         44.0004         39.0004
  23090029.9564   -6813266.92743  -5294448.11642  23090028.1084   23090029.6894
      3287.8694       2561.9664         50.0004         44.0004
  23772024.7264   -7699738.96343  -5983160.84642  23772020.0184   23772023.2364
     -2617.7054      -2039.7634         46.0004         41.0004
  25114527.7034   -3567157.85343  -2751087.52542  25114525.1324   25114528.4464
      3533.6704       2753.5024         44.0004         38.0004
 08  4 20  1 27  0.0000000  0 11G30G24G29G23G31G16G13G10G 6G 2G21
  23776348.8224   -9266327.35643   1168476.56542  23776348.8574   23776351.0654
     -3858.2204      -3006.4094         48.0004         41.0004
  22731316.0244  -12159199.52443  -9459667.31642  22731314.0684   22731317.2644
      2171.0254       1691.7044         51.0004         45.0004
  21230902.7254  -16828594.58344 -13104187.45742  21230901.4914   21230902.5214
      -996.5854       -776.5614         57.0004         51.0004
  22134143.8374  -15358669.34443 -11956610.91242  22134142.5094   22134142.4004
      -447.2584       -348.5194         55.0004         47.0004
  21999960.3704  -19340172.07143 -13725375.32142  21999959.8754   21999960.2484
     -2537.5464      -1977.3104         55.0004         49.0004
  21770033.7954  -19331715.86743 -15050998.30742  21770032.5054   21770033.7824
      2559.3374       1994.2844         55.0004         48.0004
  23006219.1804   -4599362.83243  -3569849.90742  23006217.0924   23006217.8794
      2124.0434       1655.1084         50.0004         43.0004
  24460783.2474   -3187752.05943  -2473715.51142  24460780.4614   24460784.7424
      2838.4884       2211.8014         44.0004         38.0004
  23071281.8494   -6911788.07743  -5371217.90342  23071280.1924   23071282.9204
      3279.3164       2555.3034         50.0004         43.0004
  23787011.7854   -7620991.68643  -5921799.36142  23787007.4204   23787009.2344
     -2632.7734      -2051.5364         48.0004         42.0004
  25094359.7794   -3673138.06443  -2833669.46942  25094358.8544   25094360.7824
      3530.8784       2751.3314         44.0004         38.0004
 08  4 20  1 27 30.0000000  0 11G30G24G29G23G31G16G13G10G 6G 2G21
  23798385.8414   -9150521.66643   1258714.71742  23798385.5244   23798386.4314
     -3863.3174      -3010.3744         48.0004         41.0004
  22718965.9734  -12224097.15843  -9510236.86742  22718965.1054   22718968.5004
      2154.9054       1679.1334         51.0004         45.0004
  21236642.8064  -16798429.20044 -13080681.94942  21236641.7834   21236642.5534
     -1015.0894       -790.9774         57.0004         51.0004
  22136757.1274  -15344939.34143 -11945912.21942  22136755.5604   22136755.1154
      -468.9944       -365.4484         55.0004         47.0004
  22014484.7364  -19263847.72143 -13665901.81742  22014484.1334   22014484.6664
     -2551.2824      -1988.0094         55.0004         49.0004
  21755458.4104  -19408310.26243 -15110682.12242  21755457.0404   21755458.5774
      2546.4084       1984.2044         55.0004         48.0004
  22994140.9164   -4662818.48743  -3619295.86242  22994140.3454   22994142.1784
      2105.7094       1640.8094         50.0004         43.0004
  24444613.5544   -3272718.80343  -2539923.42442  24444614.0984   24444617.2624
      2825.1154       2201.3864         43.0004         39.0004
  23052583.7074   -7010047.01943  -5447783.17442  23052583.1164   23052583.8964
      3270.6684       2548.5494         50.0004         44.0004
  23802079.5274   -7541798.64643  -5860090.53942  23802079.7294   23802076.7874
     -2647.7734      -2063.2084         49.0004         42.0004
  25074208.3004   -3779035.74943  -2916187.30742  25074207.0604   25074207.0944
      3528.0344       2749.1234         44.0004         38.0004
 08  4 20  1 28  0.0000000  0 11G30G24G29G23G31G16G13G10G 6G 2G21
  23820453.2354   -9034554.51943   1349078.55242  23820453.0754   23820454.1694
     -3868.0244      -3014.0594         46.0004         40.0004
  22706709.6154  -12288503.08543  -9560423.34942  22706708.5924   22706711.1694
      2138.6864       1666.5154         51.0004         45.0004
  21242489.6864  -16767704.01144 -13056740.19742  21242488.3604   21242489.3474
     -1033.4264       -805.2704         57.0004         51.0004
  22139495.8674  -15330548.19943 -11934698.33242  22139493.9264   22139492.8334
      -490.7634       -382.4254         55.0004         47.0004
  22029088.8794  -19187105.63643 -13606102.84842  22029087.9624   22029087.9614
     -2565.0244      -1998.7234         55.0004         49.0004
  21740956.7164  -19484514.60843 -15170061.97642  21740955.9334   21740956.7114
      2533.6254       1974.2504         55.0004         48.0004
  22982174.2234   -4725714.48943  -3668305.78442  22982171.7494   22982174.2264
      2087.0574       1626.2694         50.0004         43.0004
  24428522.3954   -3357289.88043  -2605822.75142  24428517.7934   24428521.6704
      2812.2324       2191.3394         44.0004         38.0004
  23033935.7534   -7108040.79443  -5524142.04642  23033933.8214   23033937.1454
      3262.1334       2541.9214         49.0004         44.0004
  23817235.9924   -7462160.87543  -5798035.10942  23817231.1934   23817230.0404
     -2662.0384      -2074.3474         49.0004         42.0004
  25054073.9764   -3884846.42843  -2998637.21442  25054071.7754   25054072.1164
      3525.3844       2747.0444         44.0004         38.0004
 08  4 20  1 28 30.0000000  0 11G30G24G29G23G31G16G13G10G 6G 2G21
  23842550.0274   -8918438.13143   1439558.64742  23842549.5344   23842552.5294
     -3872.9794      -3017.9024         46.0004         40.0004
  22694546.1274  -12352424.81943  -9610232.43342  22694544.7734   22694548.4354
      2122.6374       1654.0004         51.0004         45.0004
  21248440.4594  -16736430.73444 -13032371.40442  21248439.4614   21248440.6494
     -1051.5634       -819.3954         57.0004         51.0004
  22142356.8834  -15315507.38143 -11922978.22042  22142355.3954   22142354.5674
      -512.2104       -399.1224         54.0004         47.0004
  22043769.0394  -19109958.09643 -13545987.85142  22043768.5174   22043768.5644
     -2578.3444      -2009.1104         55.0004         49.0004
  21726528.5874  -19560337.27143 -15229144.48642  21726527.1524   21726528.1324
      2521.1254       1964.5184         55.0004         48.0004
  22970309.5064   -4788058.82343  -3716885.75842  22970308.4964   22970311.3184
      2069.0284       1612.2194         50.0004         43.0004
  24412503.8044   -3441473.21143  -2671419.72242  24412501.6424   24412503.9914
      2799.7694       2181.6304         45.0004         40.0004
  23015336.8024   -7205776.92843  -5600300.04642  23015335.7034   23015338.5904
      3253.4814       2535.1914         49.0004         44.0004
  23832471.5354   -7382090.69843  -5735642.79142  23832470.7774   23832470.1844
     -2676.0854      -2085.2504         50.0004         43.0004
  25033954.0034   -3990578.67843  -3081026.10842  25033951.3474   25033951.3134
      3522.9094       2745.1234         44.0004         37.0004
 08  4 20  1 29  0.0000000  0 11G30G24G29G23G31G16G13G10G 6G 2G21
  23864678.5964   -8802155.19743   1530168.61242  23864678.0284   23864680.0744
     -3879.0064      -3022.6004         47.0004         41.0004
  22682478.5134  -12415841.39443  -9659647.90242  22682477.1274   22682480.0534
      2105.7094       1640.8154         51.0004         45.0004
  21254499.3594  -16704591.21844 -13007561.39942  21254498.3414   21254499.6954
     -1070.6894       -834.2974         57.0004         51.0004
  22145346.3354  -15299798.42843 -11910737.49242  22145345.5144   22145344.3794
      -534.6664       -416.6054         54.0004         47.0004
  22058529.7374  -19032387.93743 -13485543.47942  22058529.3274   22058529.4454
     -2592.5234      -2020.1354         54.0004         49.0004
  21712176.8234  -19635757.59843 -15287913.62542  21712175.2224   21712175.8044
      2507.3254       1953.7654         56.0004         48.0004
  22958554.0944   -4849830.04043  -3765019.15442  22958554.3044   22958555.3154
      2049.5314       1597.0614         50.0004         43.0004
  24396561.8904   -3525247.52243  -2736698.20942  24396559.1254   24396562.5764
      2785.7104       2170.6784         45.0004         39.0004
  22996792.1684   -7303234.78243  -5676241.30242  22996791.4284   22996793.4914
      3244.0724       2527.8694         50.0004         44.0004
  23847792.1714   -7301572.23243  -5672901.10942  23847789.1904   23847790.2434
     -2691.2804      -2097.0664         47.0004         42.0004
  25013851.4954   -4096209.98343  -3163336.16242  25013849.9194   25013852.7634
      3519.4334       2742.4214         43.0004         37.0004
 08  4 20  1 29 30.0000000  0 11G30G24G29G23G31G16G13G10G 6G 2G21
  23886835.1084   -8685717.97343   1620899.14642  23886834.8524   23886836.7404
     -3883.8434      -3026.3714         48.0004         41.0004
  22670504.6404  -12478761.40443  -9708676.47842  22670503.5994   22670506.7594
      2088.9754       1627.7824         51.0004         45.0004
  21260663.8314  -16672197.13144 -12982319.24842  21260662.6824   21260663.9144
     -1089.1354       -848.6784         57.0004         51.0004
  22148461.1274  -15283432.23043 -11897984.64542  22148459.9384   22148459.0444
      -556.4974       -433.6264         55.0004         47.0004
  22073369.2614  -18954407.10043 -13424779.19642  22073368.4914   22073368.6834
     -2606.2854      -2030.8684         55.0004         49.0004
  21697899.2754  -19710783.70643 -15346375.42142  21697897.7744   21697899.0604
      2494.1504       1943.4884         56.0004         48.0004
  22946908.6774   -4911036.57643  -3812712.51142  22946907.1324   22946908.1484
      2030.8304       1582.4674         51.0004         43.0004
  24380695.9974   -3608619.81143  -2801663.41042  24380695.3624   24380697.0824
      2772.1424       2160.1174         45.0004         39.0004
  22978297.3754   -7400422.32043  -5751971.79542  22978296.6614   22978298.4554
      3234.9774       2520.7444         49.0004         44.0004
  23863195.1394   -7220618.15443  -5609820.03142  23863198.1164   23863196.7534
     -2705.8044      -2108.3894         49.0004         42.0004
  24993768.2664   -4201749.14143  -3245574.54942  24993766.5394   24993768.5964
      3516.6714       2740.2654         43.0004         38.0004
 08  4 20  1 30  0.0000000  0 11G30G24G29G23G31G16G13G10G 6G 2G21
  23909021.5094   -8569129.00343   1711747.85642  23909020.4604   23909023.9114
     -3888.4864      -3029.9904         47.0004         41.0004
  22658626.5234  -12541182.30343  -9757316.13442  22658625.7074   22658628.2344
      2072.6594       1615.0574         51.0004         45.0004
  21266933.5444  -16639249.57844 -12956645.84942  21266932.3114   21266933.5894
     -1107.1644       -862.7234         57.0004         51.0004
  22151700.6584  -15266409.24943 -11884720.03442  22151699.2864   22151698.8554
      -577.9824       -450.3794         55.0004         47.0004
  22088286.1604  -18876017.98943 -13363696.77242  22088285.4674   22088286.0054
     -2619.4464      -2041.1304         54.0004         49.0004
  21683697.8014  -19785414.09743 -15404528.89742  21683696.0494   21683697.2424
      2481.4774       1933.6234         56.0004         48.0004
  22935368.1134   -4971675.91243  -3859963.90042  22935368.3854   22935368.9554
      2012.1404       1567.9194         51.0004         43.0004
  24364905.5814   -3691586.69043  -2866312.78542  24364904.6844   24364908.8104
      2759.2824       2150.0754         43.0004         39.0004
  22959855.7984   -7497337.58743  -5827490.16442  22959854.4024   22959856.1604
      3226.3294       2514.0224         50.0004         44.0004
  23878687.1554   -7139230.98143  -5546401.40942  23878681.8254   23878682.6314
     -2719.7284      -2119.2624         47.0004         42.0004
  24973703.8644   -4307192.43943  -3327738.06042  24973702.3444   24973702.6674
      3513.4484       2737.7454         44.0004         38.0004
 08  4 20  1 30 30.0000000  0 11G30G24G29G23G31G16G13G10G 6G 2G21
  23931236.3724   -8452387.54943   1802715.27642  23931236.1764   23931238.5024
     -3893.9054      -3034.2104         48.0004         41.0004
  22646844.2594  -12603099.13043  -9805563.01842  22646843.4274   22646846.4574
      2055.4804       1601.6794         51.0004         45.0004
  21273308.5974  -16605747.05144 -12930540.01142  21273307.6274   21273308.8784
     -1126.0854       -877.4704         57.0004         51.0004
  22155065.7084  -15248727.06243 -11870941.77842  22155064.1994   22155063.4964
      -600.3784       -467.8284         55.0004         47.0004
  22103281.2504  -18797219.61143 -13302295.49842  22103280.2824   22103280.2654
     -2633.4944      -2052.0794         54.0004         48.0004
  21669571.7844  -19859644.27743 -15462370.53942  21669570.6784   21669571.5864
      2467.6284       1922.8254         55.0004         48.0004
  22923939.5224   -5031742.87743  -3906769.32142  22923937.5824   22923937.9684
      1992.6264       1552.6624         50.0004         43.0004
  24349194.8674   -3774142.66243  -2930642.08942  24349193.4014   24349199.1534
      2744.8574       2138.8484         42.0004         39.0004
  22941466.0334   -7593975.63543  -5902792.60642  22941465.0554   22941465.9654
      3216.5484       2506.4154         50.0004         44.0004
  23894253.2254   -7057410.18743  -5482644.95742  23894255.0974   23894263.6284
     -2734.6784      -2130.8794         48.0004         42.0004
  24953658.4314   -4412535.65643  -3409823.76742  24953655.6124   24953656.6714
      3509.6284       2734.7764         45.0004         38.0004
